[[{"header":{"parameterUnit":"m.s-1","parameterCategory":1,"la1":31.0,"la2":29.5877,"lo1":-88.7671,"lo2":-86.6584,"dy":0.0162,"dx":0.0185,"nx":115,"ny":88,"refTime":"2024-06-07T06:00:00:Z","depth":0,"parameterNumber":2,"parameterNumberName":"U-component_of_WINDS"},"data":[0.0,0.0,0.0,0.0,0.0,0.0,0.0,0.0,0.0,0.0,0.0,0.0,0.0,0.0,0.0,0.0,0.0,0.0,0.0,0.0,0.0,0.0,0.0,0.0,0.0,0.0,0.0,0.0,0.0,0.0,0.0,0.0,0.0,0.0,0.0,0.0,0.0,0.0,0.0,0.0,0.0,0.0,0.0,0.0,0.0,0.0,0.0,0.0,0.0,0.0,0.0,0.0,0.0,0.0,0.0,0.0,0.0,0.0,0.0,0.0,0.0,0.0,0.0,0.0,0.0,0.0,0.0,0.0,0.0,0.0,0.0,0.0,0.0,0.0,0.0,0.0,0.0,0.0,0.0,0.0,0.0,0.0,0.0,0.0,0.0,0.0,0.0,0.0,0.0,0.0,0.0,0.0,0.0,0.0,0.0,0.0,0.0,0.0,0.0,0.0,0.0,0.0,0.0,0.0,0.0,0.0,0.0,0.0,0.0,0.0,0.0,0.0,0.0,0.0,0.0,0.0,0.0,0.0,0.0,0.0,0.0,0.0,0.0,0.0,0.0,0.0,0.0,0.0,0.0,0.0,0.0,0.0,0.0,0.0,0.0,0.0,0.0,0.0,0.0,0.0,0.0,0.0,0.0,0.0,0.0,0.0,0.0,0.0,0.0,0.0,0.0,0.0,0.0,0.0,0.0,0.0,0.0,0.0,0.0,0.0,0.0,0.0,0.0,0.0,0.0,0.0,0.0,0.0,0.0,0.0,0.0,0.0,0.0,0.0,0.0,0.0,0.0,0.0,0.0,0.0,0.0,0.0,0.0,0.0,0.0,0.0,0.0,0.0,0.0,0.0,0.0,0.0,0.0,0.0,0.0,0.0,0.0,0.0,0.0,0.0,0.0,0.0,0.0,0.0,0.0,0.0,0.0,0.0,0.0,0.0,0.0,0.0,0.0,0.0,0.0,0.0,0.0,0.0,0.0,0.0,0.0,0.0,0.0,0.0,0.0,0.0,0.0,0.0,0.0,0.0,0.0,0.0,0.0,0.0,0.0,0.0,0.0,0.0,0.0,0.0,0.0,0.0,0.0,0.0,0.0,0.0,0.0,0.0,0.0,0.0,0.0,0.0,0.0,0.0,0.0,0.0,0.0,0.0,0.0,0.0,0.0,0.0,0.0,0.0,0.0,0.0,0.0,0.0,0.0,0.0,0.0,0.0,0.0,0.0,0.0,0.0,0.0,0.0,0.0,0.0,0.0,0.0,0.0,0.0,0.0,0.0,0.0,0.0,0.0,0.0,0.0,0.0,0.0,0.0,0.0,0.0,0.0,0.0,0.0,0.0,0.0,0.0,0.0,0.0,0.0,0.0,0.0,0.0,0.0,0.0,0.0,0.0,0.0,0.0,0.0,0.0,0.0,0.0,0.0,0.0,0.0,0.0,0.0,0.0,0.0,0.0,0.0,0.0,0.0,0.0,0.0,0.0,0.0,0.0,0.0,0.0,0.0,0.0,0.0,0.0,0.0,0.0,0.0,0.0,0.0,0.0,0.0,0.0,0.0,0.0,0.0,0.0,0.0,0.0,0.0,0.0,0.0,0.0,0.0,0.0,0.0,0.0,0.0,0.0,0.0,0.0,0.0,0.0,0.0,0.0,0.0,0.0,0.0,0.0,0.0,0.0,0.0,0.0,0.0,0.0,0.0,0.0,0.0,0.0,0.0,0.0,0.0,0.0,0.0,0.0,0.0,0.0,0.0,0.0,0.0,0.0,0.0,0.0,0.0,0.0,0.0,0.0,0.0,0.0,0.0,0.0,0.0,0.0,0.0,0.0,0.0,0.0,0.0,0.0,0.0,0.0,0.0,0.0,0.0,0.0,0.0,0.0,0.0,0.0,0.0,0.0,0.0,0.0,0.0,0.0,0.0,0.0,0.0,0.0,0.0,0.0,0.0,0.0,0.0,0.0,0.0,0.0,0.0,0.0,0.0,0.0,0.0,0.0,0.0,0.0,0.0,0.0,0.0,0.0,0.0,0.0,0.0,0.0,0.0,0.0,0.0,0.0,0.0,0.0,0.0,0.0,0.0,0.0,0.0,0.0,0.0,0.0,0.0,0.0,0.0,0.0,0.0,0.0,0.0,0.0,0.0,0.0,0.0,0.0,0.0,0.0,0.0,0.0,0.0,0.0,0.0,0.0,0.0,0.0,0.0,0.0,0.0,0.0,0.0,0.0,0.0,0.0,0.0,0.0,0.0,0.0,0.0,0.0,0.0,0.0,0.0,0.0,0.0,0.0,0.0,0.0,0.0,0.0,0.0,0.0,0.0,0.0,0.0,0.0,0.0,0.0,0.0,0.0,0.0,0.0,0.0,0.0,0.0,0.0,0.0,0.0,0.0,0.0,0.0,0.0,0.0,0.0,0.0,0.0,0.0,0.0,0.0,0.0,0.0,0.0,0.0,0.0,0.0,0.0,0.0,0.0,0.0,0.0,0.0,0.0,0.0,0.0,0.0,0.0,0.0,0.0,0.0,0.0,0.0,0.0,0.0,0.0,0.0,0.0,0.0,0.0,0.0,0.0,0.0,0.0,0.0,0.0,0.0,0.0,0.0,0.0,0.0,0.0,0.0,0.0,0.0,0.0,0.0,0.0,0.0,0.0,0.0,0.0,0.0,0.0,0.0,0.0,0.0,0.0,0.0,0.0,0.0,0.0,0.0,0.0,0.0,0.0,0.0,0.0,0.0,0.0,0.0,0.0,0.0,0.0,0.0,0.0,0.0,0.0,0.0,0.0,0.0,0.0,0.0,0.0,0.0,0.0,0.0,0.0,0.0,0.0,0.0,0.0,0.0,0.0,0.0,0.0,0.0,0.0,0.0,0.0,0.0,0.0,0.0,0.0,0.0,0.0,0.0,0.0,0.0,0.0,0.0,0.0,0.0,0.0,0.0,0.0,0.0,0.0,0.0,0.0,0.0,0.0,0.0,0.0,0.0,0.0,0.0,0.0,0.0,0.0,0.0,0.0,0.0,0.0,0.0,0.0,0.0,0.0,0.0,0.0,0.0,0.0,0.0,0.0,0.0,0.0,0.0,0.0,0.0,0.0,0.0,0.0,0.0,0.0,0.0,0.0,0.0,0.0,0.0,0.0,0.0,0.0,0.0,0.0,0.0,0.0,0.0,0.0,0.0,0.0,0.0,0.0,0.0,0.0,0.0,0.0,0.0,0.0,0.0,0.0,0.0,0.0,0.0,0.0,0.0,0.0,0.0,0.0,0.0,0.0,0.0,0.0,0.0,0.0,0.0,0.0,0.0,0.0,0.0,0.0,0.0,0.0,0.0,0.0,0.0,0.0,0.0,0.0,0.0,0.0,0.0,0.0,0.0,0.0,0.0,0.0,0.0,0.0,0.0,0.0,0.0,0.0,0.0,0.0,0.0,0.0,0.0,0.0,0.0,0.0,0.0,0.0,0.0,0.0,0.0,0.0,0.0,0.0,0.0,0.0,0.0,0.0,0.0,0.0,0.0,0.0,0.0,0.0,0.0,0.0,0.0,0.0,0.0,0.0,0.0,0.0,0.0,0.0,0.0,0.0,0.0,0.0,0.0,0.0,0.0,0.0,0.0,0.0,0.0,0.0,0.0,0.0,0.0,0.0,0.0,0.0,0.0,0.0,0.0,0.0,0.0,0.0,0.0,0.0,0.0,0.0,0.0,0.0,0.0,0.0,0.0,0.0,0.0,0.0,0.0,0.0,0.0,0.0,0.0,0.0,0.0,0.0,0.0,0.0,0.0,0.0,0.0,0.0,0.0,0.0,0.0,0.0,0.0,0.0,0.0,0.0,0.0,0.0,0.0,0.0,0.0,0.0,0.0,0.0,0.0,0.0,0.0,0.0,0.0,0.0,0.0,0.0,0.0,0.0,0.0,0.0,0.0,0.0,0.0,0.0,0.0,0.0,0.0,0.0,0.0,0.0,0.0,0.0,0.0,0.0,0.0,0.0,0.0,0.0,0.0,0.0,0.0,0.0,0.0,0.0,0.0,0.0,0.0,0.0,0.0,0.0,0.0,0.0,0.0,0.0,0.0,0.0,0.0,0.0,0.0,0.0,0.0,0.0,0.0,0.0,0.0,0.0,0.0,0.0,0.0,0.0,0.0,0.0,0.0,0.0,0.0,0.0,0.0,0.0,0.0,0.0,0.0,0.0,0.0,0.0,0.0,0.0,0.0,0.0,0.0,0.0,0.0,0.0,0.0,0.0,0.0,0.0,0.0,0.0,0.0,0.0,0.0,0.0,0.0,0.0,-3.1292,0.0,0.0,0.0,0.0,0.0,0.0,0.0,0.0,0.0,0.0,0.0,0.0,0.0,0.0,0.0,0.0,0.0,0.0,0.0,0.0,0.0,0.0,0.0,0.0,0.0,0.0,0.0,0.0,0.0,0.0,0.0,0.0,0.0,0.0,0.0,0.0,0.0,0.0,0.0,0.0,0.0,0.0,0.0,0.0,0.0,0.0,0.0,0.0,0.0,0.0,0.0,0.0,0.0,0.0,0.0,0.0,0.0,0.0,0.0,0.0,0.0,0.0,0.0,0.0,0.0,0.0,0.0,0.0,0.0,0.0,0.0,0.0,0.0,0.0,0.0,0.0,0.0,0.0,0.0,0.0,0.0,0.0,0.0,0.0,0.0,0.0,0.0,0.0,0.0,0.0,0.0,0.0,0.0,0.0,0.0,0.0,0.0,0.0,0.0,0.0,0.0,0.0,0.0,0.0,0.0,0.0,0.0,0.0,0.0,0.0,-3.5834,-3.5917,-3.5095,-3.3862,-3.21,0.0,0.0,0.0,0.0,0.0,0.0,0.0,0.0,0.0,0.0,0.0,0.0,0.0,0.0,0.0,0.0,0.0,0.0,0.0,0.0,0.0,0.0,0.0,0.0,0.0,0.0,0.0,0.0,0.0,0.0,0.0,0.0,0.0,0.0,0.0,0.0,0.0,0.0,0.0,0.0,0.0,0.0,0.0,0.0,0.0,0.0,0.0,0.0,0.0,0.0,0.0,0.0,0.0,0.0,0.0,0.0,0.0,0.0,0.0,0.0,0.0,0.0,0.0,0.0,0.0,0.0,0.0,0.0,0.0,0.0,0.0,0.0,0.0,0.0,0.0,0.0,0.0,0.0,0.0,0.0,0.0,0.0,0.0,0.0,0.0,0.0,0.0,0.0,0.0,0.0,0.0,0.0,0.0,0.0,0.0,0.0,0.0,0.0,0.0,0.0,0.0,0.0,0.0,0.0,0.0,0.0,0.0,0.0,0.0,0.0,0.0,0.0,-3.6827,-3.5391,-3.3201,0.0,0.0,0.0,0.0,0.0,0.0,0.0,0.0,0.0,0.0,0.0,0.0,0.0,0.0,0.0,0.0,0.0,0.0,0.0,0.0,0.0,0.0,0.0,0.0,0.0,0.0,0.0,0.0,0.0,0.0,0.0,0.0,0.0,0.0,0.0,0.0,0.0,0.0,0.0,0.0,0.0,0.0,0.0,0.0,0.0,0.0,0.0,0.0,0.0,0.0,0.0,0.0,0.0,0.0,0.0,0.0,0.0,0.0,0.0,0.0,0.0,0.0,0.0,0.0,0.0,0.0,0.0,0.0,0.0,0.0,0.0,0.0,0.0,0.0,0.0,0.0,0.0,0.0,0.0,0.0,0.0,0.0,0.0,0.0,0.0,0.0,0.0,0.0,0.0,0.0,0.0,0.0,0.0,0.0,0.0,0.0,0.0,0.0,0.0,0.0,0.0,0.0,0.0,0.0,0.0,0.0,0.0,0.0,0.0,0.0,-3.786,-3.9965,-3.9667,0.0,-3.499,0.0,0.0,0.0,0.0,0.0,0.0,0.0,0.0,0.0,0.0,0.0,0.0,0.0,0.0,0.0,0.0,0.0,0.0,0.0,0.0,0.0,0.0,0.0,0.0,0.0,0.0,0.0,0.0,0.0,0.0,0.0,0.0,0.0,0.0,0.0,0.0,0.0,0.0,0.0,0.0,0.0,0.0,0.0,0.0,0.0,0.0,0.0,0.0,0.0,0.0,0.0,0.0,0.0,0.0,0.0,0.0,0.0,0.0,0.0,0.0,0.0,0.0,0.0,0.0,0.0,0.0,0.0,0.0,0.0,0.0,0.0,0.0,0.0,0.0,0.0,0.0,0.0,0.0,0.0,0.0,0.0,0.0,0.0,0.0,0.0,0.0,0.0,0.0,0.0,0.0,0.0,0.0,0.0,0.0,0.0,0.0,0.0,0.0,0.0,0.0,0.0,0.0,0.0,0.0,0.0,0.0,0.0,0.0,0.0,0.0,-4.0178,-4.1258,-3.9468,-3.7386,0.0,0.0,0.0,0.0,0.0,0.0,0.0,0.0,0.0,0.0,0.0,0.0,0.0,0.0,0.0,0.0,0.0,0.0,0.0,0.0,0.0,0.0,0.0,0.0,0.0,0.0,0.0,0.0,0.0,0.0,0.0,0.0,0.0,0.0,0.0,0.0,0.0,0.0,0.0,0.0,0.0,0.0,0.0,0.0,0.0,0.0,0.0,0.0,0.0,0.0,0.0,0.0,0.0,0.0,0.0,0.0,0.0,0.0,0.0,0.0,0.0,0.0,0.0,0.0,0.0,0.0,0.0,0.0,0.0,0.0,0.0,0.0,0.0,0.0,0.0,0.0,0.0,0.0,0.0,0.0,0.0,0.0,0.0,0.0,0.0,0.0,0.0,0.0,0.0,0.0,0.0,0.0,0.0,0.0,0.0,0.0,0.0,0.0,0.0,0.0,0.0,0.0,0.0,0.0,0.0,0.0,0.0,0.0,0.0,0.0,-4.0597,-4.1639,-4.1996,-4.0004,-3.7624,-3.5082,0.0,0.0,0.0,0.0,0.0,0.0,0.0,0.0,0.0,0.0,0.0,0.0,0.0,0.0,0.0,0.0,0.0,0.0,0.0,0.0,0.0,0.0,0.0,0.0,0.0,0.0,0.0,0.0,0.0,0.0,0.0,0.0,0.0,0.0,0.0,0.0,0.0,0.0,0.0,0.0,0.0,0.0,0.0,0.0,0.0,0.0,0.0,0.0,0.0,0.0,0.0,0.0,0.0,0.0,0.0,0.0,0.0,0.0,0.0,0.0,0.0,0.0,0.0,0.0,0.0,0.0,0.0,0.0,0.0,0.0,0.0,0.0,0.0,0.0,0.0,0.0,0.0,0.0,0.0,0.0,0.0,0.0,0.0,0.0,0.0,0.0,0.0,0.0,0.0,0.0,0.0,0.0,0.0,0.0,0.0,0.0,0.0,0.0,0.0,0.0,0.0,0.0,0.0,0.0,0.0,0.0,0.0,0.0,-4.2259,-4.1597,-4.1669,-4.2768,-4.2332,-3.9863,0.0,0.0,0.0,0.0,0.0,0.0,0.0,0.0,0.0,0.0,0.0,0.0,0.0,0.0,0.0,0.0,0.0,0.0,0.0,0.0,0.0,0.0,0.0,0.0,0.0,0.0,0.0,0.0,0.0,0.0,0.0,0.0,0.0,0.0,0.0,0.0,0.0,0.0,0.0,0.0,0.0,0.0,0.0,0.0,0.0,0.0,0.0,0.0,0.0,0.0,0.0,0.0,0.0,0.0,0.0,0.0,0.0,0.0,0.0,0.0,0.0,0.0,0.0,0.0,0.0,0.0,0.0,0.0,0.0,0.0,0.0,0.0,0.0,0.0,0.0,0.0,0.0,0.0,0.0,0.0,0.0,0.0,0.0,0.0,0.0,0.0,0.0,0.0,0.0,0.0,0.0,0.0,0.0,0.0,0.0,0.0,0.0,0.0,0.0,0.0,0.0,0.0,0.0,0.0,0.0,0.0,0.0,0.0,0.0,-3.9509,-4.0889,-4.257,-4.4362,-4.1132,-3.8395,0.0,0.0,0.0,0.0,0.0,0.0,0.0,0.0,0.0,0.0,0.0,0.0,0.0,0.0,0.0,0.0,0.0,0.0,0.0,0.0,0.0,0.0,0.0,0.0,0.0,0.0,0.0,0.0,0.0,0.0,0.0,0.0,0.0,0.0,0.0,0.0,0.0,0.0,0.0,0.0,0.0,0.0,0.0,0.0,0.0,0.0,0.0,0.0,0.0,0.0,0.0,0.0,0.0,0.0,0.0,0.0,0.0,0.0,0.0,0.0,0.0,0.0,0.0,0.0,0.0,0.0,0.0,0.0,0.0,0.0,0.0,0.0,0.0,0.0,0.0,0.0,0.0,0.0,0.0,0.0,0.0,0.0,0.0,0.0,0.0,0.0,0.0,0.0,0.0,0.0,0.0,0.0,0.0,0.0,0.0,0.0,0.0,0.0,0.0,0.0,0.0,0.0,0.0,0.0,0.0,0.0,0.0,0.0,0.0,-3.9623,0.0,-4.324,-4.4092,-4.0422,-3.7514,0.0,0.0,0.0,0.0,0.0,0.0,0.0,0.0,0.0,0.0,0.0,0.0,0.0,0.0,0.0,0.0,0.0,0.0,0.0,0.0,0.0,0.0,0.0,0.0,0.0,0.0,0.0,0.0,0.0,0.0,0.0,0.0,0.0,0.0,0.0,0.0,0.0,0.0,0.0,0.0,0.0,0.0,0.0,0.0,0.0,0.0,0.0,0.0,0.0,0.0,0.0,0.0,0.0,0.0,0.0,0.0,0.0,0.0,0.0,0.0,0.0,0.0,0.0,0.0,0.0,0.0,0.0,0.0,0.0,0.0,0.0,0.0,0.0,0.0,0.0,0.0,0.0,0.0,0.0,0.0,0.0,0.0,0.0,0.0,0.0,0.0,0.0,0.0,0.0,0.0,0.0,0.0,0.0,0.0,0.0,0.0,0.0,0.0,0.0,0.0,0.0,0.0,0.0,0.0,0.0,0.0,0.0,0.0,-4.048,-4.3379,-4.3981,-4.3456,-4.1744,-4.0468,-3.7558,0.0,0.0,0.0,0.0,0.0,0.0,0.0,0.0,0.0,0.0,0.0,0.0,0.0,0.0,0.0,0.0,0.0,0.0,0.0,0.0,0.0,0.0,0.0,0.0,0.0,0.0,0.0,0.0,0.0,0.0,0.0,0.0,0.0,0.0,0.0,0.0,0.0,0.0,0.0,0.0,0.0,0.0,0.0,0.0,0.0,0.0,0.0,0.0,0.0,0.0,0.0,0.0,0.0,0.0,0.0,0.0,0.0,0.0,0.0,0.0,0.0,0.0,0.0,0.0,0.0,0.0,0.0,0.0,0.0,0.0,0.0,0.0,0.0,0.0,0.0,0.0,0.0,0.0,0.0,0.0,0.0,0.0,0.0,0.0,0.0,0.0,0.0,0.0,0.0,0.0,0.0,0.0,0.0,0.0,0.0,0.0,0.0,0.0,0.0,0.0,0.0,0.0,0.0,0.0,0.0,0.0,0.0,0.0,0.0,-4.2997,-4.2793,-4.3211,-4.4167,-4.0385,-3.7759,0.0,0.0,0.0,0.0,0.0,0.0,0.0,0.0,0.0,0.0,0.0,0.0,0.0,0.0,0.0,0.0,0.0,0.0,0.0,0.0,0.0,0.0,0.0,0.0,0.0,0.0,0.0,0.0,0.0,0.0,0.0,0.0,0.0,0.0,0.0,0.0,0.0,0.0,0.0,0.0,0.0,0.0,0.0,0.0,0.0,0.0,0.0,0.0,0.0,0.0,0.0,0.0,0.0,0.0,0.0,0.0,0.0,0.0,0.0,0.0,0.0,0.0,0.0,0.0,0.0,0.0,0.0,0.0,0.0,0.0,0.0,0.0,0.0,0.0,0.0,0.0,0.0,0.0,0.0,0.0,0.0,0.0,0.0,0.0,0.0,0.0,0.0,0.0,0.0,0.0,0.0,0.0,0.0,0.0,0.0,0.0,0.0,0.0,0.0,0.0,0.0,0.0,0.0,0.0,0.0,0.0,0.0,0.0,0.0,-4.4893,-4.4429,-4.4653,-4.568,-4.1802,-3.9048,-3.7619,0.0,0.0,0.0,0.0,0.0,0.0,0.0,0.0,0.0,0.0,0.0,0.0,0.0,0.0,0.0,0.0,0.0,0.0,0.0,0.0,0.0,0.0,0.0,0.0,0.0,0.0,0.0,0.0,0.0,0.0,0.0,0.0,0.0,0.0,0.0,0.0,0.0,0.0,0.0,0.0,0.0,0.0,0.0,0.0,0.0,0.0,0.0,0.0,0.0,0.0,0.0,0.0,0.0,0.0,0.0,0.0,0.0,0.0,0.0,0.0,0.0,0.0,0.0,0.0,0.0,0.0,0.0,0.0,0.0,0.0,0.0,0.0,0.0,0.0,0.0,0.0,0.0,0.0,0.0,0.0,0.0,0.0,0.0,0.0,0.0,0.0,0.0,0.0,0.0,0.0,0.0,0.0,0.0,0.0,0.0,0.0,0.0,0.0,0.0,0.0,0.0,0.0,0.0,0.0,0.0,0.0,0.0,0.0,-4.8598,-4.845,-4.7723,-4.6342,-4.4454,-4.1202,0.0,0.0,0.0,0.0,0.0,0.0,0.0,0.0,0.0,0.0,0.0,0.0,0.0,0.0,0.0,0.0,0.0,0.0,0.0,0.0,0.0,0.0,0.0,0.0,0.0,0.0,0.0,0.0,0.0,0.0,0.0,0.0,0.0,0.0,0.0,0.0,0.0,0.0,0.0,0.0,0.0,0.0,0.0,0.0,0.0,0.0,0.0,0.0,0.0,0.0,0.0,0.0,0.0,0.0,0.0,0.0,0.0,0.0,0.0,0.0,0.0,0.0,0.0,0.0,0.0,0.0,0.0,0.0,0.0,0.0,0.0,0.0,0.0,0.0,0.0,0.0,0.0,0.0,0.0,0.0,0.0,0.0,0.0,0.0,0.0,0.0,0.0,0.0,0.0,0.0,0.0,0.0,0.0,0.0,0.0,0.0,0.0,0.0,0.0,0.0,0.0,0.0,0.0,0.0,0.0,0.0,0.0,0.0,0.0,-5.0209,-5.1955,-5.2158,-5.06,-4.6526,-4.3084,0.0,0.0,0.0,0.0,0.0,0.0,0.0,0.0,0.0,0.0,0.0,0.0,0.0,0.0,0.0,0.0,0.0,0.0,0.0,0.0,0.0,0.0,0.0,0.0,0.0,0.0,0.0,0.0,0.0,0.0,0.0,0.0,0.0,0.0,0.0,0.0,0.0,0.0,0.0,0.0,0.0,0.0,0.0,0.0,0.0,0.0,0.0,0.0,0.0,0.0,0.0,0.0,0.0,0.0,0.0,0.0,0.0,0.0,0.0,0.0,0.0,0.0,0.0,0.0,0.0,0.0,0.0,0.0,0.0,0.0,0.0,0.0,0.0,0.0,0.0,0.0,0.0,0.0,0.0,0.0,0.0,0.0,0.0,0.0,0.0,0.0,0.0,0.0,0.0,0.0,0.0,0.0,0.0,0.0,0.0,0.0,0.0,0.0,0.0,0.0,0.0,0.0,0.0,0.0,0.0,0.0,0.0,0.0,-4.9269,-5.139,-5.4344,-5.5251,-5.3983,-4.9431,-4.5548,0.0,0.0,0.0,0.0,0.0,0.0,0.0,0.0,0.0,0.0,0.0,0.0,0.0,0.0,0.0,0.0,0.0,0.0,0.0,0.0,0.0,0.0,0.0,0.0,0.0,0.0,0.0,0.0,0.0,0.0,0.0,0.0,0.0,0.0,0.0,0.0,0.0,0.0,0.0,0.0,0.0,0.0,0.0,0.0,0.0,0.0,0.0,0.0,0.0,0.0,0.0,0.0,0.0,0.0,0.0,0.0,0.0,0.0,0.0,0.0,0.0,0.0,0.0,0.0,0.0,0.0,0.0,0.0,0.0,0.0,0.0,0.0,0.0,0.0,0.0,0.0,0.0,0.0,0.0,0.0,0.0,0.0,0.0,0.0,0.0,0.0,0.0,0.0,0.0,0.0,0.0,0.0,0.0,0.0,0.0,0.0,0.0,0.0,0.0,0.0,0.0,0.0,0.0,0.0,0.0,0.0,0.0,0.0,-5.0501,-5.2136,-5.5679,-5.7104,-5.6116,-5.2263,-4.7993,0.0,0.0,0.0,0.0,0.0,0.0,0.0,0.0,0.0,0.0,0.0,0.0,0.0,0.0,0.0,0.0,0.0,0.0,0.0,0.0,0.0,0.0,0.0,0.0,0.0,0.0,0.0,0.0,0.0,0.0,0.0,0.0,0.0,0.0,0.0,0.0,0.0,0.0,0.0,0.0,0.0,0.0,0.0,0.0,0.0,0.0,0.0,0.0,0.0,0.0,0.0,0.0,0.0,0.0,0.0,0.0,0.0,0.0,0.0,0.0,0.0,0.0,0.0,0.0,0.0,0.0,0.0,0.0,0.0,0.0,0.0,0.0,0.0,0.0,0.0,0.0,0.0,0.0,0.0,0.0,0.0,0.0,0.0,0.0,0.0,0.0,0.0,0.0,0.0,0.0,0.0,0.0,0.0,0.0,0.0,0.0,0.0,0.0,0.0,0.0,0.0,0.0,0.0,0.0,0.0,0.0,0.0,0.0,-5.1206,-5.2453,-5.5709,-5.7024,-5.6042,-5.1673,-4.7772,0.0,0.0,0.0,0.0,0.0,0.0,0.0,0.0,0.0,0.0,0.0,0.0,0.0,0.0,0.0,0.0,0.0,0.0,0.0,0.0,0.0,0.0,0.0,0.0,0.0,0.0,0.0,0.0,0.0,0.0,0.0,0.0,0.0,0.0,0.0,0.0,0.0,0.0,0.0,0.0,0.0,0.0,0.0,0.0,0.0,0.0,0.0,0.0,-4.2894,0.0,0.0,0.0,0.0,0.0,0.0,0.0,0.0,0.0,0.0,0.0,0.0,0.0,0.0,0.0,0.0,0.0,0.0,0.0,0.0,0.0,0.0,0.0,0.0,0.0,0.0,0.0,0.0,0.0,0.0,0.0,0.0,0.0,0.0,0.0,0.0,0.0,0.0,0.0,0.0,0.0,0.0,0.0,0.0,0.0,0.0,0.0,0.0,0.0,0.0,0.0,0.0,0.0,0.0,0.0,0.0,0.0,0.0,0.0,-5.1365,-5.3059,-5.5874,-5.6926,-5.5903,-5.2544,-4.8988,0.0,0.0,0.0,0.0,0.0,0.0,0.0,0.0,0.0,0.0,0.0,0.0,0.0,0.0,0.0,0.0,0.0,0.0,0.0,0.0,0.0,0.0,0.0,0.0,0.0,0.0,0.0,0.0,0.0,0.0,0.0,0.0,0.0,0.0,0.0,0.0,0.0,0.0,0.0,0.0,0.0,0.0,0.0,0.0,0.0,0.0,0.0,0.0,0.0,0.0,0.0,0.0,0.0,0.0,0.0,0.0,0.0,0.0,0.0,0.0,0.0,0.0,0.0,0.0,0.0,0.0,0.0,0.0,0.0,0.0,0.0,0.0,0.0,0.0,0.0,0.0,0.0,0.0,0.0,0.0,0.0,0.0,0.0,0.0,0.0,0.0,0.0,0.0,0.0,0.0,0.0,0.0,0.0,0.0,0.0,0.0,0.0,0.0,0.0,0.0,0.0,0.0,0.0,0.0,0.0,0.0,0.0,-4.8229,-5.1194,-5.382,-5.6047,-5.6754,-5.583,-5.3657,-5.0362,-4.5775,0.0,0.0,0.0,0.0,0.0,0.0,0.0,0.0,0.0,0.0,0.0,0.0,0.0,0.0,0.0,0.0,0.0,0.0,0.0,0.0,0.0,0.0,0.0,0.0,0.0,0.0,0.0,0.0,0.0,0.0,0.0,0.0,0.0,0.0,0.0,0.0,0.0,0.0,-3.7863,-4.0329,0.0,0.0,0.0,0.0,0.0,0.0,0.0,0.0,-4.41,0.0,0.0,0.0,0.0,0.0,0.0,0.0,0.0,0.0,0.0,0.0,0.0,0.0,0.0,0.0,0.0,0.0,0.0,0.0,0.0,0.0,0.0,0.0,0.0,0.0,0.0,0.0,0.0,0.0,0.0,0.0,0.0,0.0,0.0,0.0,0.0,0.0,0.0,0.0,0.0,0.0,0.0,0.0,0.0,0.0,0.0,0.0,0.0,0.0,0.0,0.0,0.0,0.0,0.0,0.0,0.0,-4.643,-4.8229,-5.0923,-5.4635,-5.6337,-5.6518,-5.5106,-5.3403,-4.9955,-4.467,0.0,0.0,0.0,0.0,0.0,0.0,0.0,0.0,0.0,0.0,0.0,0.0,0.0,0.0,0.0,0.0,0.0,0.0,0.0,0.0,0.0,0.0,0.0,0.0,0.0,0.0,0.0,0.0,0.0,0.0,0.0,0.0,0.0,0.0,0.0,0.0,0.0,0.0,0.0,-4.2955,-4.4331,0.0,0.0,0.0,0.0,0.0,0.0,0.0,0.0,-4.4419,0.0,0.0,0.0,0.0,0.0,0.0,0.0,0.0,0.0,0.0,0.0,0.0,0.0,0.0,0.0,0.0,0.0,0.0,0.0,0.0,0.0,0.0,0.0,0.0,0.0,0.0,0.0,0.0,0.0,0.0,0.0,0.0,0.0,0.0,0.0,0.0,0.0,0.0,0.0,0.0,0.0,0.0,0.0,0.0,0.0,0.0,0.0,0.0,0.0,0.0,0.0,0.0,0.0,0.0,0.0,-4.5942,-4.918,-5.2118,-5.4816,-5.5993,-5.6029,-5.4907,-5.2534,-4.8992,0.0,0.0,0.0,0.0,0.0,0.0,0.0,0.0,0.0,0.0,0.0,0.0,0.0,0.0,0.0,0.0,0.0,0.0,0.0,0.0,0.0,0.0,0.0,0.0,0.0,0.0,0.0,0.0,0.0,0.0,0.0,0.0,0.0,0.0,0.0,0.0,0.0,0.0,0.0,0.0,-4.466,-4.5761,-4.7306,0.0,0.0,0.0,0.0,0.0,0.0,-4.5758,-4.5102,0.0,0.0,0.0,0.0,0.0,0.0,0.0,0.0,0.0,0.0,0.0,0.0,0.0,0.0,0.0,0.0,0.0,0.0,0.0,0.0,0.0,0.0,0.0,0.0,0.0,0.0,0.0,0.0,0.0,0.0,0.0,0.0,0.0,0.0,0.0,0.0,0.0,0.0,0.0,0.0,0.0,0.0,0.0,0.0,0.0,0.0,0.0,0.0,0.0,0.0,0.0,0.0,0.0,0.0,0.0,-4.5073,-4.9637,-5.2878,-5.4599,-5.5395,-5.5414,-5.4635,-5.1429,-4.786,0.0,0.0,0.0,0.0,0.0,0.0,0.0,0.0,0.0,0.0,0.0,0.0,0.0,0.0,0.0,0.0,0.0,0.0,0.0,0.0,0.0,0.0,0.0,0.0,0.0,0.0,0.0,0.0,0.0,0.0,0.0,0.0,0.0,0.0,0.0,0.0,0.0,0.0,0.0,0.0,0.0,-4.7276,-4.8506,-4.8677,0.0,0.0,0.0,0.0,-4.6835,-4.6601,0.0,0.0,0.0,0.0,0.0,0.0,0.0,0.0,0.0,0.0,0.0,0.0,0.0,0.0,0.0,0.0,0.0,0.0,0.0,0.0,0.0,0.0,0.0,0.0,0.0,0.0,0.0,0.0,0.0,0.0,0.0,0.0,0.0,0.0,0.0,0.0,0.0,0.0,0.0,0.0,0.0,0.0,0.0,0.0,0.0,0.0,0.0,0.0,0.0,0.0,0.0,0.0,0.0,0.0,0.0,0.0,-4.4258,-4.8279,-5.1502,-5.3748,-5.4617,-5.4653,-5.382,-5.0304,-4.673,0.0,0.0,0.0,0.0,0.0,0.0,0.0,0.0,0.0,0.0,0.0,0.0,0.0,0.0,0.0,0.0,0.0,0.0,0.0,0.0,0.0,0.0,0.0,0.0,0.0,0.0,0.0,0.0,0.0,0.0,0.0,0.0,0.0,0.0,0.0,0.0,0.0,0.0,0.0,0.0,0.0,-4.9026,-4.9174,-4.8603,-4.8104,0.0,0.0,-4.8888,-4.834,-4.8992,0.0,0.0,0.0,0.0,0.0,0.0,0.0,0.0,0.0,0.0,0.0,0.0,0.0,0.0,0.0,0.0,0.0,0.0,0.0,0.0,0.0,0.0,0.0,0.0,0.0,0.0,0.0,0.0,0.0,0.0,0.0,0.0,0.0,0.0,0.0,0.0,0.0,0.0,0.0,0.0,0.0,0.0,0.0,0.0,0.0,0.0,0.0,0.0,0.0,0.0,0.0,0.0,0.0,0.0,0.0,-4.1832,-4.4168,-4.8949,-5.2172,-5.3639,-5.4037,-5.3677,-5.2569,-4.8414,-4.4627,0.0,0.0,0.0,0.0,0.0,0.0,0.0,0.0,0.0,0.0,0.0,0.0,0.0,0.0,0.0,0.0,0.0,0.0,0.0,0.0,0.0,0.0,0.0,0.0,0.0,0.0,0.0,0.0,0.0,0.0,0.0,0.0,0.0,0.0,0.0,0.0,0.0,0.0,0.0,0.0,0.0,0.0,-4.9678,-4.9987,0.0,0.0,0.0,-4.8942,-4.7867,0.0,0.0,0.0,0.0,0.0,0.0,0.0,0.0,0.0,0.0,0.0,0.0,0.0,0.0,0.0,0.0,0.0,0.0,0.0,0.0,0.0,0.0,0.0,0.0,0.0,0.0,0.0,0.0,0.0,0.0,0.0,0.0,0.0,0.0,0.0,0.0,0.0,0.0,0.0,0.0,0.0,0.0,0.0,0.0,0.0,0.0,0.0,0.0,0.0,0.0,0.0,0.0,0.0,0.0,0.0,0.0,0.0,-4.386,-4.913,-5.2389,-5.3349,-5.3092,-5.2402,-5.1361,-4.6966,0.0,0.0,0.0,0.0,0.0,0.0,0.0,0.0,0.0,0.0,0.0,0.0,0.0,0.0,0.0,0.0,0.0,0.0,0.0,0.0,0.0,0.0,0.0,0.0,0.0,0.0,0.0,-2.7197,0.0,0.0,0.0,0.0,0.0,0.0,0.0,0.0,0.0,0.0,0.0,0.0,0.0,0.0,-4.9389,-4.9939,-5.0837,-5.1244,0.0,0.0,-4.9184,-4.8167,-4.9024,-4.8731,0.0,0.0,0.0,0.0,0.0,0.0,0.0,0.0,0.0,0.0,0.0,0.0,0.0,0.0,0.0,0.0,0.0,0.0,0.0,0.0,0.0,0.0,0.0,0.0,0.0,0.0,0.0,0.0,0.0,0.0,0.0,0.0,0.0,0.0,0.0,0.0,0.0,0.0,0.0,0.0,0.0,0.0,0.0,0.0,0.0,0.0,0.0,0.0,0.0,0.0,0.0,0.0,0.0,0.0,-4.0673,-4.3027,-4.7772,-5.1013,-5.248,-5.1353,-5.0664,-5.0508,-4.6505,-4.2549,0.0,0.0,0.0,0.0,0.0,0.0,0.0,0.0,0.0,0.0,0.0,0.0,0.0,0.0,0.0,0.0,0.0,0.0,0.0,0.0,0.0,0.0,0.0,0.0,0.0,0.0,0.0,0.0,0.0,0.0,0.0,0.0,0.0,0.0,0.0,0.0,0.0,0.0,0.0,0.0,0.0,-4.9662,-4.9732,-5.0417,-5.1237,0.0,-5.0986,-5.0169,-5.0466,-5.1815,-5.1397,-4.7353,0.0,0.0,0.0,0.0,0.0,0.0,0.0,0.0,0.0,0.0,0.0,0.0,0.0,0.0,0.0,0.0,0.0,0.0,0.0,0.0,0.0,0.0,0.0,0.0,0.0,0.0,0.0,0.0,0.0,0.0,0.0,0.0,0.0,0.0,0.0,0.0,0.0,0.0,0.0,0.0,0.0,0.0,0.0,0.0,0.0,0.0,0.0,0.0,0.0,0.0,0.0,0.0,0.0,-3.9804,-4.2176,-4.6413,-4.9252,-5.0437,-5.0014,-4.9217,-4.8067,-4.5145,-4.1702,0.0,0.0,0.0,0.0,0.0,0.0,0.0,0.0,0.0,0.0,0.0,0.0,0.0,0.0,0.0,0.0,0.0,0.0,0.0,0.0,0.0,0.0,0.0,0.0,0.0,0.0,0.0,0.0,-3.0832,-3.1371,-3.1785,0.0,0.0,0.0,0.0,0.0,0.0,0.0,0.0,0.0,0.0,-4.8635,-5.0017,-5.0821,0.0,0.0,-5.1117,-5.0311,-4.953,-5.0092,-4.951,-4.6109,-4.492,0.0,0.0,0.0,0.0,0.0,0.0,0.0,0.0,0.0,0.0,0.0,0.0,0.0,0.0,0.0,0.0,0.0,0.0,0.0,0.0,0.0,0.0,0.0,0.0,0.0,0.0,0.0,0.0,0.0,0.0,0.0,0.0,0.0,0.0,0.0,0.0,0.0,0.0,0.0,0.0,0.0,0.0,0.0,0.0,0.0,0.0,0.0,0.0,0.0,0.0,0.0,0.0,-3.9115,-4.1668,-4.5238,-4.7823,-4.924,-4.8737,-4.7801,-4.6514,-4.4165,-4.1098,0.0,0.0,0.0,0.0,0.0,0.0,0.0,0.0,0.0,0.0,0.0,0.0,0.0,0.0,0.0,0.0,0.0,0.0,0.0,0.0,0.0,0.0,0.0,0.0,0.0,0.0,0.0,0.0,-3.1444,-3.1901,-3.2597,0.0,0.0,0.0,0.0,0.0,0.0,0.0,0.0,0.0,0.0,-4.8387,-4.9922,-5.0605,-5.0884,-5.0759,-5.0071,-4.9265,-4.855,-4.8795,-4.8249,-4.5748,0.0,0.0,0.0,0.0,0.0,0.0,0.0,0.0,0.0,0.0,0.0,0.0,0.0,0.0,0.0,0.0,0.0,0.0,0.0,0.0,0.0,0.0,0.0,0.0,0.0,0.0,0.0,0.0,0.0,0.0,-3.1549,0.0,0.0,0.0,0.0,0.0,0.0,0.0,0.0,0.0,0.0,0.0,0.0,0.0,0.0,0.0,0.0,0.0,0.0,0.0,0.0,0.0,0.0,-3.8554,-4.165,-4.4354,-4.6873,-4.9103,-4.7507,-4.6548,-4.6372,-4.3797,-4.0899,-3.7905,0.0,0.0,0.0,0.0,0.0,0.0,0.0,0.0,0.0,0.0,0.0,0.0,0.0,0.0,0.0,0.0,0.0,0.0,0.0,0.0,0.0,0.0,0.0,0.0,0.0,0.0,-3.0642,-3.1189,-3.1901,0.0,0.0,0.0,0.0,0.0,0.0,0.0,0.0,0.0,0.0,-4.7431,-4.9325,-4.9359,-4.9453,-4.9358,-4.8979,-4.7642,-4.6971,-4.7932,-4.8597,-4.858,0.0,0.0,0.0,0.0,0.0,0.0,0.0,0.0,0.0,0.0,0.0,0.0,0.0,0.0,0.0,0.0,0.0,0.0,0.0,0.0,0.0,0.0,0.0,0.0,0.0,0.0,0.0,-3.4247,-3.3654,0.0,0.0,0.0,0.0,0.0,0.0,0.0,0.0,0.0,0.0,0.0,-3.7033,-3.8047,0.0,0.0,0.0,0.0,0.0,0.0,0.0,0.0,0.0,0.0,0.0,0.0,-3.7571,-4.0426,-4.34,-4.5468,-4.6599,-4.6014,-4.5557,-4.521,-4.3308,-4.0426,-3.6518,0.0,0.0,0.0,0.0,0.0,0.0,0.0,0.0,0.0,0.0,0.0,0.0,0.0,0.0,0.0,0.0,0.0,0.0,0.0,0.0,0.0,0.0,0.0,0.0,0.0,-3.0791,0.0,0.0,0.0,0.0,0.0,0.0,0.0,0.0,0.0,0.0,0.0,-4.225,-4.4499,-4.5637,-4.6608,-4.7596,-4.8149,-4.8754,0.0,0.0,0.0,0.0,0.0,0.0,0.0,0.0,0.0,0.0,0.0,0.0,0.0,0.0,-4.3493,-4.078,-4.0038,-3.996,-4.0182,0.0,0.0,0.0,0.0,0.0,0.0,0.0,0.0,0.0,0.0,0.0,0.0,0.0,0.0,-3.5715,0.0,-3.4315,0.0,0.0,0.0,0.0,0.0,0.0,0.0,0.0,-3.8445,-3.9152,-3.9441,-4.0456,-4.0673,0.0,-3.9659,-3.8065,0.0,0.0,0.0,0.0,0.0,0.0,0.0,0.0,-3.7682,-3.9836,-4.2718,-4.4566,-4.5286,-4.5125,-4.4906,-4.4592,-4.2844,-4.029,-3.6907,-3.4861,-3.2882,0.0,0.0,0.0,0.0,0.0,0.0,0.0,0.0,0.0,0.0,0.0,0.0,0.0,0.0,0.0,0.0,0.0,0.0,0.0,0.0,0.0,0.0,0.0,-3.0725,0.0,0.0,0.0,0.0,0.0,0.0,0.0,0.0,0.0,-4.0017,-4.1491,-4.3363,-4.5566,-4.6063,-4.6394,-4.6825,0.0,0.0,0.0,0.0,0.0,0.0,0.0,-4.6792,-4.5384,-4.6179,-4.7057,-4.7289,-4.7556,-4.7421,-4.6362,0.0,0.0,-4.2432,-4.1813,-4.1821,-4.2054,-4.1986,-4.1805,-4.1805,-4.169,-4.162,0.0,0.0,0.0,0.0,0.0,0.0,0.0,0.0,-3.8041,-3.7285,0.0,-3.52,0.0,0.0,0.0,0.0,0.0,-3.678,0.0,0.0,-4.1687,-4.2448,-4.1759,-4.1741,-4.1759,-4.1796,-4.1741,-4.0999,-3.946,-3.7178,0.0,0.0,0.0,0.0,0.0,0.0,-3.869,-3.9868,-4.2343,-4.4182,-4.5147,-4.4852,-4.4553,-4.4434,-4.2337,-4.046,-3.8954,-3.6197,-3.459,-3.4421,-3.0971,0.0,0.0,0.0,0.0,0.0,0.0,0.0,0.0,0.0,0.0,0.0,0.0,0.0,0.0,0.0,0.0,0.0,0.0,0.0,0.0,-3.099,0.0,0.0,0.0,0.0,0.0,0.0,0.0,0.0,0.0,0.0,-4.1657,-4.3363,-4.5467,-4.7537,0.0,0.0,0.0,0.0,-4.7189,-4.5251,-4.4854,-4.5168,-4.5897,-4.7139,-4.8017,-4.7951,0.0,0.0,-5.0251,-4.874,-4.7156,-4.5662,-4.619,-4.6392,-4.5257,-4.4288,-4.4013,-4.4584,-4.3517,-4.2539,-4.2494,-4.2499,-4.1942,-4.7627,0.0,0.0,0.0,0.0,-4.1454,-4.1483,-4.1808,-4.0848,-3.9765,-3.8692,-3.7735,0.0,0.0,0.0,0.0,0.0,0.0,-3.9293,-4.0238,-4.1488,-4.223,-4.2574,-4.3136,-4.3407,-4.3407,-4.3425,-4.319,-4.2665,-4.0908,-3.8319,-3.4987,0.0,0.0,0.0,0.0,-3.7891,-4.0084,-4.2166,-4.3425,-4.3909,-4.4393,-4.4062,-4.2963,-4.1322,-3.9986,-3.9022,-3.8159,-3.6705,-3.459,-3.3448,0.0,0.0,0.0,0.0,0.0,0.0,0.0,0.0,0.0,0.0,0.0,0.0,0.0,0.0,0.0,0.0,0.0,0.0,0.0,-3.0808,-3.157,-3.2216,0.0,0.0,0.0,0.0,0.0,0.0,0.0,0.0,0.0,-4.5036,-4.4937,-4.492,0.0,0.0,-4.5235,-4.5301,-4.5947,-4.6758,-4.7703,-4.7852,0.0,-4.8829,-4.8862,-4.8614,-4.8084,-4.9409,-5.036,-4.9863,-4.9775,-4.9154,-4.7392,-4.7189,-4.6993,-4.6102,-4.5679,-4.559,-4.5684,-4.5268,-4.4907,-4.4907,-4.4835,-4.4603,-5.0531,-4.6901,-4.5564,-4.4914,-4.4703,-4.395,-4.4064,-4.4713,-4.367,-4.2584,-4.1449,-4.0554,-3.9239,-3.7679,-3.6948,0.0,0.0,0.0,-4.0472,-4.147,-4.1959,-4.2429,-4.2918,-4.3371,-4.3607,-4.3625,-4.3625,-4.3607,-4.3607,-4.2647,-4.0582,-3.7468,0.0,0.0,-3.5076,-3.6791,-3.8541,-4.0336,-4.1799,-4.2826,-4.3403,-4.3589,-4.2811,-4.1052,-4.0409,-3.9631,-3.8616,-3.8261,-3.728,-3.547,-3.4496,-3.2832,0.0,0.0,0.0,0.0,0.0,0.0,0.0,0.0,0.0,0.0,0.0,-2.7931,-2.7765,0.0,0.0,0.0,-3.1487,-3.2266,-3.2266,-3.3044,0.0,0.0,0.0,0.0,0.0,0.0,0.0,-4.1044,-4.275,-4.4589,-4.6609,-4.6378,-4.6328,-4.7189,-4.6676,-4.6295,-4.6411,0.0,-4.7918,-4.8961,-4.911,-4.9359,-5.0088,-5.0071,-4.9821,-4.9329,-4.9829,-5.014,-4.9693,-4.9755,-4.928,-4.808,-4.7448,-4.7046,-4.621,-4.6046,-4.6046,-4.6046,-4.5956,-4.588,-4.588,-4.588,-4.588,-5.2308,-5.1314,-4.8124,-4.7283,-4.7815,-4.6017,-4.6518,-4.8378,-4.6326,-4.5361,-4.5129,-4.3358,-4.1735,-4.0194,-3.8496,0.0,-4.0955,-4.0816,-4.1488,-4.29,-4.29,-4.29,-4.29,-4.29,-4.29,-4.29,-4.29,-4.29,-4.29,-4.29,-4.2502,-4.1687,-4.0293,-3.8941,-3.7773,-3.8946,-3.9958,-4.0569,-4.1326,-4.2261,-4.32,-4.232,-4.095,-3.9073,-3.9546,-3.9225,-3.7956,-3.7246,-3.684,-3.6721,-3.4766,-3.3178,-3.2285,0.0,0.0,0.0,0.0,0.0,0.0,0.0,0.0,0.0,0.0,0.0,0.0,0.0,0.0,0.0,-3.364,0.0,-3.5148,-3.5197,0.0,0.0,0.0,-3.6936,-3.8394,-4.0415,-4.1955,-4.27,0.0,0.0,-4.7073,-4.7687,-4.8878,-5.1082,-5.0585,-4.9806,-4.9193,-4.9641,-4.9972,-4.9425,-4.9359,-4.9641,-5.0367,-5.081,-5.1004,-5.0821,-5.0827,-5.0272,-4.9425,-4.881,-4.8179,-4.7433,-4.7061,-4.6624,-4.5898,-4.5764,-4.5793,-4.5677,-4.5793,-4.5866,-4.5779,-4.575,-4.5721,-5.2327,-5.1486,-5.0015,-4.9519,-4.9691,-4.9182,-4.8707,-4.8181,-4.7639,-4.6792,-4.5714,-4.524,-4.4507,-4.3516,-4.2472,-4.2223,-4.2631,-4.2595,-4.2686,-4.2882,-4.29,-4.29,-4.29,-4.29,-4.29,-4.29,-4.29,-4.29,-4.29,-4.29,-4.2502,-4.1723,-4.1343,-4.0402,-3.8959,-3.862,-3.9059,-4.0262,-4.0443,-4.0934,-4.1627,-3.9343,-3.8396,-3.8971,-3.8058,-3.7669,-3.7889,-3.7753,-3.7381,-3.6806,-3.6265,-3.507,-3.3128,-3.1321,0.0,0.0,0.0,0.0,0.0,0.0,0.0,0.0,0.0,-2.9118,-2.7699,0.0,-3.1785,0.0,-3.3806,-3.6191,-3.7317,-3.7914,0.0,0.0,-3.9752,-3.9901,-4.1342,-4.2932,-4.4191,-4.4937,-4.646,-4.7968,-4.926,-4.8961,-4.9507,-5.174,-5.0055,-4.8663,-4.9028,-4.9756,-5.0353,-5.0701,-5.1094,-5.1591,-5.1316,-5.1206,-5.0983,-5.0429,-5.029,-4.971,-4.8263,-4.7858,-4.7448,-4.655,-4.621,-4.5856,-4.5301,-4.5126,-4.4937,-4.4618,-4.5198,-4.5735,-4.5242,-4.5126,-4.501,-5.2327,-5.1525,-5.0665,-5.0092,-4.9805,-4.9992,-4.9538,-4.8657,-4.8471,-4.7664,-4.6416,-4.6049,-4.5461,-4.4709,-4.4581,-4.4034,-4.3251,-4.3561,-4.3395,-4.29,-4.29,-4.29,-4.29,-4.29,-4.29,-4.29,-4.29,-4.29,-4.2918,-4.3244,-4.3208,-4.2792,-4.2774,-4.2158,-4.0926,-3.9363,-3.8936,-3.9629,-3.9654,-3.9648,-3.9681,-3.8125,-3.7195,-3.6992,-3.6518,-3.6146,-3.5926,-3.5893,-3.5537,-3.4827,-3.5053,-3.4351,-3.2461,-3.1364,-3.0312,0.0,0.0,0.0,0.0,0.0,0.0,0.0,0.0,0.0,0.0,0.0,-3.3392,-3.3905,-3.6655,-3.8758,-3.9553,-4.0299,-4.1044,-4.1823,-4.1558,-4.1773,-4.2899,-4.3953,-4.5236,-4.6579,-4.777,-4.8997,-5.0336,-5.0156,-5.0196,-5.1155,-4.9726,-4.9082,-5.0035,-5.0249,-5.0302,-5.0693,-5.0885,-5.0903,-5.0599,-5.0352,-4.9947,-4.9231,-4.9004,-4.8496,-4.7204,-4.6872,-4.6535,-4.5681,-4.5445,-4.5242,-4.4632,-4.4487,-4.4356,-4.4197,-4.4545,-4.485,-4.456,-4.4501,-4.4371,-5.2251,-5.1391,-5.0627,-4.9882,-4.9308,-4.9695,-4.9561,-4.8995,-4.8572,-4.7863,-4.6874,-4.6214,-4.5516,-4.4911,-4.5315,-4.4657,-4.3287,-4.387,-4.3703,-4.29,-4.29,-4.29,-4.29,-4.29,-4.29,-4.29,-4.29,-4.29,-4.2918,-4.3588,-4.3896,-4.3788,-4.3749,-4.3294,-4.2386,-4.0217,-3.9032,-3.8836,-3.8853,-3.8497,-3.7787,-3.7584,-3.6485,-3.4506,-3.4996,-3.4742,-3.3474,-3.3389,-3.3102,-3.2493,-3.3001,-3.2816,-3.1641,-3.1163,-3.069,0.0,-2.9237,0.0,0.0,0.0,0.0,0.0,0.0,0.0,0.0,-3.3707,-3.5545,-3.8377,-4.058,-4.1872,-4.1955,-4.2551,-4.2932,-4.2932,-4.2633,-4.2831,-4.3515,-4.4219,-4.5404,-4.7473,-4.8372,-4.9362,-5.037,-5.0602,-5.0189,-4.9614,-4.9095,-4.9173,-5.0687,-5.0374,-4.993,-4.9962,-4.9456,-4.92,-4.9088,-4.8945,-4.8558,-4.7775,-4.7301,-4.6864,-4.6065,-4.574,-4.543,-4.4922,-4.4777,-4.4574,-4.3979,-4.3848,-4.3834,-4.3689,-4.3703,-4.3776,-4.3834,-4.3848,-4.3834,-5.1907,-5.055,-5.0378,-5.0206,-5.0073,-5.0178,-4.9245,-4.7605,-4.6713,-4.6225,-4.6104,-4.5975,-4.581,-4.559,-4.447,-4.3686,-4.3214,-4.3324,-4.3232,-4.29,-4.29,-4.29,-4.29,-4.29,-4.29,-4.29,-4.29,-4.29,-4.29,-4.3045,-4.2792,-4.2176,-4.1761,-4.1016,-3.9905,0.0,0.0,0.0,-3.8108,-3.7753,-3.6975,-3.5774,-3.4658,-3.366,-3.3744,0.0,-3.3423,-3.3389,-3.3339,-3.322,-3.3296,0.0,0.0,0.0,0.0,0.0,0.0,0.0,0.0,0.0,0.0,0.0,-3.2746,-3.2746,-3.2779,-3.5562,-3.8328,-4.0613,-4.2783,-4.4307,-4.4903,-4.5069,-4.5168,-4.5135,-4.3649,-4.2854,-4.3602,-4.4292,-4.5062,-4.6087,-4.734,-4.8206,-4.8417,-4.7916,-4.7715,-4.8072,-4.7165,-4.6862,-4.7715,-4.8686,-4.9233,-4.9264,-4.8732,-4.8533,-4.8564,-4.787,-4.7069,-4.6436,-4.5779,-4.5302,-4.4661,-4.4487,-4.4371,-4.4153,-4.4168,-4.395,-4.3311,-4.3181,-4.305,-4.2557,-4.2484,-4.26,-4.3079,-4.3181,-4.3036,-5.1811,0.0,-5.0302,-5.0073,0.0,-4.971,-4.8895,-4.7547,-4.7495,-4.7313,-4.7076,-4.7095,-4.6654,-4.5847,-4.5039,-4.3905,-4.2595,-4.2595,-4.2487,-4.2303,-4.2303,-4.252,-4.29,-4.29,-4.29,-4.29,-4.29,-4.29,-4.29,-4.29,-4.2683,-4.2285,-4.1827,-4.1273,-4.0695,-3.9991,-3.923,-3.8447,-3.8091,-3.7719,-3.7313,-3.6214,-3.5064,-3.3998,0.0,0.0,0.0,0.0,0.0,0.0,0.0,0.0,0.0,0.0,0.0,-3.2944,-3.2104,-3.1901,-3.2613,-3.3027,-3.3723,-3.48,-3.5876,-3.6191,-3.5462,-3.8444,-4.1094,-4.285,-4.439,-4.5533,-4.6245,-4.6328,-4.6195,-4.5798,-4.4229,-4.3345,-4.3622,-4.3638,-4.3905,-4.4733,-4.595,-4.6808,-4.6808,-4.6749,-4.6606,-4.6526,-4.5834,-4.5259,-4.5798,-4.6772,-4.7395,-4.7045,-4.662,-4.6316,-4.6217,-4.5938,-4.5461,-4.4991,-4.4684,-4.4423,-4.408,-4.4008,-4.3892,-4.3602,-4.35,-4.3282,-4.2702,-4.2542,-4.244,-4.2194,-4.2092,-4.2179,-4.2498,-4.2542,-4.2469,-5.1697,-5.0321,-5.0302,-4.9901,-4.9308,-4.9308,-4.8884,-4.8181,0.0,0.0,0.0,-4.8069,-4.7278,-4.592,-4.5755,-4.4454,-4.2302,-4.2247,-4.2159,-4.194,-4.194,-4.2266,-4.2882,-4.29,-4.29,-4.29,-4.29,-4.29,-4.29,-4.29,-4.29,-4.2844,-4.2418,-4.2115,-4.1888,-4.1111,-4.0175,-3.9223,-3.8464,-3.7973,-3.7702,-3.6958,-3.5859,-3.4336,-3.4303,-3.4015,-3.344,-3.3389,-3.3119,-3.2527,-3.3018,-3.3136,-3.2688,-3.2957,-3.3245,-3.3439,-3.3228,-3.3657,-3.4998,-3.5214,-3.5976,-3.7582,-3.8907,-3.9404,-3.8825,-4.1193,-4.3205,-4.4389,-4.5421,-4.6165,-4.6632,-4.6827,-4.6579,-4.5824,-4.4528,-4.3638,-4.3473,-4.2888,-4.274,-4.3466,-4.4381,-4.5033,-4.5018,-4.5447,-4.5624,-4.4929,-4.4489,-4.4354,-4.4417,-4.5128,-4.5486,-4.5025,-4.4646,-4.4138,-4.408,-4.3963,-4.3834,-4.3891,-4.3789,-4.366,-4.366,-4.366,-4.3427,-4.2934,-4.2832,-4.2629,-4.2223,-4.2136,-4.2049,-4.1947,-4.1932,-4.1889,-4.1773,-4.1744,-4.1758,-5.12,-5.0302,-5.0302,-5.0245,-5.013,-5.013,-4.9896,-4.9432,-4.8644,-4.7679,-4.6706,-4.7095,-4.6783,-4.5865,-4.5186,-4.4252,-4.323,-4.3193,-4.3105,0.0,-4.2886,-4.2903,-4.29,-4.29,-4.29,-4.29,-4.29,-4.29,-4.29,-4.29,-4.29,-4.2844,-4.2418,-4.1821,-4.1019,-4.0483,-4.012,-3.9918,-3.9208,-3.8227,-3.6975,-3.618,-3.5081,-3.366,-3.3592,-3.3525,-3.3406,-3.3406,-3.3355,-3.3254,-3.3355,-3.3541,-3.4004,-3.3996,-3.4246,-3.4768,-3.4678,-3.4965,-3.5794,-3.6439,-3.7698,-3.9702,-4.0663,-4.1061,-4.1028,-4.2502,-4.357,-4.3877,-4.5549,-4.6485,-4.6109,-4.6454,-4.6453,-4.5781,-4.4413,-4.34,-4.2769,-4.2482,-4.2439,-4.2561,-4.2711,-4.2904,-4.3012,-4.3087,-4.3115,-4.2974,-4.315,-4.3308,-4.3456,-4.3945,-4.4253,-4.4124,-4.4052,-4.4008,-4.3819,-4.3471,-4.3195,-4.3137,-4.2731,-4.2513,-4.2528,-4.2513,-4.244,-4.2237,-4.2208,-4.215,-4.2005,-4.2092,-4.1773,-4.1366,-4.1236,-4.1076,-4.0641,-4.0495,-4.0597,-5.1104,-5.034,-5.0302,-5.0302,-5.0302,-5.0302,-5.0212,-5.0012,-4.9324,-4.8539,-4.7757,-4.7721,-4.7076,-4.5865,-4.5076,-4.4013,-4.2717,-4.2278,-4.2245,-4.2486,-4.2468,-4.265,-4.2975,-4.2938,-4.29,-4.29,-4.29,-4.29,-4.29,-4.29,-4.29,-4.29,-4.2418,-4.1717,-4.0849,-4.058,-4.037,-4.007,-3.936,-3.8481,-3.7398,-3.6637,-3.5723,-3.4641,-3.4607,-3.4607,-3.4607,-3.4607,-3.4607,-3.4607,-3.4624,-3.4732,-3.4975,-3.4953,-3.5048,-3.5274,-3.5088,-3.5326,-3.6057,-3.7484,-3.8709,-3.9719,-4.1177,-4.2021,-4.2021,-4.2999,-4.3789,-4.4174,-4.4896,-4.5359,-4.5629,-4.5403,-4.5282,-4.5709,-4.4118,-4.3065,-4.2987,-4.2576,-4.2299,-4.1938,-4.2224,-4.2222,-4.1863,-4.1818,-4.1833,-4.1893,-4.2153,-4.2275,-4.229,-4.2709,-4.3079,-4.334,-4.3195,-4.2977,-4.2963,-4.2731,-4.2528,-4.2513,-4.2295,-4.2107,-4.2092,-4.2078,-4.1932,-4.1628,-4.1541,-4.1381,-4.1134,-4.1018,-4.0844,-4.0699,-4.0554,-4.0379,-4.0147,-3.9857,-3.9857,-5.0913,-5.0302,-5.0302,-5.0302,-5.0302,-5.0302,-5.0302,-5.0259,-4.9955,-4.9512,-4.9034,-4.8586,-4.7481,-4.5902,-4.5241,-4.4086,-4.2567,-4.1837,-4.1857,-4.2283,-4.2267,-4.2577,-4.305,-4.2994,-4.2938,-4.2956,-4.2938,-4.29,-4.29,-4.29,-4.29,-4.2844,-4.232,-4.1674,-4.0972,-4.0754,-4.0434,-4.007,-3.9208,-3.8481,-3.7905,-3.7178,-3.64,-3.569,-3.5622,-3.5639,-3.5639,-3.5639,-3.5639,-3.5639,-3.5639,-3.5639,-3.5639,-3.5566,-3.5576,-3.571,-3.5496,-3.5738,-3.6654,-3.8264,-3.9404,-3.9769,-4.1293,-4.2402,-4.2767,-4.328,-4.3783,-4.4097,-4.4112,-4.4334,-4.475,-4.4481,-4.4262,-4.4874,-4.3547,-4.2771,-4.3089,-4.2727,-4.2192,-4.1743,-4.1938,-4.1923,-4.1519,-4.125,-4.1235,-4.1459,-4.151,-4.1494,-4.136,-4.1514,-4.1913,-4.215,-4.2165,-4.2179,-4.2092,-4.2121,-4.2121,-4.2092,-4.2092,-4.2005,-4.1918,-4.1845,-4.1599,-4.1062,-4.0873,-4.0713,-4.0234,-4.0147,-4.0104,-3.9973,-3.99,-3.9828,-3.9581,-3.9262,-3.9117,-5.0425,-5.0302,-5.0302,-5.0302,-5.0302,-5.0302,-5.0302,-5.0259,-4.9955,-4.9757,-4.9618,-4.9015,-4.7662,-4.6067,-4.5792,-4.4874,-4.3387,-4.3296,-4.3261,-4.323,-4.3266,-4.3232,-4.3178,-4.3123,-4.3067,-4.3067,-4.2938,-4.29,-4.29,-4.29,-4.29,-4.2788,-4.2015,-4.1569,-4.1366,-4.0611,-4.0171,-4.0104,-3.8717,-3.7973,-3.7872,-3.7161,-3.64,-3.5656,-3.5656,-3.5639,-3.5639,-3.5639,-3.5639,-3.5639,-3.5673,-3.5656,-3.5611,-3.5537,-3.5795,-3.6417,-3.6248,-3.6654,-3.7847,-3.8808,-3.9802,-4.1061,-4.1375,-4.2137,-4.333,-4.3578,-4.3372,-4.3108,-4.3924,-4.3989,-4.3145,-4.3824,-4.387,-4.303,-4.2628,-4.2521,-4.2439,-4.2434,-4.2327,-4.2297,-4.1743,-4.1444,-4.128,-4.0846,-4.0726,-4.1115,-4.1111,-4.103,-4.0875,-4.0788,-4.0748,-4.0764,-4.1265,-4.1961,-4.202,-4.2092,-4.2049,-4.2063,-4.2078,-4.1802,-4.1395,-4.1163,-4.0974,-4.0394,-4.0205,-4.0133,-4.0031,-4.0075,-3.9828,-3.9392,-3.9233,-3.9117,-3.858,-3.8405,-3.8449,-5.0367,-5.0302,-5.0302,-5.0302,-5.0302,-5.0302,-5.0302,-5.0278,-5.0144,-4.9981,-4.97,-4.8795,-4.7574,-4.6218,-4.5973,-4.5021,-4.3552,-4.3479,-4.3497,-4.3463,-4.3411,-4.3394,-4.3323,-4.3233,-4.3123,-4.3104,-4.3049,-4.2975,-4.2938,-4.29,-4.29,-4.2882,-4.2498,-4.2198,-4.1888,-4.1258,-4.0784,-4.0514,-3.9202,-3.8548,-3.8413,-3.7398,-3.6417,-3.5825,-3.6485,-3.6518,-3.5825,-3.6451,-3.6772,-3.6383,-3.6721,-3.6975,-3.6958,-3.6523,-3.6624,-3.727,-3.7146,-3.7153,-3.7669,-3.8678,-3.9702,-4.0746,-4.1591,-4.2518,-4.3436,-4.3645,-4.3312,-4.2759,-4.2765,-4.254,-4.1966,-4.179,-4.1601,-4.1739,-4.1516,-4.1383,-4.1775,-4.1773,-4.1773,-4.1743,-4.1205,-4.0801,-4.0711,-4.0232,-3.9978,-4.0247,-4.0383,-4.0515,-4.0379,-4.0507,-4.0495,-4.0397,-4.0771,-4.1128,-4.1424,-4.1889,-4.186,-4.1628,-4.1497,-4.1265,-4.0713,-4.051,-4.0292,-3.9668,-3.9581,-3.9378,-3.8971,-3.8986,-3.8855,-3.8652,-3.8623,-3.8507,-3.8246,-3.8202,-3.8202,-5.0412,-5.0325,-5.0302,-5.0302,-5.0302,-5.0302,-5.0302,-5.0302,-5.0302,-5.0144,-4.9853,-4.8975,-4.7808,-4.6549,-4.5858,-4.48,-4.3608,-4.3479,-4.3479,-4.3479,-4.3446,-4.3411,-4.3411,-4.3286,-4.3233,-4.3178,-4.3104,-4.3049,-4.2938,-4.29,-4.29,-4.29,-4.2768,-4.2555,-4.2198,-4.176,-4.1276,-4.0733,-3.9717,-3.9117,-3.8885,-3.7939,-3.7026,-3.6434,-3.7313,-3.7364,-3.6349,-3.733,-3.7652,-3.7127,-3.7449,-3.7702,-3.7855,-3.7178,-3.7212,-3.8012,-3.8152,-3.8037,-3.7936,-3.8781,-3.9587,-4.0365,-4.1541,-4.2535,-4.3181,-4.3495,-4.3295,-4.2648,-4.1933,-4.1496,-4.1071,-4.0279,-4.0148,-4.074,-4.0382,-4.0412,-4.101,-4.113,-4.1115,-4.107,-4.0741,-4.0307,-4.0142,-3.9888,-3.9768,-3.9546,-3.9727,-3.9847,-3.9802,-3.9978,-4.0015,-3.9843,-3.9959,-4.0304,-4.0713,-4.112,-4.1236,-4.1062,-4.0815,-4.0597,-4.0002,-3.9871,-3.9625,-3.9088,-3.8986,-3.8855,-3.8594,-3.8347,-3.8231,-3.8217,-3.8202,-3.8202,-3.8202,-3.8202,-3.8202,-5.05,-5.039,-5.0325,-5.0302,-5.0302,-5.0302,-5.0302,-5.0302,-5.0302,-5.0278,-5.0193,-4.9815,-4.8636,-4.6813,-4.5493,-4.4305,-4.3552,-4.3479,-4.3479,-4.3479,-4.3497,-4.3479,-4.3497,-4.3411,-4.3394,-4.3359,-4.3215,-4.3049,-4.2938,-4.29,-4.29,-4.29,-4.2498,-4.2239,-4.2121,-4.1768,-4.1241,-4.0671,-4.0031,-3.9435,-3.9069,-3.8886,-3.8497,-3.7838,-3.7905,-3.7922,-3.777,-3.7855,-3.7905,-3.7872,-3.7347,-3.7263,-3.7804,-3.728,-3.7503,-3.8588,-3.9261,-3.9475,-3.9354,-3.9312,-3.964,-4.0332,-4.1028,-4.1789,-4.2618,-4.3181,-4.3213,-4.2648,-4.1981,-4.1374,-4.0761,-4.0416,-4.0051,-3.9661,-3.9559,-3.9828,-4.0367,-4.0457,-4.0457,-4.0442,-4.0367,-4.0098,-3.9604,-4.0008,-3.9903,-3.9574,-3.9397,-3.9369,-3.9106,-3.9033,-3.8944,-3.8777,-3.8975,-3.9436,-3.9987,-4.0437,-4.0379,-4.0176,-4.0118,-3.9944,-3.9552,-3.9175,-3.8812,-3.8551,-3.8463,-3.8376,-3.8246,-3.8188,-3.8173,-3.813,-3.8072,-3.8072,-3.7767,-3.8057,-3.7999,-5.054,-5.0412,-5.039,-5.0325,-5.0302,-5.0302,-5.0302,-5.0302,-5.0302,-5.0302,-5.014,-4.9404,-4.8356,-4.7143,-4.5687,-4.4472,-4.355,-4.3479,-4.3479,-4.3479,-4.3479,-4.3479,-4.3479,-4.3463,-4.3446,-4.3394,-4.3323,-4.3196,-4.3031,-4.2938,-4.29,-4.2882,-4.275,-4.24,-4.198,-4.1925,-4.1276,-4.0001,-4.0141,-3.974,-3.8529,-3.9191,-3.9343,-3.8684,-3.9056,-3.8853,-3.7939,-3.8785,-3.9106,-3.8633,-3.8751,-3.9022,-3.9225,-3.9039,-3.8886,-3.8989,-3.948,-3.9798,-3.9642,-3.9484,-3.9711,-4.0354,-4.0597,-4.1276,-4.227,-4.2725,-4.2785,-4.258,-4.238,-4.1917,-4.1127,-4.0339,-3.9681,-3.9496,-3.9424,-3.9499,-3.9679,-3.9768,-3.9768,-3.9768,-3.9783,-3.9649,-3.9559,-3.9619,-3.9664,-3.9484,-3.9424,-3.9337,-3.9265,-3.9177,-3.9031,-3.8826,-3.8855,-3.9,-3.8949,-3.9746,-4.0017,-3.9683,-3.9465,-3.9189,-3.8841,-3.8681,-3.8391,-3.8391,-3.8231,-3.8144,-3.813,-3.8057,-3.8028,-3.7651,-3.7622,-3.7447,-3.707,-3.7273,-3.7172,-5.0542,-5.0457,-5.0412,-5.039,-5.0287,-5.0015,-4.9901,-4.9862,-4.9614,-4.95,-4.932,-4.8686,-4.784,-4.6916,-4.5942,-4.4805,-4.3738,-4.3548,-4.3479,-4.3479,-4.3479,-4.3479,-4.3479,-4.3479,-4.3463,-4.3411,-4.3376,-4.3233,-4.3104,-4.2956,-4.29,-4.29,-4.29,-4.2484,-4.1866,-4.1908,-4.1145,-3.9847,-3.9975,-3.9526,-3.8376,-3.895,-3.9157,-3.8802,-3.9123,-3.9073,-3.8294,-3.9428,-3.9749,-3.9174,-3.9462,-3.9732,-3.9749,-3.9952,-3.9868,-3.9478,-3.9665,-3.9849,-3.9798,-3.959,-3.9664,-4.0093,-4.032,-4.0862,-4.174,-4.2237,-4.2499,-4.2533,-4.255,-4.2317,-4.1459,-4.0478,-3.9753,-3.9681,-3.9553,-3.9424,-3.9424,-3.9439,-3.9439,-3.9454,-3.9469,-3.9439,-3.9424,-3.9424,-3.9439,-3.9424,-3.9424,-3.9409,-3.9337,-3.9265,-3.925,-3.9031,-3.8885,-3.8797,-3.8766,-3.92,-3.9339,-3.9,-3.8957,-3.8623,-3.8449,-3.8275,-3.8202,-3.8202,-3.8159,-3.8086,-3.8014,-3.7926,-3.7593,-3.7114,-3.6968,-3.6852,-3.6591,-3.6402,-3.6417,-5.0603,-5.0582,-5.0476,-5.0355,-5.016,-4.9503,-4.9117,-4.8965,-4.8296,-4.8067,-4.8102,-4.7872,-4.73,-4.6334,-4.6102,-4.5302,-4.4172,-4.373,-4.3548,-4.3497,-4.3479,-4.3479,-4.3479,-4.3479,-4.3479,-4.3497,-4.3322,-4.3178,-4.3104,-4.2994,-4.2938,-4.29,-4.281,-4.2321,-4.1632,-4.1559,-4.0993,-3.9797,-3.9376,-3.8955,-3.8481,-3.8146,-3.8058,-3.7922,-3.8024,-3.8294,-3.8802,-3.958,-3.9631,-3.9022,-3.9022,-3.9005,-3.9174,-3.9715,-4.0054,-4.0003,-3.9969,-3.9884,-3.9849,-3.9642,-3.9501,-3.9631,-4.0059,-4.0348,-4.0746,-4.164,-4.2295,-4.2376,-4.239,-4.2236,-4.1627,-4.0909,-4.0409,-4.0409,-3.9753,-3.9424,-3.9424,-3.9424,-3.9424,-3.9424,-3.9424,-3.9424,-3.9424,-3.9424,-3.9424,-3.9424,-3.9424,-3.9352,-3.9265,-3.9192,-3.9031,-3.8943,-3.887,-3.887,-3.8738,-3.8693,-3.8485,-3.835,-3.8362,-3.8275,-3.8304,-3.8202,-3.8202,-3.8188,-3.7955,-3.7854,-3.7331,-3.723,-3.6939,-3.6562,-3.6431,-3.6214,-3.5923,-3.5735,-3.5909,-5.0643,-5.0603,-5.0542,-5.0114,-4.9513,-4.9204,-4.8799,-4.822,-4.7895,-4.7799,-4.7799,-4.7799,-4.7277,-4.65,-4.6187,-4.554,-4.4557,-4.426,-4.3918,-4.3548,-4.3479,-4.3479,-4.3479,-4.3479,-4.3479,-4.3479,-4.3393,-4.3269,-4.3178,-4.3068,-4.2994,-4.2847,-4.2339,-4.1669,-4.0926,-4.08,-3.993,-3.8143,-3.8755,-3.839,-3.6853,-3.7441,-3.7652,-3.7246,-3.7618,-3.7804,-3.7567,-3.8667,-3.8937,-3.8278,-3.8734,-3.8988,-3.9106,-3.9681,-4.007,-4.0087,-4.007,-3.9935,-3.9781,-3.9694,-3.9537,-3.9481,-3.9574,-3.9868,-4.0299,-4.0779,-4.1309,-4.1666,-4.1782,-4.184,-4.2028,-4.1581,-4.0811,-3.9879,-3.9553,-3.9409,-3.9424,-3.9424,-3.9424,-3.9424,-3.9424,-3.9424,-3.9424,-3.9424,-3.9424,-3.9424,-3.9424,-3.9352,-3.9352,-3.9265,-3.9265,-3.9192,-3.9104,-3.8958,-3.8885,-3.8738,-3.8516,-3.8352,-3.8277,-3.8202,-3.8202,-3.8202,-3.8202,-3.7999,-3.7781,-3.7375,-3.6852,-3.6519,-3.6272,-3.5952,-3.572,-3.543,-3.5111,-3.5111,-3.5299,-5.0682,-5.0623,-5.0603,-5.0255,-4.9559,-4.8999,-4.8343,-4.7745,-4.7131,-4.6882,-4.6863,-4.6863,-4.6577,-4.6116,-4.5887,-4.5428,-4.4814,-4.4519,-4.4143,-4.3749,-4.3682,-4.3615,-4.3513,-4.3479,-4.3479,-4.3497,-4.3446,-4.3359,-4.3251,-4.2869,-4.2595,-4.2413,-4.1669,-4.0872,-4.0184,-4.0057,-3.9085,-3.7733,-3.8146,-3.7767,-3.662,-3.6898,-3.7007,-3.653,-3.6823,-3.6806,-3.6468,-3.7533,-3.7956,-3.7686,-3.8176,-3.8684,-3.8988,-3.9428,-3.9783,-4.0037,-4.0087,-4.0037,-3.9884,-3.9781,-3.9677,-3.9468,-3.9379,-3.9524,-3.9989,-4.0133,-4.0613,-4.0955,-4.1313,-4.1661,-4.188,-4.1195,-4.0431,-3.992,-3.9895,-3.9681,-3.9481,-3.9424,-3.9424,-3.9424,-3.9424,-3.9424,-3.9424,-3.9424,-3.9424,-3.9424,-3.9424,-3.9424,-3.9424,-3.9424,-3.9424,-3.9352,-3.9265,-3.9192,-3.9031,-3.8885,-3.859,-3.8427,-3.8352,-3.8277,-3.8202,-3.8188,-3.8173,-3.7651,-3.7331,-3.6693,-3.617,-3.6011,-3.5793,-3.543,-3.5082,-3.4878,-3.469,-3.4617,-3.4733,-5.0702,-5.0702,-5.0586,-5.0449,-5.0141,-4.86,-4.7792,-4.7542,-4.616,-4.5489,-4.5451,-4.5545,-4.543,-4.5335,-4.539,-4.5186,-4.4862,-4.4624,-4.4346,-4.4091,-4.3986,-4.386,-4.3548,-4.3479,-4.3479,-4.3497,-4.3446,-4.3339,-4.3156,-4.2431,-4.1869,-4.176,-4.0926,-4.0148,-3.9621,-3.9387,-3.89,-3.8077,-3.7685,-3.7241,-3.6741,-3.6478,-3.6104,-3.569,-3.5757,-3.5774,-3.5876,-3.6434,-3.6806,-3.6874,-3.7516,-3.8108,-3.8667,-3.8886,-3.9225,-3.9732,-3.9918,-3.9901,-3.9902,-3.9767,-3.9749,-3.9677,-3.959,-3.9448,-3.9491,-3.9939,-4.0271,-4.0332,-4.0776,-4.1231,-4.1119,-4.0491,-3.9974,-4.0334,-4.0094,-3.9838,-3.9391,-3.926,-3.9185,-3.9334,-3.9409,-3.9394,-3.9379,-3.9424,-3.9424,-3.9424,-3.9424,-3.9424,-3.9424,-3.9424,-3.9424,-3.9352,-3.9337,-3.9265,-3.9104,-3.9031,-3.8738,-3.8516,-3.8337,-3.8248,-3.8086,-3.8028,-3.7607,-3.7114,-3.6707,-3.6054,-3.559,-3.5401,-3.5183,-3.4849,-3.4603,-3.4443,-3.4414,-3.4414,-3.4414,-5.0841,-5.0767,-5.0047,-4.9702,-4.9393,-4.7798,-4.7088,-4.6895,-4.5876,-4.5359,-4.5359,-4.5317,-4.5277,-4.5277,-4.5277,-4.5235,-4.5151,-4.5065,-4.4764,-4.4346,-4.4289,-4.398,-4.3563,-4.3479,-4.3479,-4.3479,-4.3371,-4.3135,-4.2553,-4.2154,-4.1736,-4.1083,-4.0215,-3.969,-3.942,-3.8842,-3.8254,-3.7721,-3.7301,-3.69,-3.6474,-3.6071,-3.5739,-3.5622,-3.5639,-3.5639,-3.5639,-3.5791,-3.6231,-3.6755,-3.6941,-3.7144,-3.7449,-3.7905,-3.8311,-3.8548,-3.8582,-3.8702,-3.9025,-3.9093,-3.9278,-3.9679,-3.9594,-3.9573,-3.9448,-3.9615,-3.9694,-3.9632,-3.9778,-4.0116,-4.0492,-4.0329,-4.0296,-4.0243,-3.9539,-3.8952,-3.8712,-3.8257,-3.8272,-3.9155,-3.8916,-3.8916,-3.9155,-3.9349,-3.9364,-3.9364,-3.9409,-3.9364,-3.932,-3.9305,-3.9245,-3.9349,-3.9307,-3.925,-3.9192,-3.9104,-3.8885,-3.859,-3.8412,-3.8264,-3.8001,-3.7694,-3.6939,-3.6127,-3.5923,-3.5401,-3.4994,-3.469,-3.4457,-3.4428,-3.4428,-3.4414,-3.4414,-3.4414,-3.4414,-4.9863,-4.9749,-4.917,-4.8872,-4.8645,-4.7357,-4.6781,-4.657,-4.5802,-4.5418,-4.5398,-4.5317,-4.5277,-4.5277,-4.5277,-4.5277,-4.5297,-4.5151,-4.4887,-4.4542,-4.4062,-4.3718,-4.3539,-4.3479,-4.3479,-4.3424,-4.313,-4.2711,-4.2182,-4.1565,-4.0909,-4.0312,-3.948,-3.9064,-3.901,-3.8564,-3.8122,-3.7827,-3.7559,-3.7188,-3.6557,-3.6308,-3.5898,-3.5756,-3.5639,-3.5639,-3.5639,-3.5639,-3.5859,-3.6197,-3.6315,-3.6434,-3.6772,-3.7178,-3.7567,-3.7838,-3.7922,-3.8077,-3.8333,-3.8402,-3.8538,-3.8841,-3.9093,-3.9225,-3.9206,-3.9337,-3.9448,-3.9408,-3.9325,-3.967,-4.0193,-4.041,-3.9838,-3.8776,-3.825,-3.8054,-3.8326,-3.8137,-3.8054,-3.8297,-3.8272,-3.8093,-3.8556,-3.8811,-3.896,-3.905,-3.926,-3.9155,-3.902,-3.902,-3.8916,-3.8841,-3.8721,-3.8516,-3.84,-3.8329,-3.8246,-3.8046,-3.7697,-3.7682,-3.755,-3.7157,-3.6373,-3.5575,-3.5212,-3.4893,-3.4617,-3.4414,-3.4414,-3.4414,-3.4414,-3.4414,-3.4414,-3.4414,-3.4414,-4.8463,-4.8343,-4.8217,-4.8163,-4.8007,-4.7107,-4.6666,-4.6628,-4.5802,-4.5418,-4.5379,-4.5338,-4.5297,-4.5277,-4.5277,-4.5277,-4.5297,-4.5087,-4.4778,-4.4323,-4.3721,-4.3189,-4.3121,-4.3045,-4.3015,-4.2944,-4.2451,-4.2103,-4.1574,-4.0463,-3.9863,-3.9571,-3.8848,-3.8506,-3.8528,-3.8372,-3.8307,-3.8204,-3.8036,-3.7577,-3.6956,-3.6661,-3.6266,-3.5711,-3.5639,-3.5639,-3.5639,-3.5639,-3.5673,-3.5639,-3.5639,-3.6011,-3.6552,-3.6654,-3.6924,-3.7364,-3.7449,-3.7533,-3.777,-3.7787,-3.7824,-3.798,-3.8437,-3.8639,-3.8656,-3.8938,-3.932,-3.9235,-3.9329,-3.962,-3.9974,-4.0197,-3.9205,-3.7741,-3.7343,-3.7664,-3.7981,-3.8115,-3.7897,-3.7511,-3.7404,-3.733,-3.7539,-3.7868,-3.8302,-3.8317,-3.8556,-3.8527,-3.8392,-3.8317,-3.8108,-3.7853,-3.7719,-3.7554,-3.7485,-3.7431,-3.7312,-3.7246,-3.6746,-3.6603,-3.6764,-3.6387,-3.5776,-3.5169,-3.4864,-3.4675,-3.4516,-3.4414,-3.4414,-3.4414,-3.4414,-3.4414,-3.4414,-3.4414,-3.4414,-4.8641,-4.8536,-4.7643,-4.7646,-4.7948,-4.6581,-4.626,-4.6742,-4.5822,-4.54,-4.54,-4.5338,-4.5277,-4.5277,-4.5277,-4.5277,-4.5277,-4.5096,-4.4763,-4.3786,-4.3382,-4.2725,-4.2331,-4.2073,-4.1833,-4.1705,-4.1515,-4.1075,-4.0451,-4.0088,-3.9557,-3.8939,-3.8742,-3.8478,-3.8478,-3.8433,-3.835,-3.8336,-3.8036,-3.7613,-3.7094,-3.6678,-3.6284,-3.5711,-3.5622,-3.5639,-3.5639,-3.5639,-3.5639,-3.5639,-3.5639,-3.5757,-3.591,-3.5943,-3.6062,-3.6197,-3.6248,-3.6434,-3.6874,-3.7043,-3.728,-3.7689,-3.7908,-3.8046,-3.7933,-3.8455,-3.8688,-3.8735,-3.903,-3.9342,-3.9587,-3.9054,-3.8553,-3.7924,-3.7587,-3.7294,-3.6908,-3.6508,-3.6637,-3.7038,-3.6956,-3.6866,-3.7285,-3.7404,-3.7614,-3.7644,-3.7719,-3.7764,-3.7704,-3.7629,-3.7375,-3.7075,-3.7015,-3.6926,-3.6858,-3.679,-3.6654,-3.6517,-3.6079,-3.57,-3.5846,-3.5846,-3.5267,-3.4903,-3.4545,-3.4428,-3.4414,-3.4414,-3.4414,-3.4414,-3.437,-3.4283,-3.424,-3.4298,-3.4153,-4.7548,-4.7408,-4.6824,-4.679,-4.6941,-4.6117,-4.5921,-4.6144,-4.5725,-4.5419,-4.54,-4.536,-4.5338,-4.5277,-4.5277,-4.5277,-4.5163,-4.4838,-4.4374,-4.3634,-4.2867,-4.2054,-4.1487,-4.0993,-4.0709,-4.104,-4.0754,-4.0267,-3.9937,-3.9515,-3.9111,-3.8744,-3.8609,-3.8609,-3.8559,-3.8496,-3.8415,-3.835,-3.8138,-3.7756,-3.7266,-3.7017,-3.6516,-3.6002,-3.5756,-3.5639,-3.5639,-3.5639,-3.5639,-3.5639,-3.5639,-3.5639,-3.5639,-3.5639,-3.5639,-3.5639,-3.5639,-3.5774,-3.6163,-3.6265,-3.64,-3.684,-3.7161,-3.73,-3.7438,-3.7864,-3.8119,-3.8171,-3.8553,-3.8947,-3.9222,-3.9094,-3.8717,-3.8294,-3.7994,-3.7546,-3.689,-3.6321,-3.5978,-3.6445,-3.6207,-3.6207,-3.6432,-3.6791,-3.6956,-3.7,-3.7419,-3.7449,-3.706,-3.6941,-3.6686,-3.6477,-3.6417,-3.6387,-3.6305,-3.6209,-3.6067,-3.5874,-3.5539,-3.5277,-3.5253,-3.5127,-3.4928,-3.4641,-3.4428,-3.4414,-3.4414,-3.4414,-3.4341,-3.4312,-3.4225,-3.408,-3.3862,-3.3601,-3.3412,-4.624,-4.6112,-4.6105,-4.5998,-4.5861,-4.5835,-4.5776,-4.5673,-4.5547,-4.5494,-4.5419,-4.5419,-4.5359,-4.5317,-4.5277,-4.5239,-4.4895,-4.4437,-4.3918,-4.3174,-4.2199,-4.1449,-4.0881,-4.0311,-4.0169,-4.1025,-4.0197,-3.9693,-3.9478,-3.9111,-3.8817,-3.8707,-3.8707,-3.8658,-3.8658,-3.8609,-3.8528,-3.8465,-3.8336,-3.8052,-3.7614,-3.7469,-3.7073,-3.6326,-3.5827,-3.5622,-3.5639,-3.5639,-3.5639,-3.5639,-3.5639,-3.5639,-3.5639,-3.5639,-3.5639,-3.5639,-3.5639,-3.569,-3.574,-3.5723,-3.5723,-3.5656,-3.6197,-3.6569,-3.6709,-3.7087,-3.7379,-3.7649,-3.792,-3.8519,-3.9043,-3.8813,-3.8608,-3.8358,-3.8165,-3.778,-3.731,-3.6662,-3.6098,-3.5872,-3.5859,-3.5818,-3.5863,-3.6088,-3.6222,-3.6417,-3.6851,-3.703,-3.6611,-3.6327,-3.6118,-3.5998,-3.5968,-3.5968,-3.5968,-3.5917,-3.5747,-3.5481,-3.5185,-3.4994,-3.4802,-3.4537,-3.4485,-3.454,-3.4414,-3.4341,-3.4211,-3.408,-3.4051,-3.4109,-3.3833,-3.3441,-3.3122,-3.2846,-3.273,-4.6296,-4.6269,-4.6144,-4.6064,-4.6033,-4.591,-4.5835,-4.5771,-4.5692,-4.5577,-4.5495,-4.5438,-4.5399,-4.532,-4.5317,-4.4895,-4.4303,-4.3806,-4.3176,-4.2259,-4.1514,-4.1093,-4.048,-4.0084,-3.9915,-3.9631,-3.9285,-3.9093,-3.8964,-3.8762,-3.8707,-3.8707,-3.8707,-3.8707,-3.8707,-3.8676,-3.8627,-3.8578,-3.8496,-3.8183,-3.7861,-3.7632,-3.7264,-3.6409,-3.5941,-3.5667,-3.5639,-3.5639,-3.5639,-3.5639,-3.5639,-3.5639,-3.5639,-3.5639,-3.5639,-3.5639,-3.5639,-3.5639,-3.5639,-3.5639,-3.5639,-3.5656,-3.5808,-3.5859,-3.5999,-3.6346,-3.672,-3.6959,-3.7349,-3.7903,-3.8485,-3.817,-3.8003,-3.7891,-3.7552,-3.6841,-3.6538,-3.6275,-3.5946,-3.5948,-3.5706,-3.5504,-3.5609,-3.5684,-3.5804,-3.5923,-3.6103,-3.6252,-3.6028,-3.5833,-3.5714,-3.5624,-3.5579,-3.5579,-3.5579,-3.5624,-3.5529,-3.5424,-3.5145,-3.4925,-3.4661,-3.4185,-3.4025,-3.401,-3.3993,-3.3964,-3.3848,-3.3674,-3.347,-3.3325,-3.3006,-3.2687,-3.2498,-3.2324,-3.2309,-4.63,-4.63,-4.624,-4.615,-4.6098,-4.6041,-4.5939,-4.5847,-4.5775,-4.5688,-4.5596,-4.5475,-4.5189,-4.4882,-4.4708,-4.419,-4.3482,-4.2832,-4.224,-4.1476,-4.1074,-4.0711,-4.0273,-4.0017,-3.987,-3.9665,-3.9343,-3.895,-3.8738,-3.8707,-3.8707,-3.8707,-3.8707,-3.8707,-3.8707,-3.8707,-3.8658,-3.859,-3.851,-3.8396,-3.8083,-3.788,-3.7301,-3.6741,-3.6199,-3.5871,-3.5622,-3.5639,-3.5639,-3.5639,-3.5639,-3.5639,-3.5639,-3.5639,-3.5639,-3.5639,-3.5639,-3.5639,-3.5639,-3.5639,-3.5639,-3.5639,-3.5639,-3.5639,-3.5645,-3.5886,-3.6177,-3.6488,-3.6645,-3.7201,-3.7753,-3.7428,-3.7278,-3.7215,-3.7167,-3.6832,-3.6244,-3.629,-3.6122,-3.5938,-3.5637,-3.5469,-3.5489,-3.5534,-3.5504,-3.5489,-3.5489,-3.5489,-3.5489,-3.5489,-3.5489,-3.537,-3.534,-3.528,-3.5235,-3.5175,-3.51,-3.5011,-3.4887,-3.4733,-3.4337,-3.376,-3.348,-3.3346,-3.3412,-3.3318,-3.3224,-3.2962,-3.2745,-3.2513,-3.2251,-3.2019,-3.1917,-3.183,-3.1772,-4.63,-4.63,-4.63,-4.624,-4.6144,-4.6157,-4.6076,-4.5949,-4.5847,-4.5775,-4.5703,-4.5524,-4.5035,-4.4345,-4.3886,-4.3369,-4.2546,-4.1839,-4.1514,-4.1113,-4.0692,-4.0329,-4.0234,-4.0098,-3.9935,-3.9848,-3.967,-3.9279,-3.8892,-3.8792,-3.875,-3.8689,-3.8707,-3.8707,-3.8707,-3.8707,-3.8609,-3.8559,-3.8541,-3.8478,-3.8318,-3.7931,-3.7523,-3.7114,-3.6678,-3.6241,-3.6028,-3.5871,-3.5783,-3.5739,-3.5667,-3.5639,-3.5639,-3.5639,-3.5639,-3.5639,-3.5639,-3.5639,-3.5639,-3.5639,-3.5639,-3.5639,-3.5639,-3.5639,-3.5639,-3.5678,-3.5802,-3.6198,-3.632,-3.6527,-3.7018,-3.7037,-3.6868,-3.6858,-3.7236,-3.7343,-3.635,-3.5943,-3.5789,-3.5613,-3.5412,-3.5337,-3.5344,-3.5489,-3.5489,-3.5489,-3.5489,-3.5489,-3.5489,-3.5489,-3.5444,-3.525,-3.513,-3.5026,-3.4891,-3.4696,-3.4532,-3.4322,-3.4277,-3.414,-3.3734,-3.3223,-3.3022,-3.279,-3.2357,-3.2265,-3.2276,-3.2251,-3.2048,-3.1816,-3.1555,-3.138,-3.1293,-3.1116,-3.1014,-4.63,-4.63,-4.628,-4.6296,-4.6273,-4.6253,-4.6167,-4.6025,-4.5911,-4.584,-4.5645,-4.5522,-4.4975,-4.4094,-4.3253,-4.2526,-4.1896,-4.1552,-4.1112,-4.0635,-4.0406,-4.0329,-4.031,-4.0272,-4.0098,-3.9996,-3.9892,-3.9551,-3.9165,-3.9073,-3.8921,-3.878,-3.8738,-3.8707,-3.8707,-3.8707,-3.8707,-3.8658,-3.8658,-3.8596,-3.8401,-3.7984,-3.7667,-3.7395,-3.7094,-3.6741,-3.6539,-3.6326,-3.6114,-3.6131,-3.5783,-3.5622,-3.5639,-3.5639,-3.5639,-3.5639,-3.5639,-3.5639,-3.5639,-3.5639,-3.5639,-3.5639,-3.5639,-3.5639,-3.5639,-3.5639,-3.5645,-3.5628,-3.5701,-3.5946,-3.6441,-3.6527,-3.6734,-3.6721,-3.6664,-3.6555,-3.5927,-3.5856,-3.5676,-3.4988,-3.4683,-3.4951,-3.5168,-3.5359,-3.5489,-3.5489,-3.5474,-3.54,-3.5295,-3.513,-3.5011,-3.4726,-3.4592,-3.4502,-3.4427,-3.4247,-3.3963,-3.3679,-3.3589,-3.3514,-3.305,-3.2601,-3.2451,-3.2211,-3.178,-3.1526,-3.162,-3.1602,-3.1337,-3.1192,-3.1047,-3.0872,-3.0698,-3.0507,-3.0447,-4.5851,-4.6261,-4.5773,-4.5851,-4.6202,-4.5792,-4.5547,-4.5557,-4.587,-4.5677,-4.5188,-4.5003,-4.419,-4.2956,-4.1908,-4.1316,-4.0975,-4.0937,-4.071,-4.0405,-4.0329,-4.0329,-4.0329,-4.031,-4.0196,-4.0157,-4.0098,-3.9935,-3.9556,-3.9245,-3.9036,-3.8921,-3.878,-3.8707,-3.8707,-3.8707,-3.8707,-3.8707,-3.8707,-3.8676,-3.8515,-3.8285,-3.7982,-3.7685,-3.7487,-3.7226,-3.6917,-3.6533,-3.6284,-3.6216,-3.5871,-3.5622,-3.5639,-3.5639,-3.5639,-3.5639,-3.5639,-3.5639,-3.5639,-3.5639,-3.5639,-3.5639,-3.5639,-3.5639,-3.5639,-3.5639,-3.5639,-3.5639,-3.5549,-3.5706,-3.5879,-3.5836,-3.5704,-3.5761,-3.6108,-3.554,-3.5344,-3.5744,-3.5554,-3.4732,-3.4063,-3.4394,-3.4621,-3.4435,-3.4565,-3.4831,-3.4651,-3.4412,-3.4307,-3.4158,-3.4068,-3.3978,-3.3903,-3.3858,-3.3829,-3.3709,-3.338,-3.311,-3.2931,-3.2781,-3.2303,-3.1975,-3.1931,-3.1797,-3.156,-3.1323,-3.12,-3.1125,-3.1066,-3.0891,-3.0642,-3.0568,-3.0507,-3.0447,-3.019,-4.5057,-4.5558,-4.4933,-4.507,-4.5578,-4.4933,-4.468,-4.4731,-4.5169,-4.499,-4.4394,-4.3962,-4.299,-4.1848,-4.103,-4.0619,-4.0436,-4.0362,-4.0326,-4.0327,-4.031,-4.031,-4.0329,-4.031,-4.031,-4.0329,-4.0273,-4.0157,-3.9914,-3.9599,-3.9298,-3.9101,-3.881,-3.8738,-3.8707,-3.8707,-3.8707,-3.8707,-3.8707,-3.8658,-3.8609,-3.8528,-3.83,-3.805,-3.7844,-3.7667,-3.7246,-3.6917,-3.6719,-3.6539,-3.6114,-3.5827,-3.5844,-3.5711,-3.5622,-3.5639,-3.5639,-3.5639,-3.5639,-3.5639,-3.5639,-3.5639,-3.5639,-3.5639,-3.5639,-3.5639,-3.5639,-3.5639,-3.5549,-3.552,-3.5537,-3.5463,-3.5425,-3.5421,-3.5542,-3.4775,-3.4378,-3.5075,-3.5275,-3.4558,-3.3999,-3.3867,-3.3885,-3.3455,-3.3593,-3.4025,-3.3888,-3.3529,-3.344,-3.341,-3.335,-3.3335,-3.3245,-3.3125,-3.2886,-3.2826,-3.2602,-3.2557,-3.2392,-3.2213,-3.184,-3.1676,-3.1603,-3.1483,-3.1351,-3.1367,-3.1338,-3.1057,-3.0762,-3.0702,-3.0568,-3.0433,-3.0372,-3.0251,-2.9732,-4.382,-4.3879,-4.3801,-4.3821,-4.3957,-4.384,-4.3782,-4.3798,-4.3791,-4.376,-4.3444,-4.2662,-4.2196,-4.1641,-4.0949,-4.0476,-4.0413,-4.0415,-4.0363,-4.0328,-4.0329,-4.031,-4.0329,-4.0329,-4.0329,-4.0329,-4.0329,-4.0291,-4.0176,-3.9892,-3.9526,-3.9156,-3.8939,-3.878,-3.8707,-3.8707,-3.8707,-3.8707,-3.8707,-3.864,-3.8559,-3.851,-3.8446,-3.8382,-3.8318,-3.8285,-3.8171,-3.7685,-3.7376,-3.7228,-3.658,-3.6156,-3.6088,-3.5871,-3.5756,-3.5622,-3.5639,-3.5639,-3.5639,-3.5639,-3.5639,-3.5639,-3.5639,-3.5639,-3.5639,-3.5639,-3.5639,-3.5639,-3.5594,-3.5594,-3.5594,-3.5532,-3.5412,-3.5434,-3.5445,-3.5191,-3.4837,-3.479,-3.4857,-3.4297,-3.3962,-3.3787,-3.3357,-3.2944,-3.3004,-3.3457,-3.323,-3.2886,-3.3006,-3.2991,-3.2856,-3.2766,-3.2617,-3.2347,-3.1854,-3.1779,-3.1973,-3.2018,-3.1913,-3.1794,-3.1571,-3.1467,-3.1467,-3.1467,-3.1409,-3.1409,-3.1424,-3.1117,-3.094,-3.0702,-3.0568,-3.0507,-2.9856,-2.9407,-2.8776,-4.2538,-4.2121,-4.209,-4.2728,-4.3645,-4.3138,-4.2903,-4.2998,-4.3392,-4.327,-4.2721,-4.2238,-4.171,-4.1222,-4.0913,-4.0621,-4.0564,-4.0479,-4.0432,-4.0363,-4.0327,-4.031,-4.031,-4.031,-4.0329,-4.0329,-4.0329,-4.0329,-4.0273,-4.0057,-3.9851,-3.9508,-3.9156,-3.8881,-3.878,-3.8689,-3.8707,-3.8707,-3.8707,-3.8658,-3.8658,-3.8609,-3.8559,-3.8478,-3.8478,-3.8401,-3.8256,-3.788,-3.7667,-3.7395,-3.6939,-3.6655,-3.6343,-3.6088,-3.5871,-3.5667,-3.5639,-3.5639,-3.5639,-3.5639,-3.5639,-3.5639,-3.5639,-3.5639,-3.5639,-3.5639,-3.5639,-3.5639,-3.5639,-3.5639,-3.5622,-3.5577,-3.5532,-3.5549,-3.5475,-3.5383,-3.5245,-3.5088,-3.4835,-3.4415,-3.4032,-3.3746,-3.3161,-3.2598,-3.2649,-3.2796,-3.2526,-3.2332,-3.2467,-3.2512,-3.2362,-3.2258,-3.2138,-3.2048,-3.1541,-3.1467,-3.1467,-3.1467,-3.1467,-3.1467,-3.1467,-3.1467,-3.1467,-3.1467,-3.1467,-3.1467,-3.1351,-3.1219,-3.1043,-3.0807,-3.0702,-3.0642,-2.9794,-2.8648,-2.7999,-4.1599,-4.113,-4.1103,-4.1797,-4.2786,-4.2279,-4.2006,-4.2123,-4.2611,-4.26,-4.1933,-4.1801,-4.1468,-4.0945,-4.077,-4.0687,-4.0642,-4.0564,-4.0495,-4.0413,-4.0344,-4.0327,-4.0328,-4.031,-4.031,-4.031,-4.0329,-4.0329,-4.0291,-4.0117,-3.9956,-3.9762,-3.9458,-3.9129,-3.8881,-3.8719,-3.8707,-3.8707,-3.8707,-3.8707,-3.8707,-3.8689,-3.8658,-3.8559,-3.8559,-3.8478,-3.8368,-3.8119,-3.7966,-3.7703,-3.7358,-3.6956,-3.6615,-3.6326,-3.6028,-3.5783,-3.5622,-3.5622,-3.5639,-3.5639,-3.5639,-3.5639,-3.5639,-3.5639,-3.5639,-3.5639,-3.5639,-3.5639,-3.5639,-3.5639,-3.5639,-3.5622,-3.5622,-3.5594,-3.552,-3.5446,-3.5354,-3.5245,-3.493,-3.4643,-3.4201,-3.3761,-3.3065,-3.2499,-3.2209,-3.2255,-3.2033,-3.1898,-3.1898,-3.1898,-3.1809,-3.1734,-3.1689,-3.1614,-3.1467,-3.1467,-3.1467,-3.1467,-3.1467,-3.1467,-3.1467,-3.1467,-3.1467,-3.1467,-3.1467,-3.1467,-3.1409,-3.1351,-3.1102,-3.0866,-3.0493,-2.9884,-2.8967,-2.7868,-2.755,-4.1072,-4.1112,-4.1111,-4.1164,-4.1345,-4.1186,-4.1186,-4.1283,-4.1342,-4.1342,-4.1273,-4.1148,-4.1104,-4.0954,-4.0866,-4.078,-4.068,-4.0617,-4.0526,-4.0425,-4.0413,-4.0379,-4.0326,-4.0308,-4.0309,-4.031,-4.0329,-4.0329,-4.0329,-4.0273,-4.0118,-3.9914,-3.9647,-3.9324,-3.9092,-3.884,-3.8707,-3.8707,-3.8707,-3.8707,-3.8707,-3.8707,-3.8676,-3.8658,-3.8658,-3.8578,-3.8446,-3.8382,-3.8252,-3.8086,-3.7862,-3.745,-3.6995,-3.6638,-3.6266,-3.581,-3.5694,-3.5667,-3.5639,-3.5639,-3.5639,-3.5639,-3.5639,-3.5639,-3.5639,-3.5639,-3.5639,-3.5639,-3.5639,-3.5639,-3.5639,-3.5639,-3.5639,-3.5594,-3.552,-3.5475,-3.5429,-3.5354,-3.5088,-3.493,-3.4431,-3.3882,-3.3124,-3.2477,-3.1894,-3.1715,-3.1554,-3.1467,-3.1467,-3.1467,-3.1467,-3.1467,-3.1467,-3.1467,-3.1467,-3.1467,-3.1467,-3.1467,-3.1467,-3.1467,-3.1467,-3.1467,-3.1467,-3.1467,-3.1467,-3.1467,-3.1467,-3.1467,-3.097,-3.0358,-2.9359,-2.861,-2.7815,-2.7364,-2.7229,-4.0964,-4.103,-4.1074,-4.111,-4.1105,-4.1114,-4.1108,-4.1108,-4.1108,-4.1108,-4.1108,-4.1074,-4.107,-4.1033,-4.0994,-4.091,-4.0848,-4.0687,-4.0602,-4.0545,-4.0492,-4.0413,-4.0379,-4.0325,-4.0308,-4.0309,-4.031,-4.0329,-4.0329,-4.0329,-4.0291,-4.0098,-3.9807,-3.9408,-3.8979,-3.8738,-3.8707,-3.8707,-3.8707,-3.8707,-3.8707,-3.8707,-3.8707,-3.8707,-3.8707,-3.864,-3.8541,-3.851,-3.8465,-3.8387,-3.8153,-3.7897,-3.7487,-3.715,-3.69,-3.6457,-3.6266,-3.5915,-3.5711,-3.5639,-3.5639,-3.5639,-3.5639,-3.5639,-3.5639,-3.5639,-3.5639,-3.5639,-3.5639,-3.5639,-3.5639,-3.5639,-3.5622,-3.5622,-3.5577,-3.5549,-3.5503,-3.5475,-3.5337,-3.5245,-3.493,-3.4284,-3.3594,-3.2625,-3.1992,-3.1682,-3.164,-3.1524,-3.1467,-3.1467,-3.1467,-3.1467,-3.1467,-3.1467,-3.1467,-3.1467,-3.1467,-3.1467,-3.1467,-3.1467,-3.1467,-3.1467,-3.1467,-3.1467,-3.1467,-3.1467,-3.1336,-3.1102,-3.0418,-2.967,-2.898,-2.8546,-2.8222,-2.7762,-2.7377,-4.0921,-4.1008,-4.1058,-4.1074,-4.1111,-4.1116,-4.1108,-4.1108,-4.1108,-4.1108,-4.1108,-4.1108,-4.1108,-4.1081,-4.1061,-4.1025,-4.1007,-4.0876,-4.0726,-4.068,-4.0588,-4.0534,-4.0473,-4.0377,-4.0344,-4.0326,-4.031,-4.0329,-4.0329,-4.0329,-4.0234,-4.0098,-3.9996,-3.958,-3.9137,-3.895,-3.8792,-3.875,-3.8707,-3.8707,-3.8707,-3.8707,-3.8707,-3.8707,-3.8707,-3.8658,-3.8609,-3.8559,-3.851,-3.8446,-3.8382,-3.8219,-3.7862,-3.765,-3.7413,-3.6995,-3.6516,-3.6071,-3.5739,-3.5639,-3.5639,-3.5639,-3.5639,-3.5639,-3.5639,-3.5639,-3.5639,-3.5639,-3.5639,-3.5639,-3.5639,-3.5639,-3.5622,-3.5622,-3.5577,-3.5577,-3.5577,-3.552,-3.5492,-3.5429,-3.5071,-3.448,-3.3815,-3.2964,-3.2048,-3.1894,-3.1754,-3.164,-3.1524,-3.1467,-3.1467,-3.1467,-3.1467,-3.1467,-3.1467,-3.1467,-3.1467,-3.1467,-3.1467,-3.1467,-3.1467,-3.1467,-3.1467,-3.1467,-3.1467,-3.1336,-3.1087,-3.0718,-3.0162,-2.9732,-2.9296,-2.8917,-2.861,-2.8026,-2.739,-4.0896,-4.0967,-4.0998,-4.1049,-4.1093,-4.1103,-4.1111,-4.1108,-4.1108,-4.1108,-4.1108,-4.1108,-4.1108,-4.1108,-4.1088,-4.1046,-4.1025,-4.0987,-4.089,-4.0801,-4.0715,-4.0655,-4.0582,-4.0469,-4.0425,-4.0342,-4.0309,-4.0329,-4.031,-4.0329,-4.0176,-4.0038,-4.0017,-3.9739,-3.9502,-3.929,-3.9073,-3.895,-3.8792,-3.8792,-3.881,-3.8738,-3.8707,-3.8707,-3.8707,-3.8707,-3.8658,-3.8658,-3.8609,-3.8559,-3.851,-3.8201,-3.7931,-3.7721,-3.7376,-3.7034,-3.6615,-3.6199,-3.5783,-3.5711,-3.5639,-3.5639,-3.5639,-3.5639,-3.5639,-3.5639,-3.5639,-3.5639,-3.5639,-3.5639,-3.5639,-3.5639,-3.5639,-3.5622,-3.5622,-3.5577,-3.5577,-3.5549,-3.552,-3.5321,-3.4849,-3.4251,-3.3403,-3.2602,-3.2437,-3.2104,-3.1951,-3.1754,-3.164,-3.1467,-3.1467,-3.1467,-3.1467,-3.1467,-3.1467,-3.1467,-3.1467,-3.1467,-3.1467,-3.1467,-3.1467,-3.1467,-3.1467,-3.1467,-3.1409,-3.1219,-3.0644,-3.0329,-3.0072,-2.9642,-2.9107,-2.8789,-2.8352,-2.7643,-2.7053,-4.0819,-4.0858,-4.0942,-4.1018,-4.1046,-4.1074,-4.1101,-4.1111,-4.1108,-4.1108,-4.1108,-4.1108,-4.1108,-4.1108,-4.1108,-4.1081,-4.1066,-4.1037,-4.0987,-4.0918,-4.081,-4.0771,-4.0707,-4.0617,-4.0535,-4.0466,-4.0408,-4.0326,-4.0327,-4.0328,-4.0291,-4.0215,-4.0157,-3.9996,-3.9848,-3.9717,-3.9502,-3.9272,-3.9101,-3.8989,-3.8921,-3.8822,-3.878,-3.8738,-3.8707,-3.8707,-3.8707,-3.8707,-3.8658,-3.8658,-3.864,-3.8465,-3.8332,-3.8234,-3.805,-3.7487,-3.7055,-3.6603,-3.6139,-3.5783,-3.5639,-3.5639,-3.5639,-3.5639,-3.5639,-3.5639,-3.5639,-3.5639,-3.5639,-3.5639,-3.5639,-3.5639,-3.5639,-3.5639,-3.5639,-3.5622,-3.5577,-3.5594,-3.5566,-3.5396,-3.4927,-3.435,-3.3439,-3.3049,-3.2873,-3.2492,-3.216,-3.191,-3.1697,-3.1582,-3.1467,-3.1467,-3.1467,-3.1467,-3.1467,-3.1467,-3.1467,-3.1467,-3.1467,-3.1467,-3.1467,-3.1467,-3.1467,-3.1336,-3.1161,-3.0584,-2.9889,-2.9704,-2.958,-2.9093,-2.861,-2.8352,-2.8039,-2.7456,-2.7066,-4.0796,-4.0859,-4.0929,-4.0974,-4.1046,-4.1069,-4.1112,-4.1101,-4.1114,-4.1108,-4.1108,-4.1108,-4.1108,-4.1108,-4.1108,-4.1108,-4.1104,-4.107,-4.1052,-4.1017,-4.0921,-4.0898,-4.082,-4.0751,-4.0672,-4.0617,-4.0506,-4.0383,-4.0372,-4.0326,-4.031,-4.031,-4.0329,-4.0196,-4.0098,-4.0036,-3.9956,-3.9717,-3.9502,-3.9324,-3.9137,-3.8989,-3.891,-3.881,-3.878,-3.8707,-3.8707,-3.8707,-3.8707,-3.8707,-3.8707,-3.864,-3.851,-3.8428,-3.8267,-3.7703,-3.7228,-3.6764,-3.6308,-3.5827,-3.5667,-3.5639,-3.5622,-3.5639,-3.5639,-3.5639,-3.5639,-3.5639,-3.5639,-3.5639,-3.5639,-3.5639,-3.5639,-3.5639,-3.5639,-3.5639,-3.5639,-3.5639,-3.5577,-3.547,-3.5085,-3.4593,-3.4102,-3.3662,-3.3261,-3.2711,-3.2231,-3.194,-3.1712,-3.1597,-3.1539,-3.1467,-3.1467,-3.1467,-3.1467,-3.1467,-3.1467,-3.1467,-3.1467,-3.1467,-3.1467,-3.1467,-3.1409,-3.1102,-3.0777,-3.0147,-2.9393,-2.9156,-2.8903,-2.8481,-2.817,-2.7973,-2.7789,-2.7523,-2.7268,-4.0843,-4.0888,-4.0907,-4.0979,-4.1109,-4.1099,-4.1111,-4.1112,-4.1103,-4.1111,-4.1111,-4.1108,-4.1108,-4.1108,-4.1108,-4.1108,-4.1108,-4.1101,-4.1097,-4.1108,-4.1028,-4.1,-4.0954,-4.0874,-4.083,-4.077,-4.066,-4.0511,-4.0472,-4.0419,-4.0358,-4.0325,-4.0309,-4.0272,-4.0253,-4.0253,-4.0196,-4.0117,-3.9826,-3.9575,-3.9427,-3.9245,-3.9073,-3.8989,-3.8851,-3.8707,-3.8707,-3.8707,-3.8707,-3.8707,-3.8689,-3.864,-3.8559,-3.8478,-3.8234,-3.7929,-3.747,-3.7114,-3.6684,-3.6249,-3.5915,-3.58,-3.5667,-3.5667,-3.5667,-3.5622,-3.5639,-3.5639,-3.5639,-3.5639,-3.5639,-3.5639,-3.5639,-3.5639,-3.5639,-3.5639,-3.5639,-3.5577,-3.547,-3.5316,-3.4816,-3.4333,-3.3869,-3.3423,-3.2888,-3.2602,-3.2398,-3.1996,-3.1784,-3.167,-3.1539,-3.1524,-3.1467,-3.1467,-3.1467,-3.1467,-3.1467,-3.1467,-3.1467,-3.1467,-3.1467,-3.1409,-3.1292,-3.0911,-3.0464,-2.9656,-2.903,-2.8725,-2.8352,-2.7973,-2.7723,-2.759,-2.7469,-2.7403,-2.7403,-4.0796,-4.0831,-4.0878,-4.0988,-4.1089,-4.1109,-4.1108,-4.1116,-4.1113,-4.1103,-4.1111,-4.1108,-4.1108,-4.1108,-4.1108,-4.1108,-4.1108,-4.1108,-4.1108,-4.1108,-4.1074,-4.1066,-4.1066,-4.0974,-4.0948,-4.091,-4.0801,-4.0641,-4.0524,-4.0457,-4.0419,-4.0379,-4.0363,-4.0345,-4.0309,-4.0309,-4.031,-4.0291,-4.0176,-3.9826,-3.9551,-3.9245,-3.9036,-3.8892,-3.875,-3.8738,-3.8738,-3.8689,-3.8707,-3.8707,-3.8707,-3.8658,-3.8658,-3.8609,-3.8528,-3.8281,-3.7877,-3.7506,-3.7228,-3.6803,-3.6457,-3.6199,-3.6088,-3.5871,-3.5756,-3.5667,-3.5639,-3.5622,-3.5639,-3.5639,-3.5639,-3.5639,-3.5639,-3.5639,-3.5639,-3.5639,-3.5639,-3.5532,-3.5424,-3.5021,-3.4512,-3.4153,-3.3735,-3.3235,-3.2602,-3.2342,-3.2302,-3.2094,-3.1898,-3.1742,-3.1597,-3.1524,-3.1524,-3.1467,-3.1467,-3.1467,-3.1467,-3.1467,-3.1467,-3.1467,-3.1467,-3.1409,-3.1278,-3.0644,-3.0011,-2.9393,-2.8725,-2.8091,-2.7723,-2.7536,-2.7469,-2.7469,-2.7469,-2.7469,-2.7469,-4.0815,-4.0812,-4.0859,-4.0952,-4.1025,-4.1058,-4.1067,-4.1097,-4.1103,-4.1113,-4.1101,-4.1114,-4.1108,-4.1108,-4.1108,-4.1108,-4.1108,-4.1108,-4.1108,-4.1108,-4.1108,-4.1108,-4.1078,-4.1066,-4.1057,-4.1011,-4.0855,-4.0699,-4.0578,-4.0496,-4.046,-4.0415,-4.0398,-4.0344,-4.0308,-4.0309,-4.0328,-4.0329,-4.0329,-4.0057,-3.9693,-3.9502,-3.9401,-3.9245,-3.9017,-3.895,-3.8822,-3.8762,-3.8707,-3.8707,-3.8707,-3.8707,-3.8707,-3.8658,-3.8658,-3.8496,-3.8183,-3.7877,-3.7685,-3.7414,-3.702,-3.6781,-3.662,-3.644,-3.6374,-3.6249,-3.58,-3.5756,-3.5622,-3.5639,-3.5639,-3.5639,-3.5639,-3.5639,-3.5639,-3.5639,-3.5639,-3.5577,-3.5532,-3.5362,-3.5068,-3.4958,-3.4609,-3.4268,-3.3665,-3.3161,-3.2911,-3.2247,-3.2053,-3.1856,-3.1712,-3.1597,-3.1597,-3.1524,-3.1467,-3.1467,-3.1467,-3.1467,-3.1467,-3.1467,-3.1467,-3.1467,-3.1278,-3.0644,-2.995,-2.9268,-2.8648,-2.7973,-2.759,-2.7536,-2.7469,-2.7469,-2.7469,-2.7469,-2.7469,-4.0776,-4.0818,-4.0859,-4.0926,-4.0988,-4.0996,-4.1039,-4.1076,-4.1113,-4.1099,-4.1113,-4.1107,-4.1116,-4.1111,-4.1108,-4.1108,-4.1108,-4.1108,-4.1108,-4.1108,-4.1108,-4.1108,-4.1108,-4.1104,-4.1101,-4.1046,-4.0942,-4.083,-4.0711,-4.0629,-4.0549,-4.0447,-4.0362,-4.0307,-4.0328,-4.031,-4.031,-4.0329,-4.0272,-4.0157,-4.0017,-3.9914,-3.9785,-3.9647,-3.9452,-3.9183,-3.9073,-3.896,-3.8822,-3.8719,-3.8719,-3.8707,-3.8707,-3.8707,-3.8707,-3.8578,-3.8364,-3.8099,-3.7946,-3.772,-3.747,-3.7266,-3.7173,-3.702,-3.6904,-3.6563,-3.6114,-3.5888,-3.5756,-3.5622,-3.5622,-3.5639,-3.5639,-3.5639,-3.5639,-3.5639,-3.5639,-3.5639,-3.5577,-3.556,-3.547,-3.5407,-3.5115,-3.4833,-3.4382,-3.3869,-3.3371,-3.2765,-3.2247,-3.2038,-3.1868,-3.1769,-3.1655,-3.1597,-3.1524,-3.1467,-3.1467,-3.1467,-3.1467,-3.1467,-3.1467,-3.1278,-3.1014,-3.0569,-2.9889,-2.9093,-2.8597,-2.7973,-2.7723,-2.7469,-2.7469,-2.7469,-2.7469,-2.7469,-2.7469,-4.0655,-4.0807,-4.0798,-4.0859,-4.0926,-4.098,-4.1011,-4.1013,-4.1072,-4.1101,-4.1116,-4.111,-4.1112,-4.1111,-4.1108,-4.1108,-4.1108,-4.1108,-4.1108,-4.1108,-4.1108,-4.1108,-4.1108,-4.1108,-4.1108,-4.1078,-4.1013,-4.0948,-4.082,-4.0749,-4.0655,-4.0504,-4.0473,-4.046,-4.0449,-4.0415,-4.0345,-4.0327,-4.031,-4.0253,-4.0176,-4.0017,-3.9762,-3.9604,-3.9483,-3.9408,-3.9383,-3.9376,-3.9219,-3.9045,-3.887,-3.875,-3.8738,-3.8738,-3.8707,-3.8707,-3.8465,-3.8415,-3.8249,-3.8165,-3.7998,-3.7756,-3.7596,-3.7396,-3.7135,-3.6764,-3.635,-3.6045,-3.5915,-3.5711,-3.5667,-3.5622,-3.5639,-3.5639,-3.5639,-3.5639,-3.5639,-3.5639,-3.5577,-3.5424,-3.5224,-3.4927,-3.4512,-3.4119,-3.3614,-3.3214,-3.3018,-3.2453,-3.2247,-3.2135,-3.2038,-3.1925,-3.1769,-3.167,-3.1539,-3.1524,-3.1467,-3.1467,-3.1467,-3.1394,-3.1204,-3.0896,-3.0569,-3.0254,-2.958,-2.8725,-2.8222,-2.7973,-2.7723,-2.7469,-2.7469,-2.7469,-2.7443,-2.7432,-2.734]},{"header":{"parameterUnit":"m.s-1","parameterCategory":1,"la1":31.0,"la2":29.5877,"lo1":-88.7671,"lo2":-86.6584,"dy":0.0162,"dx":0.0185,"nx":115,"ny":88,"refTime":"2024-06-07T06:00:00:Z","depth":0,"parameterNumber":3,"parameterNumberName":"V-component_of_WINDS"},"data":[0.0,0.0,0.0,0.0,0.0,0.0,0.0,0.0,0.0,0.0,0.0,0.0,0.0,0.0,0.0,0.0,0.0,0.0,0.0,0.0,0.0,0.0,0.0,0.0,0.0,0.0,0.0,0.0,0.0,0.0,0.0,0.0,0.0,0.0,0.0,0.0,0.0,0.0,0.0,0.0,0.0,0.0,0.0,0.0,0.0,0.0,0.0,0.0,0.0,0.0,0.0,0.0,0.0,0.0,0.0,0.0,0.0,0.0,0.0,0.0,0.0,0.0,0.0,0.0,0.0,0.0,0.0,0.0,0.0,0.0,0.0,0.0,0.0,0.0,0.0,0.0,0.0,0.0,0.0,0.0,0.0,0.0,0.0,0.0,0.0,0.0,0.0,0.0,0.0,0.0,0.0,0.0,0.0,0.0,0.0,0.0,0.0,0.0,0.0,0.0,0.0,0.0,0.0,0.0,0.0,0.0,0.0,0.0,0.0,0.0,0.0,0.0,0.0,0.0,0.0,0.0,0.0,0.0,0.0,0.0,0.0,0.0,0.0,0.0,0.0,0.0,0.0,0.0,0.0,0.0,0.0,0.0,0.0,0.0,0.0,0.0,0.0,0.0,0.0,0.0,0.0,0.0,0.0,0.0,0.0,0.0,0.0,0.0,0.0,0.0,0.0,0.0,0.0,0.0,0.0,0.0,0.0,0.0,0.0,0.0,0.0,0.0,0.0,0.0,0.0,0.0,0.0,0.0,0.0,0.0,0.0,0.0,0.0,0.0,0.0,0.0,0.0,0.0,0.0,0.0,0.0,0.0,0.0,0.0,0.0,0.0,0.0,0.0,0.0,0.0,0.0,0.0,0.0,0.0,0.0,0.0,0.0,0.0,0.0,0.0,0.0,0.0,0.0,0.0,0.0,0.0,0.0,0.0,0.0,0.0,0.0,0.0,0.0,0.0,0.0,0.0,0.0,0.0,0.0,0.0,0.0,0.0,0.0,0.0,0.0,0.0,0.0,0.0,0.0,0.0,0.0,0.0,0.0,0.0,0.0,0.0,0.0,0.0,0.0,0.0,0.0,0.0,0.0,0.0,0.0,0.0,0.0,0.0,0.0,0.0,0.0,0.0,0.0,0.0,0.0,0.0,0.0,0.0,0.0,0.0,0.0,0.0,0.0,0.0,0.0,0.0,0.0,0.0,0.0,0.0,0.0,0.0,0.0,0.0,0.0,0.0,0.0,0.0,0.0,0.0,0.0,0.0,0.0,0.0,0.0,0.0,0.0,0.0,0.0,0.0,0.0,0.0,0.0,0.0,0.0,0.0,0.0,0.0,0.0,0.0,0.0,0.0,0.0,0.0,0.0,0.0,0.0,0.0,0.0,0.0,0.0,0.0,0.0,0.0,0.0,0.0,0.0,0.0,0.0,0.0,0.0,0.0,0.0,0.0,0.0,0.0,0.0,0.0,0.0,0.0,0.0,0.0,0.0,0.0,0.0,0.0,0.0,0.0,0.0,0.0,0.0,0.0,0.0,0.0,0.0,0.0,0.0,0.0,0.0,0.0,0.0,0.0,0.0,0.0,0.0,0.0,0.0,0.0,0.0,0.0,0.0,0.0,0.0,0.0,0.0,0.0,0.0,0.0,0.0,0.0,0.0,0.0,0.0,0.0,0.0,0.0,0.0,0.0,0.0,0.0,0.0,0.0,0.0,0.0,0.0,0.0,0.0,0.0,0.0,0.0,0.0,0.0,0.0,0.0,0.0,0.0,0.0,0.0,0.0,0.0,0.0,0.0,0.0,0.0,0.0,0.0,0.0,0.0,0.0,0.0,0.0,0.0,0.0,0.0,0.0,0.0,0.0,0.0,0.0,0.0,0.0,0.0,0.0,0.0,0.0,0.0,0.0,0.0,0.0,0.0,0.0,0.0,0.0,0.0,0.0,0.0,0.0,0.0,0.0,0.0,0.0,0.0,0.0,0.0,0.0,0.0,0.0,0.0,0.0,0.0,0.0,0.0,0.0,0.0,0.0,0.0,0.0,0.0,0.0,0.0,0.0,0.0,0.0,0.0,0.0,0.0,0.0,0.0,0.0,0.0,0.0,0.0,0.0,0.0,0.0,0.0,0.0,0.0,0.0,0.0,0.0,0.0,0.0,0.0,0.0,0.0,0.0,0.0,0.0,0.0,0.0,0.0,0.0,0.0,0.0,0.0,0.0,0.0,0.0,0.0,0.0,0.0,0.0,0.0,0.0,0.0,0.0,0.0,0.0,0.0,0.0,0.0,0.0,0.0,0.0,0.0,0.0,0.0,0.0,0.0,0.0,0.0,0.0,0.0,0.0,0.0,0.0,0.0,0.0,0.0,0.0,0.0,0.0,0.0,0.0,0.0,0.0,0.0,0.0,0.0,0.0,0.0,0.0,0.0,0.0,0.0,0.0,0.0,0.0,0.0,0.0,0.0,0.0,0.0,0.0,0.0,0.0,0.0,0.0,0.0,0.0,0.0,0.0,0.0,0.0,0.0,0.0,0.0,0.0,0.0,0.0,0.0,0.0,0.0,0.0,0.0,0.0,0.0,0.0,0.0,0.0,0.0,0.0,0.0,0.0,0.0,0.0,0.0,0.0,0.0,0.0,0.0,0.0,0.0,0.0,0.0,0.0,0.0,0.0,0.0,0.0,0.0,0.0,0.0,0.0,0.0,0.0,0.0,0.0,0.0,0.0,0.0,0.0,0.0,0.0,0.0,0.0,0.0,0.0,0.0,0.0,0.0,0.0,0.0,0.0,0.0,0.0,0.0,0.0,0.0,0.0,0.0,0.0,0.0,0.0,0.0,0.0,0.0,0.0,0.0,0.0,0.0,0.0,0.0,0.0,0.0,0.0,0.0,0.0,0.0,0.0,0.0,0.0,0.0,0.0,0.0,0.0,0.0,0.0,0.0,0.0,0.0,0.0,0.0,0.0,0.0,0.0,0.0,0.0,0.0,0.0,0.0,0.0,0.0,0.0,0.0,0.0,0.0,0.0,0.0,0.0,0.0,0.0,0.0,0.0,0.0,0.0,0.0,0.0,0.0,0.0,0.0,0.0,0.0,0.0,0.0,0.0,0.0,0.0,0.0,0.0,0.0,0.0,0.0,0.0,0.0,0.0,0.0,0.0,0.0,0.0,0.0,0.0,0.0,0.0,0.0,0.0,0.0,0.0,0.0,0.0,0.0,0.0,0.0,0.0,0.0,0.0,0.0,0.0,0.0,0.0,0.0,0.0,0.0,0.0,0.0,0.0,0.0,0.0,0.0,0.0,0.0,0.0,0.0,0.0,0.0,0.0,0.0,0.0,0.0,0.0,0.0,0.0,0.0,0.0,0.0,0.0,0.0,0.0,0.0,0.0,0.0,0.0,0.0,0.0,0.0,0.0,0.0,0.0,0.0,0.0,0.0,0.0,0.0,0.0,0.0,0.0,0.0,0.0,0.0,0.0,0.0,0.0,0.0,0.0,0.0,0.0,0.0,0.0,0.0,0.0,0.0,0.0,0.0,0.0,0.0,0.0,0.0,0.0,0.0,0.0,0.0,0.0,0.0,0.0,0.0,0.0,0.0,0.0,0.0,0.0,0.0,0.0,0.0,0.0,0.0,0.0,0.0,0.0,0.0,0.0,0.0,0.0,0.0,0.0,0.0,0.0,0.0,0.0,0.0,0.0,0.0,0.0,0.0,0.0,0.0,0.0,0.0,0.0,0.0,0.0,0.0,0.0,0.0,0.0,0.0,0.0,0.0,0.0,0.0,0.0,0.0,0.0,0.0,0.0,0.0,0.0,0.0,0.0,0.0,0.0,0.0,0.0,0.0,0.0,0.0,0.0,0.0,0.0,0.0,0.0,0.0,0.0,0.0,0.0,0.0,0.0,0.0,0.0,0.0,0.0,0.0,0.0,0.0,0.0,0.0,0.0,0.0,0.0,0.0,0.0,0.0,0.0,0.0,0.0,0.0,0.0,0.0,0.0,0.0,0.0,0.0,0.0,0.0,0.0,0.0,0.0,0.0,0.0,0.0,0.0,0.0,0.0,0.0,0.0,0.0,0.0,0.0,0.0,0.0,0.0,0.0,0.0,0.0,0.0,0.0,0.0,0.0,0.0,0.0,0.0,0.0,0.0,0.0,0.0,0.0,0.0,0.0,0.0,0.0,0.0,0.0,0.0,0.0,0.0,0.0,0.0,0.0,0.0,0.0,0.0,0.0,0.0,0.0,0.0,0.0,0.0,0.0,0.0,0.0,0.0,0.0,0.0,0.0,0.0,0.0,-1.139,0.0,0.0,0.0,0.0,0.0,0.0,0.0,0.0,0.0,0.0,0.0,0.0,0.0,0.0,0.0,0.0,0.0,0.0,0.0,0.0,0.0,0.0,0.0,0.0,0.0,0.0,0.0,0.0,0.0,0.0,0.0,0.0,0.0,0.0,0.0,0.0,0.0,0.0,0.0,0.0,0.0,0.0,0.0,0.0,0.0,0.0,0.0,0.0,0.0,0.0,0.0,0.0,0.0,0.0,0.0,0.0,0.0,0.0,0.0,0.0,0.0,0.0,0.0,0.0,0.0,0.0,0.0,0.0,0.0,0.0,0.0,0.0,0.0,0.0,0.0,0.0,0.0,0.0,0.0,0.0,0.0,0.0,0.0,0.0,0.0,0.0,0.0,0.0,0.0,0.0,0.0,0.0,0.0,0.0,0.0,0.0,0.0,0.0,0.0,0.0,0.0,0.0,0.0,0.0,0.0,0.0,0.0,0.0,0.0,0.0,-1.0785,-1.2192,-1.1999,-1.1742,-1.1683,0.0,0.0,0.0,0.0,0.0,0.0,0.0,0.0,0.0,0.0,0.0,0.0,0.0,0.0,0.0,0.0,0.0,0.0,0.0,0.0,0.0,0.0,0.0,0.0,0.0,0.0,0.0,0.0,0.0,0.0,0.0,0.0,0.0,0.0,0.0,0.0,0.0,0.0,0.0,0.0,0.0,0.0,0.0,0.0,0.0,0.0,0.0,0.0,0.0,0.0,0.0,0.0,0.0,0.0,0.0,0.0,0.0,0.0,0.0,0.0,0.0,0.0,0.0,0.0,0.0,0.0,0.0,0.0,0.0,0.0,0.0,0.0,0.0,0.0,0.0,0.0,0.0,0.0,0.0,0.0,0.0,0.0,0.0,0.0,0.0,0.0,0.0,0.0,0.0,0.0,0.0,0.0,0.0,0.0,0.0,0.0,0.0,0.0,0.0,0.0,0.0,0.0,0.0,0.0,0.0,0.0,0.0,0.0,0.0,0.0,0.0,0.0,-1.2055,-1.21,-1.2084,0.0,0.0,0.0,0.0,0.0,0.0,0.0,0.0,0.0,0.0,0.0,0.0,0.0,0.0,0.0,0.0,0.0,0.0,0.0,0.0,0.0,0.0,0.0,0.0,0.0,0.0,0.0,0.0,0.0,0.0,0.0,0.0,0.0,0.0,0.0,0.0,0.0,0.0,0.0,0.0,0.0,0.0,0.0,0.0,0.0,0.0,0.0,0.0,0.0,0.0,0.0,0.0,0.0,0.0,0.0,0.0,0.0,0.0,0.0,0.0,0.0,0.0,0.0,0.0,0.0,0.0,0.0,0.0,0.0,0.0,0.0,0.0,0.0,0.0,0.0,0.0,0.0,0.0,0.0,0.0,0.0,0.0,0.0,0.0,0.0,0.0,0.0,0.0,0.0,0.0,0.0,0.0,0.0,0.0,0.0,0.0,0.0,0.0,0.0,0.0,0.0,0.0,0.0,0.0,0.0,0.0,0.0,0.0,0.0,0.0,-1.1305,-1.2697,-1.3659,0.0,-1.2822,0.0,0.0,0.0,0.0,0.0,0.0,0.0,0.0,0.0,0.0,0.0,0.0,0.0,0.0,0.0,0.0,0.0,0.0,0.0,0.0,0.0,0.0,0.0,0.0,0.0,0.0,0.0,0.0,0.0,0.0,0.0,0.0,0.0,0.0,0.0,0.0,0.0,0.0,0.0,0.0,0.0,0.0,0.0,0.0,0.0,0.0,0.0,0.0,0.0,0.0,0.0,0.0,0.0,0.0,0.0,0.0,0.0,0.0,0.0,0.0,0.0,0.0,0.0,0.0,0.0,0.0,0.0,0.0,0.0,0.0,0.0,0.0,0.0,0.0,0.0,0.0,0.0,0.0,0.0,0.0,0.0,0.0,0.0,0.0,0.0,0.0,0.0,0.0,0.0,0.0,0.0,0.0,0.0,0.0,0.0,0.0,0.0,0.0,0.0,0.0,0.0,0.0,0.0,0.0,0.0,0.0,0.0,0.0,0.0,0.0,-1.0484,-1.2417,-1.3397,-1.3607,0.0,0.0,0.0,0.0,0.0,0.0,0.0,0.0,0.0,0.0,0.0,0.0,0.0,0.0,0.0,0.0,0.0,0.0,0.0,0.0,0.0,0.0,0.0,0.0,0.0,0.0,0.0,0.0,0.0,0.0,0.0,0.0,0.0,0.0,0.0,0.0,0.0,0.0,0.0,0.0,0.0,0.0,0.0,0.0,0.0,0.0,0.0,0.0,0.0,0.0,0.0,0.0,0.0,0.0,0.0,0.0,0.0,0.0,0.0,0.0,0.0,0.0,0.0,0.0,0.0,0.0,0.0,0.0,0.0,0.0,0.0,0.0,0.0,0.0,0.0,0.0,0.0,0.0,0.0,0.0,0.0,0.0,0.0,0.0,0.0,0.0,0.0,0.0,0.0,0.0,0.0,0.0,0.0,0.0,0.0,0.0,0.0,0.0,0.0,0.0,0.0,0.0,0.0,0.0,0.0,0.0,0.0,0.0,0.0,0.0,-0.8907,-1.0285,-1.2539,-1.358,-1.3694,-1.2856,0.0,0.0,0.0,0.0,0.0,0.0,0.0,0.0,0.0,0.0,0.0,0.0,0.0,0.0,0.0,0.0,0.0,0.0,0.0,0.0,0.0,0.0,0.0,0.0,0.0,0.0,0.0,0.0,0.0,0.0,0.0,0.0,0.0,0.0,0.0,0.0,0.0,0.0,0.0,0.0,0.0,0.0,0.0,0.0,0.0,0.0,0.0,0.0,0.0,0.0,0.0,0.0,0.0,0.0,0.0,0.0,0.0,0.0,0.0,0.0,0.0,0.0,0.0,0.0,0.0,0.0,0.0,0.0,0.0,0.0,0.0,0.0,0.0,0.0,0.0,0.0,0.0,0.0,0.0,0.0,0.0,0.0,0.0,0.0,0.0,0.0,0.0,0.0,0.0,0.0,0.0,0.0,0.0,0.0,0.0,0.0,0.0,0.0,0.0,0.0,0.0,0.0,0.0,0.0,0.0,0.0,0.0,0.0,-0.8982,-0.9795,-1.1263,-1.3485,-1.4679,-1.4509,0.0,0.0,0.0,0.0,0.0,0.0,0.0,0.0,0.0,0.0,0.0,0.0,0.0,0.0,0.0,0.0,0.0,0.0,0.0,0.0,0.0,0.0,0.0,0.0,0.0,0.0,0.0,0.0,0.0,0.0,0.0,0.0,0.0,0.0,0.0,0.0,0.0,0.0,0.0,0.0,0.0,0.0,0.0,0.0,0.0,0.0,0.0,0.0,0.0,0.0,0.0,0.0,0.0,0.0,0.0,0.0,0.0,0.0,0.0,0.0,0.0,0.0,0.0,0.0,0.0,0.0,0.0,0.0,0.0,0.0,0.0,0.0,0.0,0.0,0.0,0.0,0.0,0.0,0.0,0.0,0.0,0.0,0.0,0.0,0.0,0.0,0.0,0.0,0.0,0.0,0.0,0.0,0.0,0.0,0.0,0.0,0.0,0.0,0.0,0.0,0.0,0.0,0.0,0.0,0.0,0.0,0.0,0.0,0.0,-0.8488,-1.0385,-1.2106,-1.3352,-1.3962,-1.3975,0.0,0.0,0.0,0.0,0.0,0.0,0.0,0.0,0.0,0.0,0.0,0.0,0.0,0.0,0.0,0.0,0.0,0.0,0.0,0.0,0.0,0.0,0.0,0.0,0.0,0.0,0.0,0.0,0.0,0.0,0.0,0.0,0.0,0.0,0.0,0.0,0.0,0.0,0.0,0.0,0.0,0.0,0.0,0.0,0.0,0.0,0.0,0.0,0.0,0.0,0.0,0.0,0.0,0.0,0.0,0.0,0.0,0.0,0.0,0.0,0.0,0.0,0.0,0.0,0.0,0.0,0.0,0.0,0.0,0.0,0.0,0.0,0.0,0.0,0.0,0.0,0.0,0.0,0.0,0.0,0.0,0.0,0.0,0.0,0.0,0.0,0.0,0.0,0.0,0.0,0.0,0.0,0.0,0.0,0.0,0.0,0.0,0.0,0.0,0.0,0.0,0.0,0.0,0.0,0.0,0.0,0.0,0.0,0.0,-0.8966,0.0,-1.2603,-1.3165,-1.3623,-1.3654,0.0,0.0,0.0,0.0,0.0,0.0,0.0,0.0,0.0,0.0,0.0,0.0,0.0,0.0,0.0,0.0,0.0,0.0,0.0,0.0,0.0,0.0,0.0,0.0,0.0,0.0,0.0,0.0,0.0,0.0,0.0,0.0,0.0,0.0,0.0,0.0,0.0,0.0,0.0,0.0,0.0,0.0,0.0,0.0,0.0,0.0,0.0,0.0,0.0,0.0,0.0,0.0,0.0,0.0,0.0,0.0,0.0,0.0,0.0,0.0,0.0,0.0,0.0,0.0,0.0,0.0,0.0,0.0,0.0,0.0,0.0,0.0,0.0,0.0,0.0,0.0,0.0,0.0,0.0,0.0,0.0,0.0,0.0,0.0,0.0,0.0,0.0,0.0,0.0,0.0,0.0,0.0,0.0,0.0,0.0,0.0,0.0,0.0,0.0,0.0,0.0,0.0,0.0,0.0,0.0,0.0,0.0,0.0,-0.916,-1.0816,-1.199,-1.2769,-1.3162,-1.4033,-1.3763,0.0,0.0,0.0,0.0,0.0,0.0,0.0,0.0,0.0,0.0,0.0,0.0,0.0,0.0,0.0,0.0,0.0,0.0,0.0,0.0,0.0,0.0,0.0,0.0,0.0,0.0,0.0,0.0,0.0,0.0,0.0,0.0,0.0,0.0,0.0,0.0,0.0,0.0,0.0,0.0,0.0,0.0,0.0,0.0,0.0,0.0,0.0,0.0,0.0,0.0,0.0,0.0,0.0,0.0,0.0,0.0,0.0,0.0,0.0,0.0,0.0,0.0,0.0,0.0,0.0,0.0,0.0,0.0,0.0,0.0,0.0,0.0,0.0,0.0,0.0,0.0,0.0,0.0,0.0,0.0,0.0,0.0,0.0,0.0,0.0,0.0,0.0,0.0,0.0,0.0,0.0,0.0,0.0,0.0,0.0,0.0,0.0,0.0,0.0,0.0,0.0,0.0,0.0,0.0,0.0,0.0,0.0,0.0,0.0,-0.9631,-1.1366,-1.2493,-1.3188,-1.3611,-1.3837,0.0,0.0,0.0,0.0,0.0,0.0,0.0,0.0,0.0,0.0,0.0,0.0,0.0,0.0,0.0,0.0,0.0,0.0,0.0,0.0,0.0,0.0,0.0,0.0,0.0,0.0,0.0,0.0,0.0,0.0,0.0,0.0,0.0,0.0,0.0,0.0,0.0,0.0,0.0,0.0,0.0,0.0,0.0,0.0,0.0,0.0,0.0,0.0,0.0,0.0,0.0,0.0,0.0,0.0,0.0,0.0,0.0,0.0,0.0,0.0,0.0,0.0,0.0,0.0,0.0,0.0,0.0,0.0,0.0,0.0,0.0,0.0,0.0,0.0,0.0,0.0,0.0,0.0,0.0,0.0,0.0,0.0,0.0,0.0,0.0,0.0,0.0,0.0,0.0,0.0,0.0,0.0,0.0,0.0,0.0,0.0,0.0,0.0,0.0,0.0,0.0,0.0,0.0,0.0,0.0,0.0,0.0,0.0,0.0,-1.0364,-1.1905,-1.3333,-1.4512,-1.4598,-1.4406,-1.4159,0.0,0.0,0.0,0.0,0.0,0.0,0.0,0.0,0.0,0.0,0.0,0.0,0.0,0.0,0.0,0.0,0.0,0.0,0.0,0.0,0.0,0.0,0.0,0.0,0.0,0.0,0.0,0.0,0.0,0.0,0.0,0.0,0.0,0.0,0.0,0.0,0.0,0.0,0.0,0.0,0.0,0.0,0.0,0.0,0.0,0.0,0.0,0.0,0.0,0.0,0.0,0.0,0.0,0.0,0.0,0.0,0.0,0.0,0.0,0.0,0.0,0.0,0.0,0.0,0.0,0.0,0.0,0.0,0.0,0.0,0.0,0.0,0.0,0.0,0.0,0.0,0.0,0.0,0.0,0.0,0.0,0.0,0.0,0.0,0.0,0.0,0.0,0.0,0.0,0.0,0.0,0.0,0.0,0.0,0.0,0.0,0.0,0.0,0.0,0.0,0.0,0.0,0.0,0.0,0.0,0.0,0.0,0.0,-1.2795,-1.3778,-1.5047,-1.6638,-1.64,-1.5507,0.0,0.0,0.0,0.0,0.0,0.0,0.0,0.0,0.0,0.0,0.0,0.0,0.0,0.0,0.0,0.0,0.0,0.0,0.0,0.0,0.0,0.0,0.0,0.0,0.0,0.0,0.0,0.0,0.0,0.0,0.0,0.0,0.0,0.0,0.0,0.0,0.0,0.0,0.0,0.0,0.0,0.0,0.0,0.0,0.0,0.0,0.0,0.0,0.0,0.0,0.0,0.0,0.0,0.0,0.0,0.0,0.0,0.0,0.0,0.0,0.0,0.0,0.0,0.0,0.0,0.0,0.0,0.0,0.0,0.0,0.0,0.0,0.0,0.0,0.0,0.0,0.0,0.0,0.0,0.0,0.0,0.0,0.0,0.0,0.0,0.0,0.0,0.0,0.0,0.0,0.0,0.0,0.0,0.0,0.0,0.0,0.0,0.0,0.0,0.0,0.0,0.0,0.0,0.0,0.0,0.0,0.0,0.0,0.0,-1.6314,-1.7132,-1.7452,-1.7423,-1.6819,-1.6216,0.0,0.0,0.0,0.0,0.0,0.0,0.0,0.0,0.0,0.0,0.0,0.0,0.0,0.0,0.0,0.0,0.0,0.0,0.0,0.0,0.0,0.0,0.0,0.0,0.0,0.0,0.0,0.0,0.0,0.0,0.0,0.0,0.0,0.0,0.0,0.0,0.0,0.0,0.0,0.0,0.0,0.0,0.0,0.0,0.0,0.0,0.0,0.0,0.0,0.0,0.0,0.0,0.0,0.0,0.0,0.0,0.0,0.0,0.0,0.0,0.0,0.0,0.0,0.0,0.0,0.0,0.0,0.0,0.0,0.0,0.0,0.0,0.0,0.0,0.0,0.0,0.0,0.0,0.0,0.0,0.0,0.0,0.0,0.0,0.0,0.0,0.0,0.0,0.0,0.0,0.0,0.0,0.0,0.0,0.0,0.0,0.0,0.0,0.0,0.0,0.0,0.0,0.0,0.0,0.0,0.0,0.0,0.0,-1.5534,-1.7946,-1.9378,-1.9973,-1.9515,-1.8482,-1.7484,0.0,0.0,0.0,0.0,0.0,0.0,0.0,0.0,0.0,0.0,0.0,0.0,0.0,0.0,0.0,0.0,0.0,0.0,0.0,0.0,0.0,0.0,0.0,0.0,0.0,0.0,0.0,0.0,0.0,0.0,0.0,0.0,0.0,0.0,0.0,0.0,0.0,0.0,0.0,0.0,0.0,0.0,0.0,0.0,0.0,0.0,0.0,0.0,0.0,0.0,0.0,0.0,0.0,0.0,0.0,0.0,0.0,0.0,0.0,0.0,0.0,0.0,0.0,0.0,0.0,0.0,0.0,0.0,0.0,0.0,0.0,0.0,0.0,0.0,0.0,0.0,0.0,0.0,0.0,0.0,0.0,0.0,0.0,0.0,0.0,0.0,0.0,0.0,0.0,0.0,0.0,0.0,0.0,0.0,0.0,0.0,0.0,0.0,0.0,0.0,0.0,0.0,0.0,0.0,0.0,0.0,0.0,0.0,-1.7883,-1.859,-2.0956,-2.2206,-2.2105,-2.0587,-1.8905,0.0,0.0,0.0,0.0,0.0,0.0,0.0,0.0,0.0,0.0,0.0,0.0,0.0,0.0,0.0,0.0,0.0,0.0,0.0,0.0,0.0,0.0,0.0,0.0,0.0,0.0,0.0,0.0,0.0,0.0,0.0,0.0,0.0,0.0,0.0,0.0,0.0,0.0,0.0,0.0,0.0,0.0,0.0,0.0,0.0,0.0,0.0,0.0,0.0,0.0,0.0,0.0,0.0,0.0,0.0,0.0,0.0,0.0,0.0,0.0,0.0,0.0,0.0,0.0,0.0,0.0,0.0,0.0,0.0,0.0,0.0,0.0,0.0,0.0,0.0,0.0,0.0,0.0,0.0,0.0,0.0,0.0,0.0,0.0,0.0,0.0,0.0,0.0,0.0,0.0,0.0,0.0,0.0,0.0,0.0,0.0,0.0,0.0,0.0,0.0,0.0,0.0,0.0,0.0,0.0,0.0,0.0,0.0,-1.8637,-2.053,-2.1804,-2.2462,-2.25,-2.0485,-1.9301,0.0,0.0,0.0,0.0,0.0,0.0,0.0,0.0,0.0,0.0,0.0,0.0,0.0,0.0,0.0,0.0,0.0,0.0,0.0,0.0,0.0,0.0,0.0,0.0,0.0,0.0,0.0,0.0,0.0,0.0,0.0,0.0,0.0,0.0,0.0,0.0,0.0,0.0,0.0,0.0,0.0,0.0,0.0,0.0,0.0,0.0,0.0,0.0,-1.7658,0.0,0.0,0.0,0.0,0.0,0.0,0.0,0.0,0.0,0.0,0.0,0.0,0.0,0.0,0.0,0.0,0.0,0.0,0.0,0.0,0.0,0.0,0.0,0.0,0.0,0.0,0.0,0.0,0.0,0.0,0.0,0.0,0.0,0.0,0.0,0.0,0.0,0.0,0.0,0.0,0.0,0.0,0.0,0.0,0.0,0.0,0.0,0.0,0.0,0.0,0.0,0.0,0.0,0.0,0.0,0.0,0.0,0.0,0.0,-1.9717,-2.1437,-2.2291,-2.2711,-2.2586,-2.1096,-2.0042,0.0,0.0,0.0,0.0,0.0,0.0,0.0,0.0,0.0,0.0,0.0,0.0,0.0,0.0,0.0,0.0,0.0,0.0,0.0,0.0,0.0,0.0,0.0,0.0,0.0,0.0,0.0,0.0,0.0,0.0,0.0,0.0,0.0,0.0,0.0,0.0,0.0,0.0,0.0,0.0,0.0,0.0,0.0,0.0,0.0,0.0,0.0,0.0,0.0,0.0,0.0,0.0,0.0,0.0,0.0,0.0,0.0,0.0,0.0,0.0,0.0,0.0,0.0,0.0,0.0,0.0,0.0,0.0,0.0,0.0,0.0,0.0,0.0,0.0,0.0,0.0,0.0,0.0,0.0,0.0,0.0,0.0,0.0,0.0,0.0,0.0,0.0,0.0,0.0,0.0,0.0,0.0,0.0,0.0,0.0,0.0,0.0,0.0,0.0,0.0,0.0,0.0,0.0,0.0,0.0,0.0,0.0,-1.8998,-2.0684,-2.1745,-2.2645,-2.293,-2.2557,-2.1679,-2.0861,-2.0261,0.0,0.0,0.0,0.0,0.0,0.0,0.0,0.0,0.0,0.0,0.0,0.0,0.0,0.0,0.0,0.0,0.0,0.0,0.0,0.0,0.0,0.0,0.0,0.0,0.0,0.0,0.0,0.0,0.0,0.0,0.0,0.0,0.0,0.0,0.0,0.0,0.0,0.0,-1.5202,-1.6294,0.0,0.0,0.0,0.0,0.0,0.0,0.0,0.0,-1.975,0.0,0.0,0.0,0.0,0.0,0.0,0.0,0.0,0.0,0.0,0.0,0.0,0.0,0.0,0.0,0.0,0.0,0.0,0.0,0.0,0.0,0.0,0.0,0.0,0.0,0.0,0.0,0.0,0.0,0.0,0.0,0.0,0.0,0.0,0.0,0.0,0.0,0.0,0.0,0.0,0.0,0.0,0.0,0.0,0.0,0.0,0.0,0.0,0.0,0.0,0.0,0.0,0.0,0.0,0.0,0.0,-1.7475,-1.8998,-2.0574,-2.2074,-2.2762,-2.2835,-2.2264,-2.1576,-2.1076,-2.0712,0.0,0.0,0.0,0.0,0.0,0.0,0.0,0.0,0.0,0.0,0.0,0.0,0.0,0.0,0.0,0.0,0.0,0.0,0.0,0.0,0.0,0.0,0.0,0.0,0.0,0.0,0.0,0.0,0.0,0.0,0.0,0.0,0.0,0.0,0.0,0.0,0.0,0.0,0.0,-1.7355,-1.7911,0.0,0.0,0.0,0.0,0.0,0.0,0.0,0.0,-2.1425,0.0,0.0,0.0,0.0,0.0,0.0,0.0,0.0,0.0,0.0,0.0,0.0,0.0,0.0,0.0,0.0,0.0,0.0,0.0,0.0,0.0,0.0,0.0,0.0,0.0,0.0,0.0,0.0,0.0,0.0,0.0,0.0,0.0,0.0,0.0,0.0,0.0,0.0,0.0,0.0,0.0,0.0,0.0,0.0,0.0,0.0,0.0,0.0,0.0,0.0,0.0,0.0,0.0,0.0,0.0,-1.7981,-1.9621,-2.1057,-2.2147,-2.2623,-2.2637,-2.2184,-2.1225,-2.0796,0.0,0.0,0.0,0.0,0.0,0.0,0.0,0.0,0.0,0.0,0.0,0.0,0.0,0.0,0.0,0.0,0.0,0.0,0.0,0.0,0.0,0.0,0.0,0.0,0.0,0.0,0.0,0.0,0.0,0.0,0.0,0.0,0.0,0.0,0.0,0.0,0.0,0.0,0.0,0.0,-1.8499,-1.8955,-1.9716,0.0,0.0,0.0,0.0,0.0,0.0,-2.1703,-2.2733,0.0,0.0,0.0,0.0,0.0,0.0,0.0,0.0,0.0,0.0,0.0,0.0,0.0,0.0,0.0,0.0,0.0,0.0,0.0,0.0,0.0,0.0,0.0,0.0,0.0,0.0,0.0,0.0,0.0,0.0,0.0,0.0,0.0,0.0,0.0,0.0,0.0,0.0,0.0,0.0,0.0,0.0,0.0,0.0,0.0,0.0,0.0,0.0,0.0,0.0,0.0,0.0,0.0,0.0,0.0,-1.8211,-2.0055,-2.1364,-2.2059,-2.2381,-2.2389,-2.2074,-2.104,-2.0562,0.0,0.0,0.0,0.0,0.0,0.0,0.0,0.0,0.0,0.0,0.0,0.0,0.0,0.0,0.0,0.0,0.0,0.0,0.0,0.0,0.0,0.0,0.0,0.0,0.0,0.0,0.0,0.0,0.0,0.0,0.0,0.0,0.0,0.0,0.0,0.0,0.0,0.0,0.0,0.0,0.0,-2.0189,-2.084,-2.0537,0.0,0.0,0.0,0.0,-2.2214,-2.3361,0.0,0.0,0.0,0.0,0.0,0.0,0.0,0.0,0.0,0.0,0.0,0.0,0.0,0.0,0.0,0.0,0.0,0.0,0.0,0.0,0.0,0.0,0.0,0.0,0.0,0.0,0.0,0.0,0.0,0.0,0.0,0.0,0.0,0.0,0.0,0.0,0.0,0.0,0.0,0.0,0.0,0.0,0.0,0.0,0.0,0.0,0.0,0.0,0.0,0.0,0.0,0.0,0.0,0.0,0.0,0.0,-1.7882,-1.9506,-2.0808,-2.1715,-2.2067,-2.2081,-2.1745,-2.1353,-2.0805,0.0,0.0,0.0,0.0,0.0,0.0,0.0,0.0,0.0,0.0,0.0,0.0,0.0,0.0,0.0,0.0,0.0,0.0,0.0,0.0,0.0,0.0,0.0,0.0,0.0,0.0,0.0,0.0,0.0,0.0,0.0,0.0,0.0,0.0,0.0,0.0,0.0,0.0,0.0,0.0,0.0,-2.17,-2.1894,-2.164,-2.1417,0.0,0.0,-2.2151,-2.3187,-2.4694,0.0,0.0,0.0,0.0,0.0,0.0,0.0,0.0,0.0,0.0,0.0,0.0,0.0,0.0,0.0,0.0,0.0,0.0,0.0,0.0,0.0,0.0,0.0,0.0,0.0,0.0,0.0,0.0,0.0,0.0,0.0,0.0,0.0,0.0,0.0,0.0,0.0,0.0,0.0,0.0,0.0,0.0,0.0,0.0,0.0,0.0,0.0,0.0,0.0,0.0,0.0,0.0,0.0,0.0,0.0,-1.6901,-1.7845,-1.9777,-2.1079,-2.1672,-2.1832,-2.2096,-2.2314,-2.1051,-2.0338,0.0,0.0,0.0,0.0,0.0,0.0,0.0,0.0,0.0,0.0,0.0,0.0,0.0,0.0,0.0,0.0,0.0,0.0,0.0,0.0,0.0,0.0,0.0,0.0,0.0,0.0,0.0,0.0,0.0,0.0,0.0,0.0,0.0,0.0,0.0,0.0,0.0,0.0,0.0,0.0,0.0,0.0,-2.2771,-2.2517,0.0,0.0,0.0,-2.3871,-2.4918,0.0,0.0,0.0,0.0,0.0,0.0,0.0,0.0,0.0,0.0,0.0,0.0,0.0,0.0,0.0,0.0,0.0,0.0,0.0,0.0,0.0,0.0,0.0,0.0,0.0,0.0,0.0,0.0,0.0,0.0,0.0,0.0,0.0,0.0,0.0,0.0,0.0,0.0,0.0,0.0,0.0,0.0,0.0,0.0,0.0,0.0,0.0,0.0,0.0,0.0,0.0,0.0,0.0,0.0,0.0,0.0,0.0,-1.7721,-1.985,-2.1167,-2.1554,-2.172,-2.2109,-2.2599,-2.128,0.0,0.0,0.0,0.0,0.0,0.0,0.0,0.0,0.0,0.0,0.0,0.0,0.0,0.0,0.0,0.0,0.0,0.0,0.0,0.0,0.0,0.0,0.0,0.0,0.0,0.0,0.0,-1.6995,0.0,0.0,0.0,0.0,0.0,0.0,0.0,0.0,0.0,0.0,0.0,0.0,0.0,0.0,-2.3162,-2.3553,-2.3571,-2.376,0.0,0.0,-2.5604,-2.7113,-2.8447,-2.9136,0.0,0.0,0.0,0.0,0.0,0.0,0.0,0.0,0.0,0.0,0.0,0.0,0.0,0.0,0.0,0.0,0.0,0.0,0.0,0.0,0.0,0.0,0.0,0.0,0.0,0.0,0.0,0.0,0.0,0.0,0.0,0.0,0.0,0.0,0.0,0.0,0.0,0.0,0.0,0.0,0.0,0.0,0.0,0.0,0.0,0.0,0.0,0.0,0.0,0.0,0.0,0.0,0.0,0.0,-1.6433,-1.7384,-1.9301,-2.0611,-2.1203,-2.193,-2.2293,-2.2356,-2.2808,-2.2149,0.0,0.0,0.0,0.0,0.0,0.0,0.0,0.0,0.0,0.0,0.0,0.0,0.0,0.0,0.0,0.0,0.0,0.0,0.0,0.0,0.0,0.0,0.0,0.0,0.0,0.0,0.0,0.0,0.0,0.0,0.0,0.0,0.0,0.0,0.0,0.0,0.0,0.0,0.0,0.0,0.0,-2.4088,-2.4122,-2.4454,-2.5267,0.0,-2.6541,-2.6957,-2.9579,-3.0522,-3.073,-2.9446,0.0,0.0,0.0,0.0,0.0,0.0,0.0,0.0,0.0,0.0,0.0,0.0,0.0,0.0,0.0,0.0,0.0,0.0,0.0,0.0,0.0,0.0,0.0,0.0,0.0,0.0,0.0,0.0,0.0,0.0,0.0,0.0,0.0,0.0,0.0,0.0,0.0,0.0,0.0,0.0,0.0,0.0,0.0,0.0,0.0,0.0,0.0,0.0,0.0,0.0,0.0,0.0,0.0,-1.6082,-1.704,-1.8752,-2.0275,-2.1539,-2.1877,-2.2559,-2.3704,-2.3251,-2.229,0.0,0.0,0.0,0.0,0.0,0.0,0.0,0.0,0.0,0.0,0.0,0.0,0.0,0.0,0.0,0.0,0.0,0.0,0.0,0.0,0.0,0.0,0.0,0.0,0.0,0.0,0.0,0.0,-1.936,-1.9603,-1.9862,0.0,0.0,0.0,0.0,0.0,0.0,0.0,0.0,0.0,0.0,-2.5724,-2.6455,-2.7022,0.0,0.0,-2.848,-2.8755,-2.9321,-3.0247,-3.034,-2.8672,-2.8069,0.0,0.0,0.0,0.0,0.0,0.0,0.0,0.0,0.0,0.0,0.0,0.0,0.0,0.0,0.0,0.0,0.0,0.0,0.0,0.0,0.0,0.0,0.0,0.0,0.0,0.0,0.0,0.0,0.0,0.0,0.0,0.0,0.0,0.0,0.0,0.0,0.0,0.0,0.0,0.0,0.0,0.0,0.0,0.0,0.0,0.0,0.0,0.0,0.0,0.0,0.0,0.0,-1.5804,-1.6941,-1.8738,-2.03,-2.1794,-2.2339,-2.3314,-2.4472,-2.3731,-2.2664,0.0,0.0,0.0,0.0,0.0,0.0,0.0,0.0,0.0,0.0,0.0,0.0,0.0,0.0,0.0,0.0,0.0,0.0,0.0,0.0,0.0,0.0,0.0,0.0,0.0,0.0,0.0,0.0,-1.9744,-1.9934,-2.0369,0.0,0.0,0.0,0.0,0.0,0.0,0.0,0.0,0.0,0.0,-2.6959,-2.7815,-2.8195,-2.8496,-2.8718,-2.9055,-2.9309,-2.9172,-3.0048,-3.0149,-2.8587,0.0,0.0,0.0,0.0,0.0,0.0,0.0,0.0,0.0,0.0,0.0,0.0,0.0,0.0,0.0,0.0,0.0,0.0,0.0,0.0,0.0,0.0,0.0,0.0,0.0,0.0,0.0,0.0,0.0,0.0,-1.1483,0.0,0.0,0.0,0.0,0.0,0.0,0.0,0.0,0.0,0.0,0.0,0.0,0.0,0.0,0.0,0.0,0.0,0.0,0.0,0.0,0.0,0.0,-1.5577,-1.6934,-1.9171,-2.0869,-2.1862,-2.3557,-2.449,-2.4656,-2.4402,-2.3613,-2.1885,0.0,0.0,0.0,0.0,0.0,0.0,0.0,0.0,0.0,0.0,0.0,0.0,0.0,0.0,0.0,0.0,0.0,0.0,0.0,0.0,0.0,0.0,0.0,0.0,0.0,0.0,-1.9147,-1.9489,-1.9934,0.0,0.0,0.0,0.0,0.0,0.0,0.0,0.0,0.0,0.0,-2.6427,-2.7482,-2.7501,-2.7413,-2.7783,-2.8564,-2.8063,-2.8084,-2.9661,-3.0367,-3.0356,0.0,0.0,0.0,0.0,0.0,0.0,0.0,0.0,0.0,0.0,0.0,0.0,0.0,0.0,0.0,0.0,0.0,0.0,0.0,0.0,0.0,0.0,0.0,0.0,0.0,0.0,0.0,-1.121,-1.1261,0.0,0.0,0.0,0.0,0.0,0.0,0.0,0.0,0.0,0.0,0.0,-1.4962,-1.5372,0.0,0.0,0.0,0.0,0.0,0.0,0.0,0.0,0.0,0.0,0.0,0.0,-1.5658,-1.7578,-1.9209,-2.1081,-2.3234,-2.3953,-2.4607,-2.5319,-2.4753,-2.334,-2.1084,0.0,0.0,0.0,0.0,0.0,0.0,0.0,0.0,0.0,0.0,0.0,0.0,0.0,0.0,0.0,0.0,0.0,0.0,0.0,0.0,0.0,0.0,0.0,0.0,0.0,-1.9241,0.0,0.0,0.0,0.0,0.0,0.0,0.0,0.0,0.0,0.0,0.0,-2.5512,-2.6738,-2.7422,-2.8005,-2.8599,-2.8931,-2.9439,0.0,0.0,0.0,0.0,0.0,0.0,0.0,0.0,0.0,0.0,0.0,0.0,0.0,0.0,-2.9474,-2.8422,-2.8559,-2.8767,-2.8927,0.0,0.0,0.0,0.0,0.0,0.0,0.0,0.0,0.0,0.0,0.0,0.0,0.0,0.0,-1.1432,0.0,-1.1983,0.0,0.0,0.0,0.0,0.0,0.0,0.0,0.0,-1.5533,-1.5818,-1.5935,-1.6345,-1.6433,0.0,-1.6023,-1.5379,0.0,0.0,0.0,0.0,0.0,0.0,0.0,0.0,-1.5898,-1.7945,-1.9581,-2.1616,-2.3952,-2.4501,-2.502,-2.5616,-2.4736,-2.3262,-2.1309,-2.0127,-1.8984,0.0,0.0,0.0,0.0,0.0,0.0,0.0,0.0,0.0,0.0,0.0,0.0,0.0,0.0,0.0,0.0,0.0,0.0,0.0,0.0,0.0,0.0,0.0,-1.9199,0.0,0.0,0.0,0.0,0.0,0.0,0.0,0.0,0.0,-2.5006,-2.5927,-2.7096,-2.8473,-2.8783,-2.899,-2.9259,0.0,0.0,0.0,0.0,0.0,0.0,0.0,-2.9239,-2.8359,-2.8856,-2.9404,-2.9549,-3.0005,-3.0795,-3.2162,0.0,0.0,-3.1542,-3.1651,-3.2091,-3.2269,-3.2803,-3.3253,-3.3253,-3.346,-3.3703,0.0,0.0,0.0,0.0,0.0,0.0,0.0,0.0,-1.1449,-1.1845,0.0,-1.2293,0.0,0.0,0.0,0.0,0.0,-1.4488,0.0,0.0,-1.6843,-1.715,-1.6872,-1.697,-1.6978,-1.6887,-1.697,-1.6565,-1.5943,-1.5021,0.0,0.0,0.0,0.0,0.0,0.0,-1.6323,-1.8064,-2.0424,-2.239,-2.4131,-2.5118,-2.5723,-2.5654,-2.4443,-2.3359,-2.249,-2.0898,-1.9971,-1.9873,-1.8152,0.0,0.0,0.0,0.0,0.0,0.0,0.0,0.0,0.0,0.0,0.0,0.0,0.0,0.0,0.0,0.0,0.0,0.0,0.0,0.0,-1.9365,0.0,0.0,0.0,0.0,0.0,0.0,0.0,0.0,0.0,0.0,-2.603,-2.7096,-2.8411,-2.9704,0.0,0.0,0.0,0.0,-2.9487,-2.8276,-2.8028,-2.8224,-2.868,-2.9456,-3.0005,-2.9963,0.0,0.0,-3.1553,-3.12,-3.1658,-3.3481,-3.5124,-3.5759,-3.4414,-3.4137,-3.4078,-3.4521,-3.5239,-3.5537,-3.5499,-3.5978,-3.6299,-1.0123,0.0,0.0,0.0,0.0,-0.919,-0.9768,-1.0812,-1.152,-1.2157,-1.2572,-1.327,0.0,0.0,0.0,0.0,0.0,0.0,-1.5676,-1.6257,-1.6762,-1.7062,-1.7201,-1.7428,-1.7538,-1.7538,-1.7545,-1.745,-1.7238,-1.6528,-1.5482,-1.4136,0.0,0.0,0.0,0.0,-1.7268,-1.9442,-2.1485,-2.3333,-2.4842,-2.5373,-2.5439,-2.4805,-2.3857,-2.3086,-2.2529,-2.2031,-2.1191,-1.9971,-1.9409,0.0,0.0,0.0,0.0,0.0,0.0,0.0,0.0,0.0,0.0,0.0,0.0,0.0,0.0,0.0,0.0,0.0,0.0,0.0,-1.9251,-1.9727,-2.0131,0.0,0.0,0.0,0.0,0.0,0.0,0.0,0.0,0.0,-2.8142,-2.8079,-2.8069,0.0,0.0,-2.8266,-2.8307,-2.8711,-2.9218,-2.9808,-2.9901,0.0,-3.0512,-3.0532,-3.0377,-3.0046,-3.0874,-3.1929,-3.316,-3.3573,-3.4578,-3.686,-3.7873,-3.8395,-3.8856,-3.8842,-3.8766,-3.9018,-3.9351,-3.9556,-3.9556,-3.9667,-3.981,-1.0741,-0.9969,-0.9685,-0.9547,-0.9604,-0.9844,-1.0477,-1.1356,-1.2522,-1.3223,-1.3568,-1.4261,-1.4282,-1.3714,-1.3722,0.0,0.0,0.0,-1.6147,-1.6755,-1.6952,-1.7143,-1.734,-1.7523,-1.7618,-1.7625,-1.7625,-1.7618,-1.7618,-1.723,-1.6396,-1.5138,0.0,0.0,-1.4889,-1.6285,-1.828,-2.0774,-2.2108,-2.3495,-2.5059,-2.5166,-2.4717,-2.3701,-2.333,-2.2881,-2.2295,-2.209,-2.1523,-2.0478,-2.0017,-1.9147,0.0,0.0,0.0,0.0,0.0,0.0,0.0,0.0,0.0,0.0,0.0,-1.7368,-1.7265,0.0,0.0,0.0,-1.9675,-2.0162,-2.0162,-2.0648,0.0,0.0,0.0,0.0,0.0,0.0,0.0,-2.5647,-2.6713,-2.7862,-2.9125,-2.898,-2.8949,-2.9487,-2.9166,-2.8928,-2.9001,0.0,-2.9942,-3.0594,-3.0688,-3.0843,-3.1298,-3.1288,-3.1283,-3.1729,-3.2359,-3.3344,-3.4795,-3.5654,-3.6799,-3.8416,-3.9287,-3.9827,-4.0883,-4.1097,-4.1097,-4.1097,-4.1198,-4.1311,-4.1311,-4.1311,-4.1311,-1.1118,-1.0907,-1.0229,-1.005,-1.0272,-1.1048,-1.1706,-1.2399,-1.3943,-1.4739,-1.4881,-1.5354,-1.519,-1.4629,-1.4489,0.0,-1.5824,-1.6181,-1.6762,-1.7333,-1.7333,-1.7333,-1.7333,-1.7333,-1.7333,-1.7333,-1.7333,-1.7333,-1.7333,-1.7333,-1.7172,-1.6843,-1.6279,-1.6229,-1.6818,-1.7544,-1.9166,-2.1799,-2.2205,-2.3185,-2.4941,-2.4434,-2.3643,-2.2559,-2.2832,-2.2646,-2.1914,-2.1504,-2.1269,-2.1201,-2.0174,-1.9446,-1.8923,0.0,0.0,0.0,0.0,0.0,0.0,0.0,0.0,0.0,0.0,0.0,0.0,0.0,0.0,0.0,-2.1021,0.0,-2.1963,-2.1994,0.0,0.0,0.0,-2.308,-2.3991,-2.5254,-2.6216,-2.6682,0.0,0.0,-2.9415,-2.9943,-3.0691,-3.1919,-3.1609,-3.1122,-3.0739,-3.1019,-3.1226,-3.0884,-3.0843,-3.1019,-3.1626,-3.2058,-3.2807,-3.4118,-3.477,-3.5364,-3.6572,-3.7453,-3.8323,-3.9274,-3.984,-4.0351,-4.1145,-4.1206,-4.1232,-4.1128,-4.1232,-4.1298,-4.1219,-4.1193,-4.1167,-1.1122,-1.0944,-1.0631,-1.0526,-1.0562,-1.0791,-1.1806,-1.3362,-1.3773,-1.4753,-1.6188,-1.6354,-1.6199,-1.5838,-1.5564,-1.5787,-1.6364,-1.6457,-1.6815,-1.7326,-1.7333,-1.7333,-1.7333,-1.7333,-1.7333,-1.7333,-1.7333,-1.7333,-1.7333,-1.7333,-1.7172,-1.6857,-1.6704,-1.6529,-1.6237,-1.76,-1.905,-2.0404,-2.2073,-2.3277,-2.4033,-2.2715,-2.2168,-2.25,-2.1973,-2.1748,-2.1875,-2.1797,-2.1582,-2.125,-2.0937,-2.035,-1.9416,-1.8634,0.0,0.0,0.0,0.0,0.0,0.0,0.0,0.0,0.0,-1.8195,-1.7224,0.0,-1.9862,0.0,-2.1124,-2.2615,-2.3318,-2.3691,0.0,0.0,-2.484,-2.4933,-2.5834,-2.6827,-2.7614,-2.8079,-2.9032,-2.9973,-3.0781,-3.1795,-3.2458,-3.2488,-3.1278,-3.0408,-3.0636,-3.1091,-3.1464,-3.1681,-3.2083,-3.2394,-3.3008,-3.3572,-3.4227,-3.5311,-3.5542,-3.6283,-3.8218,-3.8755,-3.9287,-4.0465,-4.0883,-4.0928,-4.0611,-4.0631,-4.0461,-4.0174,-4.0697,-4.118,-4.0736,-4.0631,-4.0527,-1.1122,-1.0952,-1.0769,-1.0647,-1.0586,-1.1197,-1.2351,-1.3837,-1.4473,-1.5487,-1.6894,-1.676,-1.6547,-1.6273,-1.6337,-1.6464,-1.6602,-1.6831,-1.7094,-1.7333,-1.7333,-1.7333,-1.7333,-1.7333,-1.7333,-1.7333,-1.7333,-1.7333,-1.734,-1.7472,-1.7457,-1.7289,-1.7282,-1.7033,-1.6639,-1.8042,-1.9519,-2.1071,-2.2207,-2.2891,-2.291,-2.2012,-2.1475,-2.1357,-2.1084,-2.0869,-2.0742,-2.0723,-2.0518,-2.0107,-2.034,-2.0033,-1.8931,-1.8753,-1.8304,0.0,0.0,0.0,0.0,0.0,0.0,0.0,0.0,0.0,0.0,0.0,-2.0866,-2.1186,-2.2904,-2.4219,-2.4716,-2.5181,-2.5647,-2.6134,-2.5968,-2.6103,-2.6806,-2.8136,-2.8958,-2.9247,-3.0433,-3.1667,-3.2689,-3.3355,-3.3857,-3.4181,-3.3541,-3.2641,-3.2184,-3.2788,-3.3452,-3.3712,-3.4161,-3.4659,-3.5101,-3.5421,-3.5956,-3.693,-3.7263,-3.789,-3.9609,-4.0032,-4.0274,-4.0772,-4.0919,-4.0736,-4.0187,-4.0056,-3.9939,-3.9795,-4.0109,-4.0383,-4.0122,-4.0069,-3.9952,-1.1106,-1.0923,-1.0761,-1.0603,-1.0481,-1.1702,-1.2817,-1.3933,-1.5082,-1.6131,-1.7177,-1.682,-1.6567,-1.6346,-1.6718,-1.6808,-1.6616,-1.706,-1.7325,-1.7333,-1.7333,-1.7333,-1.7333,-1.7333,-1.7333,-1.7333,-1.7333,-1.7333,-1.734,-1.7611,-1.7735,-1.7691,-1.7787,-1.7712,-1.7557,-1.8754,-2.0319,-2.2422,-2.2432,-2.2227,-2.1816,-2.1699,-2.1064,-1.9922,-2.0205,-2.0059,-1.9326,-1.9277,-1.9111,-1.876,-1.9246,-1.9137,-1.836,-1.8632,-1.8623,0.0,-1.8004,0.0,0.0,0.0,0.0,0.0,0.0,0.0,0.0,-2.1062,-2.2211,-2.3981,-2.5357,-2.6165,-2.6216,-2.6589,-2.6827,-2.6827,-2.69,-2.7025,-2.7589,-2.9268,-3.0482,-3.039,-3.2017,-3.3452,-3.4296,-3.4615,-3.5143,-3.5717,-3.6163,-3.5726,-3.435,-3.4946,-3.5779,-3.5968,-3.6595,-3.6907,-3.699,-3.705,-3.7428,-3.8515,-3.8819,-3.9498,-4.0398,-4.0824,-4.0906,-4.0448,-4.0318,-4.0135,-3.9599,-3.9481,-3.9468,-3.9337,-3.9351,-3.9416,-3.9468,-3.9481,-3.9468,-1.1033,-1.0745,-1.0708,-1.0672,-1.0643,-1.0895,-1.1482,-1.2422,-1.3174,-1.4797,-1.678,-1.6734,-1.6673,-1.6593,-1.6186,-1.6225,-1.6588,-1.6739,-1.6921,-1.7333,-1.7333,-1.7333,-1.7333,-1.7333,-1.7333,-1.7333,-1.7333,-1.7333,-1.7333,-1.7391,-1.7289,-1.704,-1.7834,-1.8369,-1.8821,0.0,0.0,0.0,-2.2002,-2.1797,-2.1348,-2.0654,-2.001,-1.9434,-1.9482,0.0,-1.9297,-1.9277,-1.9248,-1.918,-1.9321,0.0,0.0,0.0,0.0,0.0,0.0,0.0,0.0,0.0,0.0,0.0,-2.0462,-2.0462,-2.0483,-2.2221,-2.395,-2.5378,-2.6734,-2.7686,-2.8059,-2.8162,-2.8224,-2.8204,-2.8211,-2.8499,-2.8996,-3.0726,-3.2143,-3.242,-3.3456,-3.4227,-3.4536,-3.5294,-3.5631,-3.5248,-3.6355,-3.6777,-3.5631,-3.6191,-3.6764,-3.6788,-3.7394,-3.7748,-3.7772,-3.7738,-3.8116,-3.8792,-3.8755,-3.8863,-3.9686,-3.9881,-3.9952,-3.9756,-3.9769,-3.9573,-3.8998,-3.888,-3.8762,-3.8318,-3.8253,-3.8357,-3.8789,-3.888,-3.8749,-1.1013,0.0,-1.0692,-1.0643,0.0,-1.0566,-1.0728,-1.1196,-1.2837,-1.4918,-1.7134,-1.7141,-1.6981,-1.6687,-1.6393,-1.6307,-1.635,-1.635,-1.6629,-1.7091,-1.7091,-1.7179,-1.7333,-1.7333,-1.7333,-1.7333,-1.7333,-1.7333,-1.7333,-1.7333,-1.7245,-1.7084,-1.8078,-1.8701,-1.8977,-2.0376,-2.1522,-2.2197,-2.1992,-2.1777,-2.1543,-2.0908,-2.0244,-1.9629,0.0,0.0,0.0,0.0,0.0,0.0,0.0,0.0,0.0,0.0,0.0,-1.9991,-1.9867,-1.9934,-2.0379,-2.0638,-2.1073,-2.1745,-2.2418,-2.2615,-2.2159,-2.4022,-2.5678,-2.6775,-2.7738,-2.8452,-2.8897,-2.8949,-2.8866,-2.8618,-2.886,-2.9099,-2.9562,-3.1415,-3.2637,-3.25,-3.3846,-3.4953,-3.4953,-3.571,-3.6249,-3.635,-3.7282,-3.7977,-3.7419,-3.7706,-3.8209,-3.8609,-3.8602,-3.8692,-3.8781,-3.8718,-3.8827,-3.9282,-3.9187,-3.913,-3.9516,-3.9625,-3.952,-3.9259,-3.9168,-3.8972,-3.8449,-3.8305,-3.8214,-3.7991,-3.79,-3.7978,-3.8266,-3.8305,-3.824,-1.0988,-1.0696,-1.0692,-1.0607,-1.0481,-1.0481,-1.0502,-1.0792,0.0,0.0,0.0,-1.7377,-1.7208,-1.6714,-1.6653,-1.64,-1.6132,-1.6111,-1.6395,-1.6945,-1.6945,-1.7077,-1.7326,-1.7333,-1.7333,-1.7333,-1.7333,-1.7333,-1.7333,-1.7333,-1.7333,-1.7419,-1.8334,-1.8972,-1.9422,-2.106,-2.2155,-2.2532,-2.2207,-2.1924,-2.1768,-2.1338,-2.0703,-1.9824,-1.9805,-1.9639,-1.9307,-1.9277,-1.9121,-1.8779,-1.9256,-1.9324,-1.8968,-1.9705,-2.0173,-2.0192,-2.0462,-2.1031,-2.1869,-2.2004,-2.248,-2.3484,-2.4312,-2.4623,-2.426,-2.574,-2.7128,-2.8143,-2.852,-2.8988,-2.9565,-2.9403,-2.9247,-2.9053,-2.9473,-2.9851,-3.0159,-3.2172,-3.3392,-3.2605,-3.4209,-3.5501,-3.5489,-3.5828,-3.6453,-3.7367,-3.783,-3.8556,-3.8781,-3.8885,-3.9367,-3.9835,-3.9673,-3.9568,-3.9516,-3.9412,-3.9468,-3.9346,-3.9255,-3.9311,-3.9311,-3.9311,-3.9102,-3.8658,-3.8566,-3.8383,-3.8018,-3.7939,-3.7861,-3.7769,-3.7756,-3.7717,-3.7612,-3.7586,-3.7599,-1.0883,-1.0692,-1.0692,-1.068,-1.0655,-1.0655,-1.1176,-1.221,-1.3376,-1.4463,-1.5401,-1.6677,-1.7027,-1.6693,-1.6446,-1.6326,-1.6163,-1.6149,-1.6438,0.0,-1.7001,-1.7117,-1.7333,-1.7333,-1.7333,-1.7333,-1.7333,-1.7333,-1.7333,-1.7333,-1.7333,-1.7419,-1.8334,-1.9613,-2.1239,-2.2325,-2.2931,-2.3047,-2.2637,-2.207,-2.1348,-2.0889,-2.0254,-1.9434,-1.9394,-1.9355,-1.9287,-1.9287,-1.9258,-1.9199,-1.9258,-1.9561,-1.993,-2.0326,-2.0781,-2.1202,-2.146,-2.1849,-2.2366,-2.277,-2.3557,-2.4809,-2.5409,-2.5658,-2.5637,-2.6558,-2.7757,-2.9041,-2.9158,-2.9614,-3.0375,-2.988,-2.9737,-3.0446,-3.1099,-3.1677,-3.2523,-3.4096,-3.4984,-3.4774,-3.5208,-3.5525,-3.5456,-3.5518,-3.57,-3.59,-3.6691,-3.7317,-3.8278,-3.9051,-3.9498,-3.973,-3.9664,-3.9625,-3.9455,-3.9141,-3.8893,-3.8841,-3.8475,-3.8279,-3.8292,-3.8279,-3.8214,-3.8031,-3.8004,-3.7952,-3.7821,-3.79,-3.7612,-3.7246,-3.7129,-3.6985,-3.6593,-3.6462,-3.6554,-1.0863,-1.07,-1.0692,-1.0692,-1.0692,-1.0692,-1.1017,-1.1546,-1.2641,-1.4033,-1.5517,-1.6899,-1.7134,-1.6693,-1.6406,-1.6128,-1.5971,-1.5807,-1.6005,-1.6522,-1.6622,-1.6908,-1.7145,-1.7239,-1.7333,-1.7333,-1.7333,-1.7333,-1.7333,-1.7333,-1.7333,-1.7333,-1.8334,-1.9786,-2.1606,-2.2148,-2.2608,-2.3135,-2.2725,-2.2217,-2.1592,-2.1152,-2.0625,-2.0,-1.998,-1.998,-1.998,-1.998,-1.998,-1.998,-1.999,-2.0154,-2.0397,-2.0589,-2.0851,-2.1195,-2.1502,-2.186,-2.2313,-2.3309,-2.4188,-2.4819,-2.573,-2.6258,-2.6258,-2.6868,-2.7629,-2.855,-2.9017,-2.9738,-3.0777,-3.0624,-3.0976,-3.2006,-3.2349,-3.2747,-3.3585,-3.4786,-3.5336,-3.519,-3.5274,-3.5429,-3.5127,-3.509,-3.5102,-3.5152,-3.5843,-3.6749,-3.7415,-3.8119,-3.8789,-3.9024,-3.8893,-3.8697,-3.8684,-3.8475,-3.8292,-3.8279,-3.8083,-3.7913,-3.79,-3.7887,-3.7756,-3.7482,-3.7403,-3.726,-3.7037,-3.6933,-3.6776,-3.6645,-3.6515,-3.6358,-3.6149,-3.5887,-3.5887,-1.0822,-1.0692,-1.0692,-1.0692,-1.0692,-1.0692,-1.0692,-1.0798,-1.1878,-1.3383,-1.5108,-1.6611,-1.7048,-1.6707,-1.6466,-1.6155,-1.5704,-1.5538,-1.565,-1.6125,-1.6331,-1.6557,-1.6958,-1.7153,-1.7239,-1.7246,-1.7239,-1.7333,-1.7333,-1.7333,-1.7333,-1.7419,-1.8511,-1.9877,-2.1329,-2.1784,-2.2413,-2.3018,-2.2637,-2.2217,-2.1885,-2.1465,-2.1016,-2.0605,-2.0566,-2.0576,-2.0576,-2.0576,-2.0576,-2.0576,-2.0576,-2.0576,-2.0576,-2.0741,-2.0956,-2.1035,-2.1433,-2.19,-2.2572,-2.3794,-2.4623,-2.485,-2.5802,-2.6496,-2.6724,-2.7044,-2.7492,-2.8093,-2.8647,-2.9483,-3.0612,-3.1002,-3.1718,-3.2903,-3.3114,-3.3416,-3.4275,-3.5065,-3.5403,-3.5027,-3.519,-3.5177,-3.4839,-3.4613,-3.46,-3.4788,-3.5453,-3.607,-3.6432,-3.7053,-3.7573,-3.7952,-3.7965,-3.7978,-3.79,-3.7926,-3.7926,-3.79,-3.79,-3.7821,-3.7743,-3.7678,-3.7456,-3.6972,-3.6802,-3.6658,-3.6227,-3.6149,-3.6109,-3.5992,-3.5926,-3.5861,-3.5639,-3.5351,-3.5221,-1.0488,-1.0692,-1.0692,-1.0692,-1.0692,-1.0692,-1.0692,-1.0798,-1.1878,-1.2521,-1.3063,-1.5102,-1.6295,-1.6653,-1.6667,-1.6333,-1.5792,-1.5758,-1.5853,-1.6163,-1.6177,-1.6379,-1.6683,-1.6878,-1.7073,-1.7073,-1.7239,-1.7333,-1.7333,-1.7333,-1.7333,-1.7505,-1.9147,-2.0051,-2.0512,-2.205,-2.296,-2.3038,-2.2353,-2.1924,-2.1865,-2.1455,-2.1016,-2.0586,-2.0586,-2.0576,-2.0576,-2.0576,-2.0576,-2.0576,-2.0596,-2.0586,-2.0664,-2.0829,-2.1085,-2.1451,-2.1888,-2.2572,-2.365,-2.425,-2.4871,-2.5658,-2.5854,-2.633,-2.7076,-2.7231,-2.7631,-2.8398,-2.8253,-2.8978,-3.0492,-3.0544,-3.1292,-3.3018,-3.3155,-3.3671,-3.4984,-3.5449,-3.5516,-3.5491,-3.5027,-3.4776,-3.4638,-3.4274,-3.4173,-3.45,-3.4958,-3.5353,-3.5532,-3.5928,-3.6209,-3.6543,-3.7155,-3.7782,-3.7835,-3.79,-3.7861,-3.7874,-3.7887,-3.7639,-3.7273,-3.7063,-3.6894,-3.6371,-3.6201,-3.6136,-3.6044,-3.6083,-3.5861,-3.5469,-3.5325,-3.5221,-3.4737,-3.458,-3.462,-1.0476,-1.0692,-1.0692,-1.0692,-1.0692,-1.0692,-1.0692,-1.0802,-1.1232,-1.1769,-1.2507,-1.3992,-1.5,-1.5689,-1.6393,-1.6386,-1.5852,-1.5825,-1.5832,-1.5927,-1.6123,-1.6224,-1.6414,-1.6595,-1.6878,-1.6979,-1.7066,-1.7145,-1.7239,-1.7333,-1.7333,-1.7326,-1.8149,-1.8788,-1.9422,-2.0683,-2.1686,-2.2227,-2.2293,-2.2256,-2.2178,-2.1592,-2.1025,-2.0684,-2.1064,-2.1084,-2.0684,-2.1045,-2.123,-2.1006,-2.1201,-2.1348,-2.1338,-2.1193,-2.1252,-2.1735,-2.2099,-2.2656,-2.3197,-2.4052,-2.4809,-2.5461,-2.5989,-2.6568,-2.7274,-2.7272,-2.7726,-2.8571,-2.8981,-2.9926,-3.148,-3.1778,-3.2503,-3.3649,-3.3769,-3.3962,-3.4898,-3.5052,-3.5052,-3.5027,-3.4575,-3.4236,-3.4161,-3.3759,-3.3545,-3.3771,-3.4186,-3.4603,-3.4793,-3.5212,-3.567,-3.5898,-3.6389,-3.6869,-3.7299,-3.7717,-3.7691,-3.7482,-3.7364,-3.7155,-3.6658,-3.6475,-3.6279,-3.5717,-3.5639,-3.5456,-3.509,-3.5103,-3.4986,-3.4803,-3.4776,-3.4672,-3.4437,-3.4397,-3.4397,-1.0257,-1.0582,-1.0692,-1.0692,-1.0692,-1.0692,-1.0692,-1.0692,-1.0692,-1.1232,-1.1969,-1.2894,-1.3822,-1.4677,-1.6014,-1.6306,-1.5872,-1.5825,-1.5825,-1.5825,-1.6028,-1.6123,-1.6123,-1.64,-1.6595,-1.6791,-1.6979,-1.7066,-1.7239,-1.7333,-1.7333,-1.7333,-1.7606,-1.8064,-1.8788,-1.9695,-2.0692,-2.1658,-2.2015,-2.2244,-2.2337,-2.1904,-2.1377,-2.1035,-2.1543,-2.1572,-2.0986,-2.1553,-2.1738,-2.1435,-2.1621,-2.1768,-2.1855,-2.1465,-2.1484,-2.2168,-2.2585,-2.2968,-2.3134,-2.3998,-2.4736,-2.5223,-2.5958,-2.6579,-2.6982,-2.7179,-2.7715,-2.8631,-2.9635,-3.0705,-3.1944,-3.2472,-3.3096,-3.4034,-3.3884,-3.3909,-3.4412,-3.4512,-3.45,-3.4462,-3.4186,-3.3822,-3.3684,-3.347,-3.337,-3.333,-3.3631,-3.4033,-3.4145,-3.4599,-3.5092,-3.5405,-3.5509,-3.5973,-3.6658,-3.7024,-3.7129,-3.6972,-3.675,-3.6554,-3.6018,-3.59,-3.5678,-3.5195,-3.5103,-3.4986,-3.475,-3.4528,-3.4424,-3.441,-3.4397,-3.4397,-3.4397,-3.4397,-3.4397,-0.9816,-1.0366,-1.0582,-1.0692,-1.0692,-1.0692,-1.0692,-1.0692,-1.0692,-1.0802,-1.1013,-1.1959,-1.2805,-1.3534,-1.5332,-1.6126,-1.5852,-1.5825,-1.5825,-1.5825,-1.5832,-1.5825,-1.5832,-1.6123,-1.6224,-1.6319,-1.6697,-1.7066,-1.7239,-1.7333,-1.7333,-1.7333,-1.8149,-1.8696,-1.8864,-1.9588,-2.0674,-2.1398,-2.1397,-2.1635,-2.233,-2.2451,-2.2227,-2.1846,-2.1885,-2.1894,-2.1807,-2.1855,-2.1885,-2.1865,-2.1562,-2.1514,-2.1826,-2.1523,-2.1762,-2.273,-2.3358,-2.3836,-2.3998,-2.4327,-2.465,-2.5202,-2.5637,-2.6113,-2.663,-2.6982,-2.7662,-2.8631,-2.9532,-3.0476,-3.1419,-3.1862,-3.2288,-3.3133,-3.3194,-3.342,-3.3872,-3.3947,-3.3947,-3.3935,-3.3872,-3.3646,-3.3232,-3.3571,-3.3483,-3.3206,-3.3205,-3.3328,-3.3696,-3.3781,-3.4003,-3.4458,-3.494,-3.5508,-3.6005,-3.641,-3.6358,-3.6175,-3.6123,-3.5966,-3.5613,-3.5273,-3.4946,-3.4711,-3.4633,-3.4554,-3.4437,-3.4384,-3.4371,-3.4332,-3.428,-3.428,-3.4005,-3.4267,-3.4214,-0.971,-1.0257,-1.0366,-1.0582,-1.0692,-1.0692,-1.0692,-1.0692,-1.0692,-1.0692,-1.0887,-1.1747,-1.2169,-1.2412,-1.4295,-1.5422,-1.5743,-1.5825,-1.5825,-1.5825,-1.5825,-1.5825,-1.5825,-1.5927,-1.6028,-1.6224,-1.6414,-1.669,-1.7059,-1.7239,-1.7333,-1.7326,-1.7598,-1.778,-1.7819,-1.8776,-1.9577,-2.0053,-2.0896,-2.1689,-2.2133,-2.2627,-2.2715,-2.2334,-2.2549,-2.2432,-2.1904,-2.2393,-2.2578,-2.2305,-2.2373,-2.2529,-2.2646,-2.2539,-2.2451,-2.2624,-2.3256,-2.3677,-2.3937,-2.4196,-2.4574,-2.5093,-2.5368,-2.5792,-2.6413,-2.6827,-2.7389,-2.8451,-2.8991,-2.9624,-3.0711,-3.1801,-3.2711,-3.2995,-3.3081,-3.3144,-3.3294,-3.337,-3.337,-3.337,-3.3382,-3.3269,-3.3194,-3.3244,-3.3282,-3.3131,-3.3081,-3.3154,-3.324,-3.3313,-3.3484,-3.3751,-3.4075,-3.4353,-3.4764,-3.5631,-3.6031,-3.573,-3.5534,-3.5286,-3.4972,-3.4829,-3.4567,-3.4567,-3.4424,-3.4345,-3.4332,-3.4267,-3.4241,-3.3901,-3.3875,-3.3718,-3.3378,-3.3561,-3.347,-0.9596,-1.0036,-1.0257,-1.0366,-1.0574,-1.0631,-1.0607,-1.0599,-1.0546,-1.0521,-1.0708,-1.1128,-1.1485,-1.1806,-1.2957,-1.4234,-1.5274,-1.5635,-1.5825,-1.5825,-1.5825,-1.5825,-1.5825,-1.5825,-1.5927,-1.6123,-1.6218,-1.6595,-1.6979,-1.7246,-1.7333,-1.7333,-1.7333,-1.7165,-1.7128,-1.7789,-1.8319,-1.8899,-2.0149,-2.1016,-2.1492,-2.2262,-2.2607,-2.2402,-2.2588,-2.2559,-2.2109,-2.2764,-2.2949,-2.2617,-2.2783,-2.2939,-2.2949,-2.3066,-2.3018,-2.2793,-2.3248,-2.359,-2.3677,-2.4024,-2.4426,-2.481,-2.5073,-2.5533,-2.6082,-2.6392,-2.7075,-2.7886,-2.8566,-2.9084,-3.026,-3.1625,-3.2624,-3.2711,-3.2896,-3.3081,-3.3081,-3.3093,-3.3093,-3.3106,-3.3119,-3.3093,-3.3081,-3.3081,-3.3093,-3.3081,-3.3081,-3.3068,-3.3154,-3.324,-3.3227,-3.3484,-3.3654,-3.3874,-3.4146,-3.4834,-3.5266,-3.5116,-3.5077,-3.4776,-3.462,-3.4463,-3.4397,-3.4397,-3.4358,-3.4293,-3.4228,-3.4149,-3.3849,-3.3417,-3.3287,-3.3182,-3.2947,-3.2777,-3.279,-0.9379,-0.9489,-1.004,-1.0245,-1.0319,-1.0409,-1.044,-1.0408,-1.0266,-1.0217,-1.0334,-1.0285,-1.0703,-1.1231,-1.1601,-1.2563,-1.4033,-1.5057,-1.5635,-1.5832,-1.5825,-1.5825,-1.5825,-1.5825,-1.5825,-1.5832,-1.6305,-1.6683,-1.6979,-1.7153,-1.7239,-1.7333,-1.7296,-1.7099,-1.6926,-1.7002,-1.7295,-1.8032,-1.8887,-1.9742,-2.0568,-2.1582,-2.1973,-2.1894,-2.1953,-2.2109,-2.2402,-2.2852,-2.2881,-2.2529,-2.2529,-2.2519,-2.2617,-2.293,-2.3125,-2.3096,-2.3309,-2.3493,-2.359,-2.3937,-2.4206,-2.4405,-2.479,-2.5213,-2.5461,-2.602,-2.6557,-2.6867,-2.7925,-2.9028,-2.9829,-3.0968,-3.1713,-3.1713,-3.2624,-3.3081,-3.3081,-3.3081,-3.3081,-3.3081,-3.3081,-3.3081,-3.3081,-3.3081,-3.3081,-3.3081,-3.3081,-3.3167,-3.324,-3.3326,-3.3484,-3.3556,-3.3641,-3.3641,-3.3823,-3.3933,-3.4199,-3.4379,-3.4541,-3.4463,-3.4489,-3.4397,-3.4397,-3.4384,-3.4175,-3.4084,-3.3613,-3.3522,-3.326,-3.2921,-3.2803,-3.2607,-3.2346,-3.2176,-3.2333,-0.9158,-0.9379,-0.9596,-0.9855,-1.0074,-1.0122,-1.015,-1.0249,-1.018,-1.016,-1.016,-1.016,-1.0265,-1.0522,-1.1089,-1.1671,-1.2252,-1.3216,-1.4376,-1.5635,-1.5825,-1.5825,-1.5825,-1.5825,-1.5825,-1.5825,-1.6116,-1.6501,-1.6683,-1.6965,-1.7153,-1.7203,-1.7106,-1.6835,-1.6535,-1.6588,-1.6949,-1.7888,-1.8693,-1.9561,-2.0533,-2.1399,-2.1738,-2.1504,-2.1719,-2.1826,-2.1689,-2.2324,-2.248,-2.21,-2.2363,-2.251,-2.2578,-2.291,-2.3135,-2.3144,-2.3135,-2.3406,-2.3667,-2.3851,-2.411,-2.4313,-2.4609,-2.4912,-2.5181,-2.5482,-2.5813,-2.6163,-2.7393,-2.8222,-2.8082,-2.9523,-3.1033,-3.2438,-3.2896,-3.3068,-3.3081,-3.3081,-3.3081,-3.3081,-3.3081,-3.3081,-3.3081,-3.3081,-3.3081,-3.3081,-3.3081,-3.3167,-3.3167,-3.324,-3.324,-3.3326,-3.3398,-3.3569,-3.3654,-3.3823,-3.4076,-3.423,-3.4314,-3.4397,-3.4397,-3.4397,-3.4397,-3.4214,-3.4018,-3.3652,-3.3182,-3.2881,-3.2659,-3.2372,-3.2163,-3.1901,-3.1614,-3.1614,-3.1784,-0.9051,-0.9268,-0.9379,-0.9541,-0.9745,-0.9858,-0.9945,-1.004,-1.0018,-0.9965,-0.9961,-0.9961,-0.99,-0.9907,-1.0488,-1.0906,-1.1277,-1.2242,-1.3601,-1.5064,-1.5255,-1.5445,-1.573,-1.5825,-1.5825,-1.5832,-1.6028,-1.6319,-1.6494,-1.6671,-1.6886,-1.6921,-1.6835,-1.6513,-1.6235,-1.6184,-1.6591,-1.7097,-1.7788,-1.8624,-1.9574,-2.0453,-2.0938,-2.0985,-2.126,-2.125,-2.1055,-2.167,-2.1914,-2.1758,-2.2041,-2.2334,-2.251,-2.2764,-2.2969,-2.3115,-2.3144,-2.3232,-2.3493,-2.3667,-2.3841,-2.4186,-2.4368,-2.4578,-2.4867,-2.5078,-2.5378,-2.5716,-2.6573,-2.7185,-2.7457,-2.8578,-3.0467,-3.2326,-3.245,-3.2711,-3.2982,-3.3081,-3.3081,-3.3081,-3.3081,-3.3081,-3.3081,-3.3081,-3.3081,-3.3081,-3.3081,-3.3081,-3.3081,-3.3081,-3.3081,-3.3167,-3.324,-3.3326,-3.3484,-3.3654,-3.3992,-3.4147,-3.423,-3.4314,-3.4397,-3.4384,-3.4371,-3.3901,-3.3613,-3.3038,-3.2568,-3.2424,-3.2228,-3.1901,-3.1588,-3.1405,-3.1235,-3.1169,-3.1274,-0.8826,-0.8826,-0.9147,-0.935,-0.9406,-0.9557,-0.9615,-0.9672,-0.9601,-0.9565,-0.9557,-0.9681,-0.9657,-0.9636,-0.9751,-1.0224,-1.1082,-1.1853,-1.2926,-1.3902,-1.4292,-1.4675,-1.5635,-1.5825,-1.5825,-1.5832,-1.6028,-1.6204,-1.6135,-1.6394,-1.6493,-1.645,-1.6328,-1.6221,-1.5908,-1.5913,-1.5815,-1.5967,-1.6582,-1.7465,-1.8318,-1.9091,-1.991,-2.0605,-2.0644,-2.0654,-2.0713,-2.1035,-2.125,-2.1289,-2.166,-2.2002,-2.2324,-2.2451,-2.2646,-2.2939,-2.3047,-2.3037,-2.3153,-2.3308,-2.3531,-2.3841,-2.4024,-2.4292,-2.4557,-2.4836,-2.5042,-2.5202,-2.5853,-2.652,-2.7475,-2.8221,-2.9445,-3.0949,-3.1608,-3.2117,-3.2907,-3.2943,-3.288,-3.3006,-3.3068,-3.3056,-3.3043,-3.3081,-3.3081,-3.3081,-3.3081,-3.3081,-3.3081,-3.3081,-3.3081,-3.3167,-3.3154,-3.324,-3.3398,-3.3484,-3.3823,-3.4076,-3.4217,-3.4288,-3.4293,-3.4241,-3.3862,-3.3417,-3.3051,-3.2463,-3.2045,-3.1875,-3.1679,-3.1378,-3.1156,-3.1013,-3.0986,-3.0986,-3.0986,-0.7598,-0.77,-0.8487,-0.8988,-0.9154,-0.9075,-0.9046,-0.9222,-0.9334,-0.9331,-0.9331,-0.9529,-0.9624,-0.9624,-0.9624,-0.9821,-1.0113,-1.0404,-1.1473,-1.2926,-1.3119,-1.4184,-1.5534,-1.5825,-1.5825,-1.5825,-1.5893,-1.5913,-1.591,-1.5971,-1.5917,-1.5873,-1.5841,-1.5734,-1.5727,-1.5595,-1.5845,-1.6402,-1.7196,-1.7997,-1.8886,-1.9687,-2.0323,-2.0566,-2.0576,-2.0576,-2.0576,-2.0664,-2.0918,-2.1221,-2.1328,-2.1445,-2.1621,-2.1885,-2.2119,-2.2256,-2.2275,-2.2457,-2.2873,-2.3028,-2.3252,-2.3724,-2.379,-2.4013,-2.4292,-2.4395,-2.4563,-2.4885,-2.5709,-2.6301,-2.6296,-2.7074,-2.7954,-2.8573,-3.0477,-3.1967,-3.2197,-3.2102,-3.2114,-3.2855,-3.2654,-3.2654,-3.2855,-3.3018,-3.3031,-3.3031,-3.3068,-3.3031,-3.2993,-3.298,-3.293,-3.3018,-3.3129,-3.3227,-3.3326,-3.3398,-3.3654,-3.3992,-3.4134,-3.4152,-3.4066,-3.394,-3.326,-3.2529,-3.2346,-3.1875,-3.1509,-3.1235,-3.1026,-3.0999,-3.0999,-3.0986,-3.0986,-3.0986,-3.0986,-0.6565,-0.7103,-0.7678,-0.8288,-0.8796,-0.8777,-0.8776,-0.8947,-0.9111,-0.9137,-0.9236,-0.9529,-0.9624,-0.9624,-0.9624,-0.9624,-0.9628,-1.0113,-1.0984,-1.1935,-1.2427,-1.3784,-1.5311,-1.5825,-1.5825,-1.5805,-1.5698,-1.5651,-1.5562,-1.554,-1.5397,-1.5374,-1.5254,-1.5191,-1.517,-1.5288,-1.5499,-1.6057,-1.6624,-1.744,-1.8727,-1.9204,-2.0001,-2.0333,-2.0576,-2.0576,-2.0576,-2.0576,-2.0703,-2.0898,-2.0967,-2.1035,-2.123,-2.1465,-2.1689,-2.1846,-2.1894,-2.2095,-2.2355,-2.2508,-2.27,-2.3108,-2.3258,-2.3569,-2.3791,-2.3988,-2.4292,-2.4506,-2.5295,-2.5517,-2.5606,-2.6494,-2.738,-2.8172,-2.975,-3.1091,-3.1314,-3.1021,-3.1369,-3.1993,-3.2114,-3.1964,-3.2353,-3.2566,-3.2692,-3.2767,-3.2943,-3.2855,-3.2742,-3.2742,-3.2654,-3.2591,-3.2491,-3.2462,-3.2508,-3.2592,-3.281,-3.3219,-3.3498,-3.3632,-3.3662,-3.3456,-3.2751,-3.2032,-3.1705,-3.1418,-3.1169,-3.0986,-3.0986,-3.0986,-3.0986,-3.0986,-3.0986,-3.0986,-3.0986,-0.5629,-0.6579,-0.6777,-0.7413,-0.8249,-0.8518,-0.8649,-0.8747,-0.9007,-0.9137,-0.9232,-0.943,-0.9628,-0.9624,-0.9624,-0.9624,-0.9628,-1.0306,-1.0854,-1.1463,-1.2125,-1.3514,-1.4848,-1.5243,-1.5444,-1.5524,-1.5451,-1.5324,-1.5234,-1.5028,-1.4904,-1.4795,-1.4718,-1.4685,-1.479,-1.4922,-1.509,-1.5242,-1.5658,-1.6632,-1.7925,-1.8479,-1.9283,-2.0411,-2.0576,-2.0576,-2.0576,-2.0576,-2.0596,-2.0576,-2.0576,-2.0791,-2.1103,-2.1162,-2.1318,-2.1572,-2.1621,-2.167,-2.1807,-2.1816,-2.1948,-2.2261,-2.2641,-2.2874,-2.3112,-2.3628,-2.3978,-2.4043,-2.4337,-2.4757,-2.5222,-2.6354,-2.7197,-2.78,-2.8655,-2.9294,-2.9808,-3.0048,-3.0416,-3.1198,-3.1386,-3.1323,-3.1499,-3.1775,-3.2139,-3.2152,-3.2353,-3.2328,-3.2215,-3.2152,-3.1976,-3.1763,-3.165,-3.1512,-3.1593,-3.1688,-3.2008,-3.2235,-3.251,-3.267,-3.2813,-3.2619,-3.2072,-3.1666,-3.1392,-3.1222,-3.1078,-3.0986,-3.0986,-3.0986,-3.0986,-3.0986,-3.0986,-3.0986,-3.0986,-0.4042,-0.4353,-0.6061,-0.6908,-0.7273,-0.7899,-0.8261,-0.8452,-0.87,-0.8928,-0.9031,-0.943,-0.9624,-0.9624,-0.9624,-0.9624,-0.9624,-0.9998,-1.0232,-1.112,-1.2031,-1.2554,-1.3246,-1.367,-1.4507,-1.4871,-1.511,-1.495,-1.4723,-1.469,-1.4495,-1.4365,-1.4389,-1.4482,-1.4482,-1.4657,-1.4817,-1.4908,-1.5658,-1.655,-1.7594,-1.8487,-1.9292,-2.0411,-2.0566,-2.0576,-2.0576,-2.0576,-2.0576,-2.0576,-2.0576,-2.0644,-2.0732,-2.0752,-2.082,-2.0898,-2.0928,-2.1035,-2.1289,-2.1387,-2.1523,-2.1869,-2.1997,-2.2188,-2.2456,-2.2992,-2.3476,-2.3737,-2.4152,-2.4464,-2.4736,-2.5605,-2.625,-2.6678,-2.7183,-2.7976,-2.8706,-2.9432,-3.0201,-3.0941,-3.1009,-3.0934,-3.1286,-3.1386,-3.1562,-3.1587,-3.165,-3.1687,-3.1637,-3.1574,-3.1361,-3.111,-3.106,-3.0984,-3.1065,-3.1145,-3.1305,-3.1465,-3.1641,-3.1863,-3.1993,-3.1993,-3.1615,-3.1289,-3.1104,-3.0999,-3.0986,-3.0986,-3.0986,-3.0986,-3.0947,-3.0869,-3.083,-3.0882,-3.0751,-0.2908,-0.3523,-0.4612,-0.5641,-0.6597,-0.7098,-0.7582,-0.8136,-0.8475,-0.8726,-0.8825,-0.9229,-0.943,-0.9624,-0.9624,-0.9624,-0.96,-0.9531,-0.9736,-1.0174,-1.0688,-1.0876,-1.1408,-1.2143,-1.3129,-1.4231,-1.4632,-1.4656,-1.4536,-1.4382,-1.4235,-1.4102,-1.4243,-1.4243,-1.4321,-1.4489,-1.465,-1.4817,-1.5409,-1.6221,-1.718,-1.7755,-1.8807,-1.9854,-2.0333,-2.0576,-2.0576,-2.0576,-2.0576,-2.0576,-2.0576,-2.0576,-2.0576,-2.0576,-2.0576,-2.0576,-2.0576,-2.0654,-2.0879,-2.0937,-2.1016,-2.1269,-2.1455,-2.1644,-2.1833,-2.2304,-2.2679,-2.3049,-2.351,-2.4101,-2.4509,-2.4786,-2.5263,-2.583,-2.6235,-2.6905,-2.7799,-2.8633,-2.9526,-3.0311,-3.0382,-3.0382,-3.057,-3.0871,-3.1009,-3.1047,-3.1399,-3.1424,-3.1097,-3.0997,-3.0783,-3.0608,-3.0557,-3.0532,-3.0599,-3.0653,-3.0669,-3.0775,-3.0894,-3.1074,-3.119,-3.1215,-3.1174,-3.1055,-3.0999,-3.0986,-3.0986,-3.0986,-3.0921,-3.0895,-3.0817,-3.0686,-3.049,-3.0255,-3.0085,-0.212,-0.3022,-0.3123,-0.4227,-0.5834,-0.6034,-0.6739,-0.7643,-0.8031,-0.8329,-0.8726,-0.9034,-0.9331,-0.9529,-0.9624,-0.9616,-0.9543,-0.9445,-0.9536,-0.9374,-0.9259,-0.9569,-1.0098,-1.0896,-1.1899,-1.3231,-1.4038,-1.4349,-1.4369,-1.4235,-1.4128,-1.4088,-1.4088,-1.4166,-1.4166,-1.4243,-1.4405,-1.4573,-1.4908,-1.5567,-1.6453,-1.678,-1.7683,-1.9213,-2.0167,-2.0566,-2.0576,-2.0576,-2.0576,-2.0576,-2.0576,-2.0576,-2.0576,-2.0576,-2.0576,-2.0576,-2.0576,-2.0605,-2.0635,-2.0625,-2.0625,-2.0586,-2.0898,-2.1113,-2.1301,-2.1737,-2.2128,-2.2399,-2.2897,-2.3604,-2.4279,-2.4608,-2.5072,-2.563,-2.5986,-2.6577,-2.7232,-2.8131,-2.9101,-2.944,-2.9824,-3.0055,-3.0093,-3.0281,-3.0394,-3.0557,-3.0922,-3.1072,-3.0721,-3.0482,-3.0306,-3.0206,-3.0181,-3.0181,-3.0181,-3.0272,-3.0262,-3.0303,-3.0318,-3.042,-3.052,-3.0556,-3.0644,-3.0963,-3.0986,-3.0921,-3.0803,-3.0686,-3.066,-3.0712,-3.0464,-3.0111,-2.9823,-2.9575,-2.947,-0.1718,-0.1919,-0.2822,-0.3423,-0.3825,-0.4724,-0.5729,-0.6637,-0.7033,-0.7627,-0.8432,-0.8935,-0.9133,-0.9324,-0.9529,-0.9543,-0.9417,-0.9311,-0.9177,-0.8982,-0.8824,-0.9016,-0.916,-0.9901,-1.0789,-1.1927,-1.3145,-1.394,-1.4182,-1.4108,-1.4088,-1.4088,-1.4088,-1.4088,-1.4088,-1.4173,-1.425,-1.4328,-1.4489,-1.5137,-1.5876,-1.646,-1.7277,-1.9054,-1.9923,-2.0489,-2.0576,-2.0576,-2.0576,-2.0576,-2.0576,-2.0576,-2.0576,-2.0576,-2.0576,-2.0576,-2.0576,-2.0576,-2.0576,-2.0576,-2.0576,-2.0586,-2.0674,-2.0703,-2.0889,-2.1303,-2.163,-2.1879,-2.2331,-2.3,-2.3584,-2.42,-2.5035,-2.5799,-2.6662,-2.7636,-2.8036,-2.8597,-2.8978,-2.8851,-2.9303,-2.9792,-2.988,-2.9942,-3.0043,-3.0143,-3.0294,-3.0419,-3.0231,-3.0068,-2.9967,-2.9892,-2.9854,-2.9854,-2.9854,-2.9892,-2.9945,-2.9856,-2.9884,-2.9961,-2.9998,-2.998,-3.0103,-3.0355,-3.0607,-3.0581,-3.0477,-3.032,-3.0137,-3.0006,-2.9719,-2.9431,-2.9261,-2.9104,-2.9091,-0.1617,-0.1617,-0.212,-0.2722,-0.3224,-0.3725,-0.4626,-0.5629,-0.6331,-0.693,-0.763,-0.8428,-0.8784,-0.8928,-0.9198,-0.9292,-0.9242,-0.9104,-0.8978,-0.8816,-0.8731,-0.8653,-0.8744,-0.9515,-1.0033,-1.0814,-1.1935,-1.3222,-1.4004,-1.4088,-1.4088,-1.4088,-1.4088,-1.4088,-1.4088,-1.4088,-1.4166,-1.4237,-1.4398,-1.4643,-1.5387,-1.5982,-1.7196,-1.8318,-1.945,-2.0089,-2.0566,-2.0576,-2.0576,-2.0576,-2.0576,-2.0576,-2.0576,-2.0576,-2.0576,-2.0576,-2.0576,-2.0576,-2.0576,-2.0576,-2.0576,-2.0576,-2.0576,-2.0576,-2.0683,-2.0928,-2.1204,-2.16,-2.191,-2.2463,-2.3135,-2.373,-2.4324,-2.4984,-2.5783,-2.6393,-2.7065,-2.7846,-2.8095,-2.8204,-2.8987,-2.9499,-2.9779,-2.9817,-2.9792,-2.9779,-2.9779,-2.9779,-2.9779,-2.9779,-2.9779,-2.9679,-2.9654,-2.9603,-2.9566,-2.9515,-2.9453,-2.9377,-2.9403,-2.9404,-2.9327,-2.9218,-2.9361,-2.9632,-2.9822,-2.9868,-2.9915,-2.968,-2.9483,-2.9274,-2.9039,-2.883,-2.8739,-2.866,-2.8608,-0.1617,-0.1617,-0.1617,-0.212,-0.2822,-0.2924,-0.3525,-0.4526,-0.5629,-0.6331,-0.683,-0.7822,-0.8448,-0.8519,-0.873,-0.8922,-0.8946,-0.8798,-0.8729,-0.8739,-0.8649,-0.8572,-0.8828,-0.9257,-0.9772,-1.012,-1.0722,-1.2009,-1.3392,-1.3737,-1.3913,-1.4082,-1.4088,-1.4088,-1.4088,-1.4088,-1.4243,-1.4321,-1.4314,-1.4482,-1.4901,-1.5809,-1.6706,-1.7504,-1.8487,-1.9371,-1.9766,-2.0089,-2.0245,-2.0323,-2.0489,-2.0576,-2.0576,-2.0576,-2.0576,-2.0576,-2.0576,-2.0576,-2.0576,-2.0576,-2.0576,-2.0576,-2.0576,-2.0576,-2.0576,-2.0703,-2.0879,-2.1323,-2.1501,-2.184,-2.2463,-2.2807,-2.3262,-2.3822,-2.4066,-2.4367,-2.5452,-2.6355,-2.7215,-2.7699,-2.8676,-2.926,-2.9526,-2.9779,-2.9779,-2.9779,-2.9779,-2.9779,-2.9779,-2.9779,-2.9741,-2.9578,-2.9478,-2.939,-2.9277,-2.9114,-2.8976,-2.88,-2.8762,-2.8774,-2.8558,-2.8375,-2.8579,-2.8756,-2.8627,-2.8672,-2.8807,-2.9039,-2.8856,-2.8647,-2.8412,-2.8255,-2.8177,-2.814,-2.8048,-0.1617,-0.1617,-0.1616,-0.1718,-0.1818,-0.1817,-0.242,-0.342,-0.4522,-0.5527,-0.6415,-0.772,-0.8234,-0.8272,-0.8408,-0.8459,-0.8524,-0.8548,-0.8551,-0.8545,-0.8589,-0.8572,-0.8568,-0.8652,-0.9257,-0.9602,-0.9946,-1.1154,-1.2443,-1.279,-1.3307,-1.3828,-1.4004,-1.4088,-1.4088,-1.4088,-1.4088,-1.4166,-1.4166,-1.4334,-1.4741,-1.5733,-1.6378,-1.6944,-1.7594,-1.8318,-1.8718,-1.9213,-1.9608,-1.9618,-2.0245,-2.0566,-2.0576,-2.0576,-2.0576,-2.0576,-2.0576,-2.0576,-2.0576,-2.0576,-2.0576,-2.0576,-2.0576,-2.0576,-2.0576,-2.0576,-2.0683,-2.0673,-2.082,-2.1174,-2.168,-2.184,-2.2291,-2.2946,-2.3583,-2.3966,-2.4692,-2.534,-2.6158,-2.6847,-2.7712,-2.8684,-2.9249,-2.9539,-2.9779,-2.9779,-2.9767,-2.9704,-2.9616,-2.9478,-2.9377,-2.9139,-2.9026,-2.895,-2.8888,-2.8737,-2.8499,-2.826,-2.8185,-2.8122,-2.7855,-2.7721,-2.7716,-2.7755,-2.7626,-2.7769,-2.8222,-2.833,-2.8216,-2.8085,-2.7954,-2.7798,-2.7641,-2.759,-2.7656,-0.1601,-0.1615,-0.1598,-0.1601,-0.1613,-0.1599,-0.1889,-0.2487,-0.3409,-0.4499,-0.5548,-0.6625,-0.7395,-0.7768,-0.7956,-0.8031,-0.815,-0.8236,-0.8375,-0.8404,-0.848,-0.8572,-0.8572,-0.8568,-0.8911,-0.9087,-0.9257,-0.9772,-1.1063,-1.2186,-1.2966,-1.3307,-1.3828,-1.4088,-1.4088,-1.4088,-1.4088,-1.4088,-1.4088,-1.4173,-1.4496,-1.4985,-1.5636,-1.6288,-1.6788,-1.7359,-1.8006,-1.8816,-1.9292,-1.946,-2.0089,-2.0566,-2.0576,-2.0576,-2.0576,-2.0576,-2.0576,-2.0576,-2.0576,-2.0576,-2.0576,-2.0576,-2.0576,-2.0576,-2.0576,-2.0576,-2.0576,-2.0576,-2.0731,-2.0927,-2.1134,-2.132,-2.188,-2.2455,-2.2893,-2.3412,-2.3952,-2.4681,-2.536,-2.6054,-2.6733,-2.7604,-2.8286,-2.8512,-2.8875,-2.9227,-2.9076,-2.8875,-2.8787,-2.8662,-2.8586,-2.8511,-2.8448,-2.8411,-2.8386,-2.8285,-2.8009,-2.7783,-2.7632,-2.7507,-2.7226,-2.7069,-2.7151,-2.7158,-2.7074,-2.7349,-2.7725,-2.778,-2.7728,-2.7572,-2.7469,-2.7523,-2.759,-2.7656,-2.7908,-0.1377,-0.1591,-0.1569,-0.1574,-0.1592,-0.1569,-0.156,-0.1757,-0.2763,-0.364,-0.4568,-0.5593,-0.6617,-0.7191,-0.7327,-0.762,-0.7952,-0.8028,-0.8204,-0.8296,-0.8476,-0.8568,-0.8572,-0.8568,-0.8568,-0.8572,-0.8744,-0.9087,-0.9859,-1.0982,-1.2015,-1.2705,-1.3743,-1.4004,-1.4088,-1.4088,-1.4088,-1.4088,-1.4088,-1.4166,-1.4243,-1.4405,-1.4894,-1.547,-1.5966,-1.6378,-1.7269,-1.8006,-1.8407,-1.8718,-1.9608,-2.0167,-2.0177,-2.0411,-2.0566,-2.0576,-2.0576,-2.0576,-2.0576,-2.0576,-2.0576,-2.0576,-2.0576,-2.0576,-2.0576,-2.0576,-2.0576,-2.0576,-2.0731,-2.0819,-2.0829,-2.0994,-2.1286,-2.1706,-2.1994,-2.2583,-2.3079,-2.3547,-2.4018,-2.4536,-2.5273,-2.6222,-2.6833,-2.7212,-2.7692,-2.8424,-2.8436,-2.8134,-2.8059,-2.8034,-2.7984,-2.7971,-2.7896,-2.7795,-2.7595,-2.7544,-2.7356,-2.7318,-2.718,-2.703,-2.6836,-2.6697,-2.6754,-2.6653,-2.6658,-2.679,-2.7122,-2.7237,-2.7335,-2.7403,-2.7523,-2.7643,-2.7709,-2.7842,-2.8338,-0.0861,-0.1532,-0.153,-0.153,-0.1535,-0.1531,-0.1529,-0.1625,-0.2582,-0.306,-0.361,-0.4955,-0.5836,-0.613,-0.6761,-0.7319,-0.7764,-0.7856,-0.812,-0.8388,-0.8572,-0.8568,-0.8572,-0.8572,-0.8572,-0.8572,-0.8572,-0.8656,-0.8999,-0.9946,-1.1241,-1.2534,-1.3313,-1.3828,-1.4088,-1.4088,-1.4088,-1.4088,-1.4088,-1.4159,-1.4321,-1.4398,-1.4566,-1.4734,-1.4901,-1.4985,-1.5325,-1.6386,-1.7033,-1.7261,-1.8638,-1.9529,-1.9696,-2.0089,-2.0333,-2.0566,-2.0576,-2.0576,-2.0576,-2.0576,-2.0576,-2.0576,-2.0576,-2.0576,-2.0576,-2.0576,-2.0576,-2.0576,-2.0654,-2.0654,-2.0654,-2.0722,-2.0964,-2.1081,-2.1403,-2.1671,-2.198,-2.2164,-2.2637,-2.3025,-2.3891,-2.5001,-2.5828,-2.6322,-2.7086,-2.7826,-2.7883,-2.7595,-2.7695,-2.7682,-2.757,-2.7494,-2.7369,-2.7143,-2.6728,-2.6666,-2.6829,-2.6866,-2.6779,-2.6678,-2.6609,-2.6521,-2.6521,-2.6521,-2.6589,-2.6589,-2.6602,-2.693,-2.7134,-2.7403,-2.7523,-2.759,-2.8208,-2.8648,-2.9282,-0.0278,-0.0827,-0.1286,-0.1492,-0.1524,-0.1506,-0.1498,-0.1595,-0.1989,-0.2457,-0.3081,-0.4346,-0.5029,-0.5153,-0.5841,-0.6343,-0.6697,-0.7411,-0.7768,-0.812,-0.8296,-0.8476,-0.8568,-0.8568,-0.8572,-0.8572,-0.8572,-0.8572,-0.8744,-0.9432,-1.0028,-1.1235,-1.2534,-1.3483,-1.3828,-1.4082,-1.4088,-1.4088,-1.4088,-1.4166,-1.4166,-1.4243,-1.4321,-1.4482,-1.4482,-1.4741,-1.5166,-1.5982,-1.6378,-1.6944,-1.7917,-1.8576,-1.9222,-1.9696,-2.0089,-2.0489,-2.0576,-2.0576,-2.0576,-2.0576,-2.0576,-2.0576,-2.0576,-2.0576,-2.0576,-2.0576,-2.0576,-2.0576,-2.0576,-2.0576,-2.0566,-2.0644,-2.0722,-2.0731,-2.0896,-2.1051,-2.1282,-2.1502,-2.1873,-2.2563,-2.3172,-2.396,-2.4763,-2.5468,-2.6439,-2.7276,-2.7172,-2.713,-2.7243,-2.7281,-2.7155,-2.7067,-2.6967,-2.6892,-2.6584,-2.6521,-2.6521,-2.6521,-2.6521,-2.6521,-2.6521,-2.6521,-2.6521,-2.6521,-2.6521,-2.6521,-2.6658,-2.6782,-2.6985,-2.7255,-2.7403,-2.7469,-2.8274,-2.9407,-3.0025,0.0454,-0.0449,-0.0897,-0.1277,-0.1494,-0.1476,-0.1467,-0.1471,-0.1488,-0.1767,-0.2565,-0.3565,-0.3993,-0.4123,-0.4825,-0.5628,-0.6074,-0.6697,-0.7323,-0.7764,-0.8116,-0.8296,-0.8388,-0.8476,-0.8476,-0.8568,-0.8572,-0.8572,-0.8656,-0.9262,-0.9685,-1.0376,-1.1408,-1.2619,-1.3483,-1.3997,-1.4088,-1.4088,-1.4088,-1.4088,-1.4088,-1.4082,-1.4166,-1.4321,-1.4321,-1.4482,-1.4824,-1.5401,-1.5726,-1.6296,-1.7025,-1.7925,-1.8656,-1.9213,-1.9766,-2.0245,-2.0566,-2.0566,-2.0576,-2.0576,-2.0576,-2.0576,-2.0576,-2.0576,-2.0576,-2.0576,-2.0576,-2.0576,-2.0576,-2.0576,-2.0576,-2.0566,-2.0566,-2.0654,-2.0819,-2.0984,-2.1138,-2.1282,-2.1721,-2.2176,-2.2852,-2.353,-2.4467,-2.5277,-2.6082,-2.6826,-2.6879,-2.6766,-2.6766,-2.6766,-2.6691,-2.6628,-2.659,-2.6527,-2.6521,-2.6521,-2.6521,-2.6521,-2.6521,-2.6521,-2.6521,-2.6521,-2.6521,-2.6521,-2.6521,-2.6521,-2.6589,-2.6658,-2.6918,-2.7188,-2.7577,-2.8235,-2.9093,-3.0147,-3.0464,0.1345,-0.0359,-0.0448,-0.0808,-0.1353,-0.1438,-0.1438,-0.1442,-0.1444,-0.1444,-0.1712,-0.2607,-0.2964,-0.3133,-0.3935,-0.4736,-0.5536,-0.598,-0.6691,-0.7492,-0.7764,-0.794,-0.8204,-0.8292,-0.8384,-0.8568,-0.8572,-0.8572,-0.8572,-0.8744,-0.917,-0.9859,-1.0809,-1.1929,-1.2796,-1.3659,-1.4088,-1.4088,-1.4088,-1.4088,-1.4088,-1.4088,-1.4173,-1.4166,-1.4166,-1.4328,-1.4566,-1.4734,-1.5068,-1.5484,-1.5974,-1.687,-1.7844,-1.8567,-1.9283,-2.0157,-2.0401,-2.0489,-2.0576,-2.0576,-2.0576,-2.0576,-2.0576,-2.0576,-2.0576,-2.0576,-2.0576,-2.0576,-2.0576,-2.0576,-2.0576,-2.0576,-2.0576,-2.0654,-2.0819,-2.0896,-2.0974,-2.1138,-2.1502,-2.1721,-2.2467,-2.3287,-2.4288,-2.5146,-2.5943,-2.6377,-2.6477,-2.6521,-2.6521,-2.6521,-2.6521,-2.6521,-2.6521,-2.6521,-2.6521,-2.6521,-2.6521,-2.6521,-2.6521,-2.6521,-2.6521,-2.6521,-2.6521,-2.6521,-2.6521,-2.6521,-2.6521,-2.6521,-2.704,-2.7696,-2.8725,-2.9498,-3.0222,-3.0658,-3.0777,0.2416,0.1433,0.0179,-0.0538,-0.0807,-0.1256,-0.1436,-0.1436,-0.1436,-0.1436,-0.1436,-0.1793,-0.1883,-0.224,-0.2867,-0.3669,-0.4113,-0.5628,-0.634,-0.6694,-0.7231,-0.7764,-0.794,-0.8113,-0.8292,-0.8384,-0.8476,-0.8572,-0.8572,-0.8572,-0.8656,-0.9257,-1.0202,-1.158,-1.3137,-1.4004,-1.4088,-1.4088,-1.4088,-1.4088,-1.4088,-1.4088,-1.4088,-1.4088,-1.4088,-1.4159,-1.4314,-1.4398,-1.4573,-1.4831,-1.5318,-1.5891,-1.6788,-1.7521,-1.7997,-1.8877,-1.9283,-2.001,-2.0411,-2.0576,-2.0576,-2.0576,-2.0576,-2.0576,-2.0576,-2.0576,-2.0576,-2.0576,-2.0576,-2.0576,-2.0576,-2.0576,-2.0566,-2.0566,-2.0644,-2.0731,-2.0809,-2.0896,-2.1128,-2.1282,-2.1721,-2.2692,-2.3632,-2.4921,-2.5791,-2.6233,-2.6314,-2.6452,-2.6521,-2.6521,-2.6521,-2.6521,-2.6521,-2.6521,-2.6521,-2.6521,-2.6521,-2.6521,-2.6521,-2.6521,-2.6521,-2.6521,-2.6521,-2.6521,-2.6521,-2.6521,-2.6645,-2.6918,-2.763,-2.8403,-2.9107,-2.956,-2.987,-3.0297,-3.0673,0.331,0.2329,0.1165,0.0179,-0.0448,-0.1166,-0.1436,-0.1436,-0.1436,-0.1436,-0.1436,-0.1436,-0.1436,-0.1614,-0.2062,-0.2689,-0.2957,-0.4026,-0.5181,-0.5536,-0.6428,-0.6874,-0.7228,-0.7848,-0.8116,-0.8204,-0.8476,-0.8572,-0.8572,-0.8572,-0.8828,-0.9257,-0.9602,-1.0977,-1.2528,-1.3222,-1.3737,-1.3913,-1.4088,-1.4088,-1.4088,-1.4088,-1.4088,-1.4088,-1.4088,-1.4166,-1.4243,-1.4321,-1.4398,-1.4566,-1.4734,-1.5151,-1.5974,-1.6468,-1.6952,-1.7844,-1.8807,-1.9687,-2.0323,-2.0576,-2.0576,-2.0576,-2.0576,-2.0576,-2.0576,-2.0576,-2.0576,-2.0576,-2.0576,-2.0576,-2.0576,-2.0576,-2.0566,-2.0566,-2.0644,-2.0644,-2.0644,-2.0819,-2.0906,-2.0974,-2.1492,-2.2392,-2.335,-2.4504,-2.5721,-2.5943,-2.6176,-2.6314,-2.6452,-2.6521,-2.6521,-2.6521,-2.6521,-2.6521,-2.6521,-2.6521,-2.6521,-2.6521,-2.6521,-2.6521,-2.6521,-2.6521,-2.6521,-2.6521,-2.6521,-2.6645,-2.6905,-2.7297,-2.7881,-2.8338,-2.8789,-2.917,-2.9498,-3.0054,-3.0687,0.4028,0.2685,0.2508,0.1433,-0.0179,-0.0897,-0.1346,-0.1436,-0.1436,-0.1436,-0.1436,-0.1436,-0.1436,-0.1436,-0.1435,-0.1972,-0.2689,-0.2956,-0.3667,-0.4378,-0.527,-0.5714,-0.6337,-0.7136,-0.7492,-0.8025,-0.8384,-0.848,-0.8568,-0.8572,-0.8999,-0.9428,-0.9515,-1.0463,-1.1327,-1.2106,-1.279,-1.3222,-1.3737,-1.3737,-1.3743,-1.4004,-1.4088,-1.4088,-1.4088,-1.4088,-1.4166,-1.4166,-1.4243,-1.4321,-1.4398,-1.5144,-1.5809,-1.6304,-1.7033,-1.7764,-1.8656,-1.945,-2.0245,-2.0411,-2.0576,-2.0576,-2.0576,-2.0576,-2.0576,-2.0576,-2.0576,-2.0576,-2.0576,-2.0576,-2.0576,-2.0576,-2.0576,-2.0566,-2.0566,-2.0644,-2.0644,-2.0731,-2.0819,-2.1118,-2.1776,-2.267,-2.3936,-2.5016,-2.5229,-2.5652,-2.5873,-2.6176,-2.6314,-2.6521,-2.6521,-2.6521,-2.6521,-2.6521,-2.6521,-2.6521,-2.6521,-2.6521,-2.6521,-2.6521,-2.6521,-2.6521,-2.6521,-2.6521,-2.6589,-2.6782,-2.7351,-2.767,-2.792,-2.8376,-2.898,-2.9296,-2.9747,-3.0433,-3.0984,0.4741,0.4204,0.3042,0.215,0.1523,0.0,-0.0987,-0.1346,-0.1436,-0.1436,-0.1436,-0.1436,-0.1436,-0.1436,-0.1436,-0.1614,-0.1973,-0.251,-0.2956,-0.358,-0.4289,-0.4645,-0.5179,-0.598,-0.6511,-0.7044,-0.758,-0.8204,-0.8296,-0.8388,-0.8656,-0.8915,-0.9087,-0.9602,-1.012,-1.0549,-1.1327,-1.21,-1.2705,-1.3045,-1.3307,-1.3652,-1.3828,-1.4004,-1.4088,-1.4088,-1.4088,-1.4088,-1.4166,-1.4166,-1.4159,-1.4573,-1.481,-1.5061,-1.547,-1.6788,-1.7674,-1.855,-1.952,-2.0245,-2.0576,-2.0576,-2.0576,-2.0576,-2.0576,-2.0576,-2.0576,-2.0576,-2.0576,-2.0576,-2.0576,-2.0576,-2.0576,-2.0576,-2.0576,-2.0566,-2.0644,-2.0654,-2.0741,-2.0954,-2.1614,-2.2521,-2.3852,-2.4455,-2.4659,-2.5158,-2.5581,-2.5955,-2.6245,-2.6383,-2.6521,-2.6521,-2.6521,-2.6521,-2.6521,-2.6521,-2.6521,-2.6521,-2.6521,-2.6521,-2.6521,-2.6521,-2.6521,-2.6645,-2.685,-2.7417,-2.8117,-2.8312,-2.8441,-2.8967,-2.9498,-2.9747,-3.0068,-3.0628,-3.0999,0.5099,0.4565,0.3671,0.2865,0.1972,0.0627,-0.0359,-0.0987,-0.1256,-0.1436,-0.1436,-0.1436,-0.1436,-0.1436,-0.1436,-0.1436,-0.1525,-0.1883,-0.2241,-0.2509,-0.331,-0.3578,-0.42,-0.4823,-0.5445,-0.598,-0.6688,-0.7394,-0.7665,-0.8204,-0.8476,-0.8476,-0.848,-0.8911,-0.9257,-0.9519,-0.9685,-1.0549,-1.1327,-1.1929,-1.2528,-1.3045,-1.3398,-1.3743,-1.3828,-1.4088,-1.4088,-1.4088,-1.4088,-1.4088,-1.4088,-1.4159,-1.4398,-1.4559,-1.4977,-1.6296,-1.7261,-1.823,-1.9204,-2.0167,-2.0489,-2.0576,-2.0566,-2.0576,-2.0576,-2.0576,-2.0576,-2.0576,-2.0576,-2.0576,-2.0576,-2.0576,-2.0576,-2.0576,-2.0576,-2.0576,-2.0576,-2.0576,-2.0644,-2.0789,-2.1395,-2.2145,-2.2894,-2.357,-2.4166,-2.4874,-2.5523,-2.598,-2.6258,-2.6396,-2.6465,-2.6521,-2.6521,-2.6521,-2.6521,-2.6521,-2.6521,-2.6521,-2.6521,-2.6521,-2.6521,-2.6521,-2.6589,-2.6918,-2.7229,-2.7868,-2.8634,-2.8903,-2.9156,-2.9623,-2.9946,-3.0129,-3.0326,-3.0568,-3.0821,0.5196,0.4478,0.43,0.3315,0.1885,0.1076,0.0448,-0.0269,-0.0897,-0.1346,-0.1346,-0.1436,-0.1436,-0.1436,-0.1436,-0.1436,-0.1436,-0.1615,-0.1705,-0.1436,-0.233,-0.2777,-0.3133,-0.3846,-0.4291,-0.4825,-0.5534,-0.6416,-0.6773,-0.7309,-0.7845,-0.8113,-0.8384,-0.856,-0.8648,-0.874,-0.8911,-0.9262,-1.0207,-1.1068,-1.1585,-1.2186,-1.279,-1.3045,-1.3568,-1.4088,-1.4088,-1.4088,-1.4088,-1.4088,-1.4082,-1.4159,-1.4321,-1.4482,-1.5061,-1.5711,-1.6683,-1.7504,-1.839,-1.9274,-2.001,-2.0255,-2.0489,-2.0489,-2.0489,-2.0566,-2.0576,-2.0576,-2.0576,-2.0576,-2.0576,-2.0576,-2.0576,-2.0576,-2.0576,-2.0576,-2.0576,-2.0644,-2.0789,-2.1011,-2.1756,-2.251,-2.3169,-2.3841,-2.4671,-2.5016,-2.5312,-2.591,-2.6201,-2.6339,-2.6465,-2.6452,-2.6521,-2.6521,-2.6521,-2.6521,-2.6521,-2.6521,-2.6521,-2.6521,-2.6521,-2.6589,-2.6726,-2.7108,-2.755,-2.839,-2.903,-2.9359,-2.9747,-3.0129,-3.0387,-3.0507,-3.0642,-3.0702,-3.0702,0.5552,0.5285,0.4567,0.3676,0.2603,0.1885,0.1436,0.1166,-0.009,-0.0897,-0.1346,-0.1436,-0.1436,-0.1436,-0.1436,-0.1436,-0.1436,-0.1436,-0.1436,-0.1436,-0.1793,-0.1973,-0.1973,-0.2865,-0.3223,-0.3669,-0.4378,-0.5531,-0.6328,-0.6861,-0.7309,-0.794,-0.812,-0.8208,-0.8384,-0.8384,-0.8476,-0.8656,-0.9091,-1.0207,-1.1154,-1.2186,-1.2966,-1.3392,-1.3913,-1.4004,-1.4004,-1.4082,-1.4088,-1.4088,-1.4088,-1.4166,-1.4166,-1.4243,-1.4405,-1.4887,-1.5786,-1.6601,-1.7261,-1.8149,-1.8877,-1.945,-1.9696,-2.0089,-2.0333,-2.0489,-2.0576,-2.0566,-2.0576,-2.0576,-2.0576,-2.0576,-2.0576,-2.0576,-2.0576,-2.0576,-2.0576,-2.0722,-2.0867,-2.1461,-2.2199,-2.2713,-2.3294,-2.4036,-2.5016,-2.5382,-2.5465,-2.5758,-2.6062,-2.6283,-2.6396,-2.6452,-2.6452,-2.6521,-2.6521,-2.6521,-2.6521,-2.6521,-2.6521,-2.6521,-2.6521,-2.6589,-2.6714,-2.7351,-2.7986,-2.8634,-2.9359,-2.9993,-3.0387,-3.0582,-3.0642,-3.0642,-3.0642,-3.0642,-3.0642,0.5555,0.5282,0.4565,0.3853,0.3229,0.2781,0.2332,0.1705,0.0897,0.0,-0.0987,-0.1256,-0.1436,-0.1436,-0.1436,-0.1436,-0.1436,-0.1436,-0.1436,-0.1436,-0.1436,-0.1436,-0.1704,-0.1973,-0.2152,-0.2598,-0.3844,-0.5087,-0.5974,-0.6868,-0.7408,-0.7856,-0.7944,-0.8116,-0.8292,-0.8384,-0.8388,-0.8572,-0.8572,-0.9432,-1.0636,-1.1327,-1.1671,-1.2186,-1.296,-1.3222,-1.3652,-1.3822,-1.4088,-1.4088,-1.4088,-1.4088,-1.4088,-1.4166,-1.4166,-1.4489,-1.5137,-1.5786,-1.6288,-1.6854,-1.7658,-1.8238,-1.8559,-1.8868,-1.9036,-1.9274,-2.0255,-2.0333,-2.0566,-2.0576,-2.0576,-2.0576,-2.0576,-2.0576,-2.0576,-2.0576,-2.0576,-2.0644,-2.0722,-2.0934,-2.1385,-2.1527,-2.2048,-2.2574,-2.3463,-2.4204,-2.4576,-2.5535,-2.584,-2.6144,-2.6258,-2.6396,-2.6396,-2.6452,-2.6521,-2.6521,-2.6521,-2.6521,-2.6521,-2.6521,-2.6521,-2.6521,-2.6714,-2.7351,-2.8051,-2.8762,-2.9407,-3.0129,-3.0507,-3.0582,-3.0642,-3.0642,-3.0642,-3.0642,-3.0642,0.5549,0.4921,0.4565,0.4121,0.3676,0.3587,0.305,0.2153,0.1795,0.1076,0.0,-0.0718,-0.1166,-0.1346,-0.1436,-0.1436,-0.1436,-0.1436,-0.1436,-0.1436,-0.1436,-0.1436,-0.1436,-0.1525,-0.1615,-0.1972,-0.3042,-0.4291,-0.545,-0.6163,-0.6786,-0.7588,-0.8028,-0.8201,-0.8388,-0.8476,-0.8476,-0.848,-0.8652,-0.8995,-0.9515,-0.9859,-1.0289,-1.0809,-1.1499,-1.2448,-1.279,-1.313,-1.3652,-1.3997,-1.3997,-1.4088,-1.4088,-1.4088,-1.4088,-1.4328,-1.4727,-1.5296,-1.5621,-1.6108,-1.6683,-1.718,-1.7334,-1.7658,-1.79,-1.863,-1.9608,-2.0098,-2.0333,-2.0566,-2.0566,-2.0576,-2.0576,-2.0576,-2.0576,-2.0576,-2.0576,-2.0576,-2.0644,-2.0634,-2.0789,-2.0857,-2.1308,-2.1766,-2.2435,-2.3169,-2.3913,-2.4802,-2.5535,-2.5828,-2.6037,-2.6188,-2.6327,-2.6396,-2.6452,-2.6521,-2.6521,-2.6521,-2.6521,-2.6521,-2.6521,-2.6714,-2.696,-2.7404,-2.8117,-2.8967,-2.9484,-3.0129,-3.0387,-3.0642,-3.0642,-3.0642,-3.0642,-3.0642,-3.0642,0.5985,0.501,0.4919,0.4565,0.4121,0.3765,0.3408,0.3138,0.2242,0.1615,0.1166,0.0538,-0.0269,-0.1346,-0.1436,-0.1436,-0.1436,-0.1436,-0.1436,-0.1436,-0.1436,-0.1436,-0.1436,-0.1436,-0.1436,-0.1704,-0.2239,-0.2953,-0.438,-0.5003,-0.5714,-0.7051,-0.7228,-0.7408,-0.768,-0.7856,-0.8208,-0.8296,-0.8476,-0.874,-0.8999,-0.9515,-1.0376,-1.089,-1.1322,-1.158,-1.1666,-1.1757,-1.2272,-1.2875,-1.3574,-1.3913,-1.4004,-1.4004,-1.4088,-1.4088,-1.4573,-1.465,-1.497,-1.513,-1.5545,-1.6124,-1.6445,-1.6846,-1.7415,-1.823,-1.9125,-1.9775,-2.001,-2.0411,-2.0489,-2.0566,-2.0576,-2.0576,-2.0576,-2.0576,-2.0576,-2.0576,-2.0644,-2.0867,-2.1165,-2.1614,-2.2199,-2.2798,-2.3537,-2.4131,-2.4432,-2.5241,-2.5535,-2.5676,-2.5828,-2.5968,-2.6188,-2.6339,-2.6465,-2.6452,-2.6521,-2.6521,-2.6521,-2.6577,-2.6769,-2.7095,-2.7404,-2.7723,-2.8441,-2.9359,-2.987,-3.0129,-3.0387,-3.0642,-3.0642,-3.0642,-3.0613,-3.0466,-3.0364]}]]